[[{"header":{"parameterUnit":"m.s-1","parameterCategory":1,"la1":31.0,"la2":29.5877,"lo1":-88.7671,"lo2":-86.6584,"dy":0.0162,"dx":0.0185,"nx":115,"ny":88,"refTime":"2024-08-20T06:00:00:Z","depth":0,"parameterNumber":2,"parameterNumberName":"U-component_of_WINDS"},"data":[0.0,0.0,0.0,0.0,0.0,0.0,0.0,0.0,0.0,0.0,0.0,0.0,0.0,0.0,0.0,0.0,0.0,0.0,0.0,0.0,0.0,0.0,0.0,0.0,0.0,0.0,0.0,0.0,0.0,0.0,0.0,0.0,0.0,0.0,0.0,0.0,0.0,0.0,0.0,0.0,0.0,0.0,0.0,0.0,0.0,0.0,0.0,0.0,0.0,0.0,0.0,0.0,0.0,0.0,0.0,0.0,0.0,0.0,0.0,0.0,0.0,0.0,0.0,0.0,0.0,0.0,0.0,0.0,0.0,0.0,0.0,0.0,0.0,0.0,0.0,0.0,0.0,0.0,0.0,0.0,0.0,0.0,0.0,0.0,0.0,0.0,0.0,0.0,0.0,0.0,0.0,0.0,0.0,0.0,0.0,0.0,0.0,0.0,0.0,0.0,0.0,0.0,0.0,0.0,0.0,0.0,0.0,0.0,0.0,0.0,0.0,0.0,0.0,0.0,0.0,0.0,0.0,0.0,0.0,0.0,0.0,0.0,0.0,0.0,0.0,0.0,0.0,0.0,0.0,0.0,0.0,0.0,0.0,0.0,0.0,0.0,0.0,0.0,0.0,0.0,0.0,0.0,0.0,0.0,0.0,0.0,0.0,0.0,0.0,0.0,0.0,0.0,0.0,0.0,0.0,0.0,0.0,0.0,0.0,0.0,0.0,0.0,0.0,0.0,0.0,0.0,0.0,0.0,0.0,0.0,0.0,0.0,0.0,0.0,0.0,0.0,0.0,0.0,0.0,0.0,0.0,0.0,0.0,0.0,0.0,0.0,0.0,0.0,0.0,0.0,0.0,0.0,0.0,0.0,0.0,0.0,0.0,0.0,0.0,0.0,0.0,0.0,0.0,0.0,0.0,0.0,0.0,0.0,0.0,0.0,0.0,0.0,0.0,0.0,0.0,0.0,0.0,0.0,0.0,0.0,0.0,0.0,0.0,0.0,0.0,0.0,0.0,0.0,0.0,0.0,0.0,0.0,0.0,0.0,0.0,0.0,0.0,0.0,0.0,0.0,0.0,0.0,0.0,0.0,0.0,0.0,0.0,0.0,0.0,0.0,0.0,0.0,0.0,0.0,0.0,0.0,0.0,0.0,0.0,0.0,0.0,0.0,0.0,0.0,0.0,0.0,0.0,0.0,0.0,0.0,0.0,0.0,0.0,0.0,0.0,0.0,0.0,0.0,0.0,0.0,0.0,0.0,0.0,0.0,0.0,0.0,0.0,0.0,0.0,0.0,0.0,0.0,0.0,0.0,0.0,0.0,0.0,0.0,0.0,0.0,0.0,0.0,0.0,0.0,0.0,0.0,0.0,0.0,0.0,0.0,0.0,0.0,0.0,0.0,0.0,0.0,0.0,0.0,0.0,0.0,0.0,0.0,0.0,0.0,0.0,0.0,0.0,0.0,0.0,0.0,0.0,0.0,0.0,0.0,0.0,0.0,0.0,0.0,0.0,0.0,0.0,0.0,0.0,0.0,0.0,0.0,0.0,0.0,0.0,0.0,0.0,0.0,0.0,0.0,0.0,0.0,0.0,0.0,0.0,0.0,0.0,0.0,0.0,0.0,0.0,0.0,0.0,0.0,0.0,0.0,0.0,0.0,0.0,0.0,0.0,0.0,0.0,0.0,0.0,0.0,0.0,0.0,0.0,0.0,0.0,0.0,0.0,0.0,0.0,0.0,0.0,0.0,0.0,0.0,0.0,0.0,0.0,0.0,0.0,0.0,0.0,0.0,0.0,0.0,0.0,0.0,0.0,0.0,0.0,0.0,0.0,0.0,0.0,0.0,0.0,0.0,0.0,0.0,0.0,0.0,0.0,0.0,0.0,0.0,0.0,0.0,0.0,0.0,0.0,0.0,0.0,0.0,0.0,0.0,0.0,0.0,0.0,0.0,0.0,0.0,0.0,0.0,0.0,0.0,0.0,0.0,0.0,0.0,0.0,0.0,0.0,0.0,0.0,0.0,0.0,0.0,0.0,0.0,0.0,0.0,0.0,0.0,0.0,0.0,0.0,0.0,0.0,0.0,0.0,0.0,0.0,0.0,0.0,0.0,0.0,0.0,0.0,0.0,0.0,0.0,0.0,0.0,0.0,0.0,0.0,0.0,0.0,0.0,0.0,0.0,0.0,0.0,0.0,0.0,0.0,0.0,0.0,0.0,0.0,0.0,0.0,0.0,0.0,0.0,0.0,0.0,0.0,0.0,0.0,0.0,0.0,0.0,0.0,0.0,0.0,0.0,0.0,0.0,0.0,0.0,0.0,0.0,0.0,0.0,0.0,0.0,0.0,0.0,0.0,0.0,0.0,0.0,0.0,0.0,0.0,0.0,0.0,0.0,0.0,0.0,0.0,0.0,0.0,0.0,0.0,0.0,0.0,0.0,0.0,0.0,0.0,0.0,0.0,0.0,0.0,0.0,0.0,0.0,0.0,0.0,0.0,0.0,0.0,0.0,0.0,0.0,0.0,0.0,0.0,0.0,0.0,0.0,0.0,0.0,0.0,0.0,0.0,0.0,0.0,0.0,0.0,0.0,0.0,0.0,0.0,0.0,0.0,0.0,0.0,0.0,0.0,0.0,0.0,0.0,0.0,0.0,0.0,0.0,0.0,0.0,0.0,0.0,0.0,0.0,0.0,0.0,0.0,0.0,0.0,0.0,0.0,0.0,0.0,0.0,0.0,0.0,0.0,0.0,0.0,0.0,0.0,0.0,0.0,0.0,0.0,0.0,0.0,0.0,0.0,0.0,0.0,0.0,0.0,0.0,0.0,0.0,0.0,0.0,0.0,0.0,0.0,0.0,0.0,0.0,0.0,0.0,0.0,0.0,0.0,0.0,0.0,0.0,0.0,0.0,0.0,0.0,0.0,0.0,0.0,0.0,0.0,0.0,0.0,0.0,0.0,0.0,0.0,0.0,0.0,0.0,0.0,0.0,0.0,0.0,0.0,0.0,0.0,0.0,0.0,0.0,0.0,0.0,0.0,0.0,0.0,0.0,0.0,0.0,0.0,0.0,0.0,0.0,0.0,0.0,0.0,0.0,0.0,0.0,0.0,0.0,0.0,0.0,0.0,0.0,0.0,0.0,0.0,0.0,0.0,0.0,0.0,0.0,0.0,0.0,0.0,0.0,0.0,0.0,0.0,0.0,0.0,0.0,0.0,0.0,0.0,0.0,0.0,0.0,0.0,0.0,0.0,0.0,0.0,0.0,0.0,0.0,0.0,0.0,0.0,0.0,0.0,0.0,0.0,0.0,0.0,0.0,0.0,0.0,0.0,0.0,0.0,0.0,0.0,0.0,0.0,0.0,0.0,0.0,0.0,0.0,0.0,0.0,0.0,0.0,0.0,0.0,0.0,0.0,0.0,0.0,0.0,0.0,0.0,0.0,0.0,0.0,0.0,0.0,0.0,0.0,0.0,0.0,0.0,0.0,0.0,0.0,0.0,0.0,0.0,0.0,0.0,0.0,0.0,0.0,0.0,0.0,0.0,0.0,0.0,0.0,0.0,0.0,0.0,0.0,0.0,0.0,0.0,0.0,0.0,0.0,0.0,0.0,0.0,0.0,0.0,0.0,0.0,0.0,0.0,0.0,0.0,0.0,0.0,0.0,0.0,0.0,0.0,0.0,0.0,0.0,0.0,0.0,0.0,0.0,0.0,0.0,0.0,0.0,0.0,0.0,0.0,0.0,0.0,0.0,0.0,0.0,0.0,0.0,0.0,0.0,0.0,0.0,0.0,0.0,0.0,0.0,0.0,0.0,0.0,0.0,0.0,0.0,0.0,0.0,0.0,0.0,0.0,0.0,0.0,0.0,0.0,0.0,0.0,0.0,0.0,0.0,0.0,0.0,0.0,0.0,0.0,0.0,0.0,0.0,0.0,0.0,0.0,0.0,0.0,0.0,0.0,0.0,0.0,0.0,0.0,0.0,0.0,0.0,0.0,0.0,0.0,0.0,0.0,0.0,0.0,0.0,0.0,0.0,0.0,0.0,0.0,0.0,0.0,0.0,0.0,0.0,0.0,0.0,0.0,0.0,0.0,0.0,0.0,0.0,0.0,0.0,0.0,0.0,0.0,0.0,0.0,0.0,0.0,0.0,0.0,0.0,0.0,0.0,0.0,0.0,0.0,0.0,0.0,0.0,0.0,0.0,0.0,0.0,0.0,0.0,0.0,0.0,0.0,0.0,0.0,0.0,0.0,0.0,0.0,0.0,0.0,0.0,0.0,0.0,0.0,0.0,2.5666,0.0,0.0,0.0,0.0,0.0,0.0,0.0,0.0,0.0,0.0,0.0,0.0,0.0,0.0,0.0,0.0,0.0,0.0,0.0,0.0,0.0,0.0,0.0,0.0,0.0,0.0,0.0,0.0,0.0,0.0,0.0,0.0,0.0,0.0,0.0,0.0,0.0,0.0,0.0,0.0,0.0,0.0,0.0,0.0,0.0,0.0,0.0,0.0,0.0,0.0,0.0,0.0,0.0,0.0,0.0,0.0,0.0,0.0,0.0,0.0,0.0,0.0,0.0,0.0,0.0,0.0,0.0,0.0,0.0,0.0,0.0,0.0,0.0,0.0,0.0,0.0,0.0,0.0,0.0,0.0,0.0,0.0,0.0,0.0,0.0,0.0,0.0,0.0,0.0,0.0,0.0,0.0,0.0,0.0,0.0,0.0,0.0,0.0,0.0,0.0,0.0,0.0,0.0,0.0,0.0,0.0,0.0,0.0,0.0,0.0,2.7522,2.6741,2.7126,2.6778,2.5608,0.0,0.0,0.0,0.0,0.0,0.0,0.0,0.0,0.0,0.0,0.0,0.0,0.0,0.0,0.0,0.0,0.0,0.0,0.0,0.0,0.0,0.0,0.0,0.0,0.0,0.0,0.0,0.0,0.0,0.0,0.0,0.0,0.0,0.0,0.0,0.0,0.0,0.0,0.0,0.0,0.0,0.0,0.0,0.0,0.0,0.0,0.0,0.0,0.0,0.0,0.0,0.0,0.0,0.0,0.0,0.0,0.0,0.0,0.0,0.0,0.0,0.0,0.0,0.0,0.0,0.0,0.0,0.0,0.0,0.0,0.0,0.0,0.0,0.0,0.0,0.0,0.0,0.0,0.0,0.0,0.0,0.0,0.0,0.0,0.0,0.0,0.0,0.0,0.0,0.0,0.0,0.0,0.0,0.0,0.0,0.0,0.0,0.0,0.0,0.0,0.0,0.0,0.0,0.0,0.0,0.0,0.0,0.0,0.0,0.0,0.0,0.0,2.6962,2.6594,2.5617,0.0,0.0,0.0,0.0,0.0,0.0,0.0,0.0,0.0,0.0,0.0,0.0,0.0,0.0,0.0,0.0,0.0,0.0,0.0,0.0,0.0,0.0,0.0,0.0,0.0,0.0,0.0,0.0,0.0,0.0,0.0,0.0,0.0,0.0,0.0,0.0,0.0,0.0,0.0,0.0,0.0,0.0,0.0,0.0,0.0,0.0,0.0,0.0,0.0,0.0,0.0,0.0,0.0,0.0,0.0,0.0,0.0,0.0,0.0,0.0,0.0,0.0,0.0,0.0,0.0,0.0,0.0,0.0,0.0,0.0,0.0,0.0,0.0,0.0,0.0,0.0,0.0,0.0,0.0,0.0,0.0,0.0,0.0,0.0,0.0,0.0,0.0,0.0,0.0,0.0,0.0,0.0,0.0,0.0,0.0,0.0,0.0,0.0,0.0,0.0,0.0,0.0,0.0,0.0,0.0,0.0,0.0,0.0,0.0,0.0,2.6702,2.6712,2.7531,0.0,2.5817,0.0,0.0,0.0,0.0,0.0,0.0,0.0,0.0,0.0,0.0,0.0,0.0,0.0,0.0,0.0,0.0,0.0,0.0,0.0,0.0,0.0,0.0,0.0,0.0,0.0,0.0,0.0,0.0,0.0,0.0,0.0,0.0,0.0,0.0,0.0,0.0,0.0,0.0,0.0,0.0,0.0,0.0,0.0,0.0,0.0,0.0,0.0,0.0,0.0,0.0,0.0,0.0,0.0,0.0,0.0,0.0,0.0,0.0,0.0,0.0,0.0,0.0,0.0,0.0,0.0,0.0,0.0,0.0,0.0,0.0,0.0,0.0,0.0,0.0,0.0,0.0,0.0,0.0,0.0,0.0,0.0,0.0,0.0,0.0,0.0,0.0,0.0,0.0,0.0,0.0,0.0,0.0,0.0,0.0,0.0,0.0,0.0,0.0,0.0,0.0,0.0,0.0,0.0,0.0,0.0,0.0,0.0,0.0,0.0,0.0,2.6702,2.6702,2.6644,2.634,0.0,0.0,0.0,0.0,0.0,0.0,0.0,0.0,0.0,0.0,0.0,0.0,0.0,0.0,0.0,0.0,0.0,0.0,0.0,0.0,0.0,0.0,0.0,0.0,0.0,0.0,0.0,0.0,0.0,0.0,0.0,0.0,0.0,0.0,0.0,0.0,0.0,0.0,0.0,0.0,0.0,0.0,0.0,0.0,0.0,0.0,0.0,0.0,0.0,0.0,0.0,0.0,0.0,0.0,0.0,0.0,0.0,0.0,0.0,0.0,0.0,0.0,0.0,0.0,0.0,0.0,0.0,0.0,0.0,0.0,0.0,0.0,0.0,0.0,0.0,0.0,0.0,0.0,0.0,0.0,0.0,0.0,0.0,0.0,0.0,0.0,0.0,0.0,0.0,0.0,0.0,0.0,0.0,0.0,0.0,0.0,0.0,0.0,0.0,0.0,0.0,0.0,0.0,0.0,0.0,0.0,0.0,0.0,0.0,0.0,2.6526,2.6828,2.7049,2.6362,2.5655,2.501,0.0,0.0,0.0,0.0,0.0,0.0,0.0,0.0,0.0,0.0,0.0,0.0,0.0,0.0,0.0,0.0,0.0,0.0,0.0,0.0,0.0,0.0,0.0,0.0,0.0,0.0,0.0,0.0,0.0,0.0,0.0,0.0,0.0,0.0,0.0,0.0,0.0,0.0,0.0,0.0,0.0,0.0,0.0,0.0,0.0,0.0,0.0,0.0,0.0,0.0,0.0,0.0,0.0,0.0,0.0,0.0,0.0,0.0,0.0,0.0,0.0,0.0,0.0,0.0,0.0,0.0,0.0,0.0,0.0,0.0,0.0,0.0,0.0,0.0,0.0,0.0,0.0,0.0,0.0,0.0,0.0,0.0,0.0,0.0,0.0,0.0,0.0,0.0,0.0,0.0,0.0,0.0,0.0,0.0,0.0,0.0,0.0,0.0,0.0,0.0,0.0,0.0,0.0,0.0,0.0,0.0,0.0,0.0,0.0,2.7097,2.7155,2.8062,2.7295,2.5697,0.0,0.0,0.0,0.0,0.0,0.0,0.0,0.0,0.0,0.0,0.0,0.0,0.0,0.0,0.0,0.0,0.0,0.0,0.0,0.0,0.0,0.0,0.0,0.0,0.0,0.0,0.0,0.0,0.0,0.0,0.0,0.0,0.0,0.0,0.0,0.0,0.0,0.0,0.0,0.0,0.0,0.0,0.0,0.0,0.0,0.0,0.0,0.0,0.0,0.0,0.0,0.0,0.0,0.0,0.0,0.0,0.0,0.0,0.0,0.0,0.0,0.0,0.0,0.0,0.0,0.0,0.0,0.0,0.0,0.0,0.0,0.0,0.0,0.0,0.0,0.0,0.0,0.0,0.0,0.0,0.0,0.0,0.0,0.0,0.0,0.0,0.0,0.0,0.0,0.0,0.0,0.0,0.0,0.0,0.0,0.0,0.0,0.0,0.0,0.0,0.0,0.0,0.0,0.0,0.0,0.0,0.0,0.0,0.0,2.6372,2.6633,2.7225,2.8087,2.6321,2.4612,0.0,0.0,0.0,0.0,0.0,0.0,0.0,0.0,0.0,0.0,0.0,0.0,0.0,0.0,0.0,0.0,0.0,0.0,0.0,0.0,0.0,0.0,0.0,0.0,0.0,0.0,0.0,0.0,0.0,0.0,0.0,0.0,0.0,0.0,0.0,0.0,0.0,0.0,0.0,0.0,0.0,0.0,0.0,0.0,0.0,0.0,0.0,0.0,0.0,0.0,0.0,0.0,0.0,0.0,0.0,0.0,0.0,0.0,0.0,0.0,0.0,0.0,0.0,0.0,0.0,0.0,0.0,0.0,0.0,0.0,0.0,0.0,0.0,0.0,0.0,0.0,0.0,0.0,0.0,0.0,0.0,0.0,0.0,0.0,0.0,0.0,0.0,0.0,0.0,0.0,0.0,0.0,0.0,0.0,0.0,0.0,0.0,0.0,0.0,0.0,0.0,0.0,0.0,0.0,0.0,0.0,0.0,0.0,0.0,2.5914,0.0,2.713,0.0,2.558,2.3743,0.0,0.0,0.0,0.0,0.0,0.0,0.0,0.0,0.0,0.0,0.0,0.0,0.0,0.0,0.0,0.0,0.0,0.0,0.0,0.0,0.0,0.0,0.0,0.0,0.0,0.0,0.0,0.0,0.0,0.0,0.0,0.0,0.0,0.0,0.0,0.0,0.0,0.0,0.0,0.0,0.0,0.0,0.0,0.0,0.0,0.0,0.0,0.0,0.0,0.0,0.0,0.0,0.0,0.0,0.0,0.0,0.0,0.0,0.0,0.0,0.0,0.0,0.0,0.0,0.0,0.0,0.0,0.0,0.0,0.0,0.0,0.0,0.0,0.0,0.0,0.0,0.0,0.0,0.0,0.0,0.0,0.0,0.0,0.0,0.0,0.0,0.0,0.0,0.0,0.0,0.0,0.0,0.0,0.0,0.0,0.0,0.0,0.0,0.0,0.0,0.0,0.0,0.0,0.0,0.0,0.0,0.0,0.0,2.5902,2.6697,2.6797,2.6839,2.6852,2.5234,2.3206,0.0,0.0,0.0,0.0,0.0,0.0,0.0,0.0,0.0,0.0,0.0,0.0,0.0,0.0,0.0,0.0,0.0,0.0,0.0,0.0,0.0,0.0,0.0,0.0,0.0,0.0,0.0,0.0,0.0,0.0,0.0,0.0,0.0,0.0,0.0,0.0,0.0,0.0,0.0,0.0,0.0,0.0,0.0,0.0,0.0,0.0,0.0,0.0,0.0,0.0,0.0,0.0,0.0,0.0,0.0,0.0,0.0,0.0,0.0,0.0,0.0,0.0,0.0,0.0,0.0,0.0,0.0,0.0,0.0,0.0,0.0,0.0,0.0,0.0,0.0,0.0,0.0,0.0,0.0,0.0,0.0,0.0,0.0,0.0,0.0,0.0,0.0,0.0,0.0,0.0,0.0,0.0,0.0,0.0,0.0,0.0,0.0,0.0,0.0,0.0,0.0,0.0,0.0,0.0,0.0,0.0,0.0,0.0,0.0,2.5026,2.5655,2.6007,2.5936,2.4381,2.2849,0.0,0.0,0.0,0.0,0.0,0.0,0.0,0.0,0.0,0.0,0.0,0.0,0.0,0.0,0.0,0.0,0.0,0.0,0.0,0.0,0.0,0.0,0.0,0.0,0.0,0.0,0.0,0.0,0.0,0.0,0.0,0.0,0.0,0.0,0.0,0.0,0.0,0.0,0.0,0.0,0.0,0.0,0.0,0.0,0.0,0.0,0.0,0.0,0.0,0.0,0.0,0.0,0.0,0.0,0.0,0.0,0.0,0.0,0.0,0.0,0.0,0.0,0.0,0.0,0.0,0.0,0.0,0.0,0.0,0.0,0.0,0.0,0.0,0.0,0.0,0.0,0.0,0.0,0.0,0.0,0.0,0.0,0.0,0.0,0.0,0.0,0.0,0.0,0.0,0.0,0.0,0.0,0.0,0.0,0.0,0.0,0.0,0.0,0.0,0.0,0.0,0.0,0.0,0.0,0.0,0.0,0.0,0.0,0.0,2.4318,2.5132,2.5605,2.5637,2.4307,2.3023,2.1844,0.0,0.0,0.0,0.0,0.0,0.0,0.0,0.0,0.0,0.0,0.0,0.0,0.0,0.0,0.0,0.0,0.0,0.0,0.0,0.0,0.0,0.0,0.0,0.0,0.0,0.0,0.0,0.0,0.0,0.0,0.0,0.0,0.0,0.0,0.0,0.0,0.0,0.0,0.0,0.0,0.0,0.0,0.0,0.0,0.0,0.0,0.0,0.0,0.0,0.0,0.0,0.0,0.0,0.0,0.0,0.0,0.0,0.0,0.0,0.0,0.0,0.0,0.0,0.0,0.0,0.0,0.0,0.0,0.0,0.0,0.0,0.0,0.0,0.0,0.0,0.0,0.0,0.0,0.0,0.0,0.0,0.0,0.0,0.0,0.0,0.0,0.0,0.0,0.0,0.0,0.0,0.0,0.0,0.0,0.0,0.0,0.0,0.0,0.0,0.0,0.0,0.0,0.0,0.0,0.0,0.0,0.0,0.0,2.4382,2.5174,2.5627,2.5668,2.4833,2.3608,0.0,0.0,0.0,0.0,0.0,0.0,0.0,0.0,0.0,0.0,0.0,0.0,0.0,0.0,0.0,0.0,0.0,0.0,0.0,0.0,0.0,0.0,0.0,0.0,0.0,0.0,0.0,0.0,0.0,0.0,0.0,0.0,0.0,0.0,0.0,0.0,0.0,0.0,0.0,0.0,0.0,0.0,0.0,0.0,0.0,0.0,0.0,0.0,0.0,0.0,0.0,0.0,0.0,0.0,0.0,0.0,0.0,0.0,0.0,0.0,0.0,0.0,0.0,0.0,0.0,0.0,0.0,0.0,0.0,0.0,0.0,0.0,0.0,0.0,0.0,0.0,0.0,0.0,0.0,0.0,0.0,0.0,0.0,0.0,0.0,0.0,0.0,0.0,0.0,0.0,0.0,0.0,0.0,0.0,0.0,0.0,0.0,0.0,0.0,0.0,0.0,0.0,0.0,0.0,0.0,0.0,0.0,0.0,0.0,2.5271,2.549,2.5606,2.56,2.4778,2.4112,0.0,0.0,0.0,0.0,0.0,0.0,0.0,0.0,0.0,0.0,0.0,0.0,0.0,0.0,0.0,0.0,0.0,0.0,0.0,0.0,0.0,0.0,0.0,0.0,0.0,0.0,0.0,0.0,0.0,0.0,0.0,0.0,0.0,0.0,0.0,0.0,0.0,0.0,0.0,0.0,0.0,0.0,0.0,0.0,0.0,0.0,0.0,0.0,0.0,0.0,0.0,0.0,0.0,0.0,0.0,0.0,0.0,0.0,0.0,0.0,0.0,0.0,0.0,0.0,0.0,0.0,0.0,0.0,0.0,0.0,0.0,0.0,0.0,0.0,0.0,0.0,0.0,0.0,0.0,0.0,0.0,0.0,0.0,0.0,0.0,0.0,0.0,0.0,0.0,0.0,0.0,0.0,0.0,0.0,0.0,0.0,0.0,0.0,0.0,0.0,0.0,0.0,0.0,0.0,0.0,0.0,0.0,0.0,2.5639,2.5601,2.5606,2.5576,2.551,2.5027,2.4597,0.0,0.0,0.0,0.0,0.0,0.0,0.0,0.0,0.0,0.0,0.0,0.0,0.0,0.0,0.0,0.0,0.0,0.0,0.0,0.0,0.0,0.0,0.0,0.0,0.0,0.0,0.0,0.0,0.0,0.0,0.0,0.0,0.0,0.0,0.0,0.0,0.0,0.0,0.0,0.0,0.0,0.0,0.0,0.0,0.0,0.0,0.0,0.0,0.0,0.0,0.0,0.0,0.0,0.0,0.0,0.0,0.0,0.0,0.0,0.0,0.0,0.0,0.0,0.0,0.0,0.0,0.0,0.0,0.0,0.0,0.0,0.0,0.0,0.0,0.0,0.0,0.0,0.0,0.0,0.0,0.0,0.0,0.0,0.0,0.0,0.0,0.0,0.0,0.0,0.0,0.0,0.0,0.0,0.0,0.0,0.0,0.0,0.0,0.0,0.0,0.0,0.0,0.0,0.0,0.0,0.0,0.0,0.0,2.5668,2.56,2.5508,2.5438,2.5351,2.5357,2.5037,0.0,0.0,0.0,0.0,0.0,0.0,0.0,0.0,0.0,0.0,0.0,0.0,0.0,0.0,0.0,0.0,0.0,0.0,0.0,0.0,0.0,0.0,0.0,0.0,0.0,0.0,0.0,0.0,0.0,0.0,0.0,0.0,0.0,0.0,0.0,0.0,0.0,0.0,0.0,0.0,0.0,0.0,0.0,0.0,0.0,0.0,0.0,0.0,0.0,0.0,0.0,0.0,0.0,0.0,0.0,0.0,0.0,0.0,0.0,0.0,0.0,0.0,0.0,0.0,0.0,0.0,0.0,0.0,0.0,0.0,0.0,0.0,0.0,0.0,0.0,0.0,0.0,0.0,0.0,0.0,0.0,0.0,0.0,0.0,0.0,0.0,0.0,0.0,0.0,0.0,0.0,0.0,0.0,0.0,0.0,0.0,0.0,0.0,0.0,0.0,0.0,0.0,0.0,0.0,0.0,0.0,0.0,0.0,2.5663,2.5586,2.4871,2.4687,2.509,2.5083,2.51,0.0,0.0,0.0,0.0,0.0,0.0,0.0,0.0,0.0,0.0,0.0,0.0,0.0,0.0,0.0,0.0,0.0,0.0,0.0,0.0,0.0,0.0,0.0,0.0,0.0,0.0,0.0,0.0,0.0,0.0,0.0,0.0,0.0,0.0,0.0,0.0,0.0,0.0,0.0,0.0,0.0,0.0,0.0,0.0,0.0,0.0,0.0,0.0,1.639,0.0,0.0,0.0,0.0,0.0,0.0,0.0,0.0,0.0,0.0,0.0,0.0,0.0,0.0,0.0,0.0,0.0,0.0,0.0,0.0,0.0,0.0,0.0,0.0,0.0,0.0,0.0,0.0,0.0,0.0,0.0,0.0,0.0,0.0,0.0,0.0,0.0,0.0,0.0,0.0,0.0,0.0,0.0,0.0,0.0,0.0,0.0,0.0,0.0,0.0,0.0,0.0,0.0,0.0,0.0,0.0,0.0,0.0,0.0,2.5654,2.5524,2.4659,2.4239,2.434,2.4225,2.4265,0.0,0.0,0.0,0.0,0.0,0.0,0.0,0.0,0.0,0.0,0.0,0.0,0.0,0.0,0.0,0.0,0.0,0.0,0.0,0.0,0.0,0.0,0.0,0.0,0.0,0.0,0.0,0.0,0.0,0.0,0.0,0.0,0.0,0.0,0.0,0.0,0.0,0.0,0.0,0.0,0.0,0.0,0.0,0.0,0.0,0.0,0.0,0.0,0.0,0.0,0.0,0.0,0.0,0.0,0.0,0.0,0.0,0.0,0.0,0.0,0.0,0.0,0.0,0.0,0.0,0.0,0.0,0.0,0.0,0.0,0.0,0.0,0.0,0.0,0.0,0.0,0.0,0.0,0.0,0.0,0.0,0.0,0.0,0.0,0.0,0.0,0.0,0.0,0.0,0.0,0.0,0.0,0.0,0.0,0.0,0.0,0.0,0.0,0.0,0.0,0.0,0.0,0.0,0.0,0.0,0.0,0.0,2.5693,2.5574,2.5277,2.4438,2.3784,2.3369,2.2985,2.2834,2.2876,0.0,0.0,0.0,0.0,0.0,0.0,0.0,0.0,0.0,0.0,0.0,0.0,0.0,0.0,0.0,0.0,0.0,0.0,0.0,0.0,0.0,0.0,0.0,0.0,0.0,0.0,0.0,0.0,0.0,0.0,0.0,0.0,0.0,0.0,0.0,0.0,0.0,0.0,1.5687,1.523,0.0,0.0,0.0,0.0,0.0,0.0,0.0,0.0,1.5398,0.0,0.0,0.0,0.0,0.0,0.0,0.0,0.0,0.0,0.0,0.0,0.0,0.0,0.0,0.0,0.0,0.0,0.0,0.0,0.0,0.0,0.0,0.0,0.0,0.0,0.0,0.0,0.0,0.0,0.0,0.0,0.0,0.0,0.0,0.0,0.0,0.0,0.0,0.0,0.0,0.0,0.0,0.0,0.0,0.0,0.0,0.0,0.0,0.0,0.0,0.0,0.0,0.0,0.0,0.0,0.0,2.5583,2.5669,2.5294,2.4423,2.3498,2.2793,2.2267,2.1464,2.0901,2.0706,0.0,0.0,0.0,0.0,0.0,0.0,0.0,0.0,0.0,0.0,0.0,0.0,0.0,0.0,0.0,0.0,0.0,0.0,0.0,0.0,0.0,0.0,0.0,0.0,0.0,0.0,0.0,0.0,0.0,0.0,0.0,0.0,0.0,0.0,0.0,0.0,0.0,0.0,0.0,1.5624,1.5945,0.0,0.0,0.0,0.0,0.0,0.0,0.0,0.0,1.522,0.0,0.0,0.0,0.0,0.0,0.0,0.0,0.0,0.0,0.0,0.0,0.0,0.0,0.0,0.0,0.0,0.0,0.0,0.0,0.0,0.0,0.0,0.0,0.0,0.0,0.0,0.0,0.0,0.0,0.0,0.0,0.0,0.0,0.0,0.0,0.0,0.0,0.0,0.0,0.0,0.0,0.0,0.0,0.0,0.0,0.0,0.0,0.0,0.0,0.0,0.0,0.0,0.0,0.0,0.0,2.5508,2.5634,2.5157,2.4174,2.323,2.2301,2.1352,2.0763,2.0088,0.0,0.0,0.0,0.0,0.0,0.0,0.0,0.0,0.0,0.0,0.0,0.0,0.0,0.0,0.0,0.0,0.0,0.0,0.0,0.0,0.0,0.0,0.0,0.0,0.0,0.0,0.0,0.0,0.0,0.0,0.0,0.0,0.0,0.0,0.0,0.0,0.0,0.0,0.0,0.0,1.483,1.5813,1.6566,0.0,0.0,0.0,0.0,0.0,0.0,1.3789,1.3845,0.0,0.0,0.0,0.0,0.0,0.0,0.0,0.0,0.0,0.0,0.0,0.0,0.0,0.0,0.0,0.0,0.0,0.0,0.0,0.0,0.0,0.0,0.0,0.0,0.0,0.0,0.0,0.0,0.0,0.0,0.0,0.0,0.0,0.0,0.0,0.0,0.0,0.0,0.0,0.0,0.0,0.0,0.0,0.0,0.0,0.0,0.0,0.0,0.0,0.0,0.0,0.0,0.0,0.0,0.0,2.5507,2.5609,2.5017,2.385,2.3069,2.1944,2.0463,2.016,1.957,0.0,0.0,0.0,0.0,0.0,0.0,0.0,0.0,0.0,0.0,0.0,0.0,0.0,0.0,0.0,0.0,0.0,0.0,0.0,0.0,0.0,0.0,0.0,0.0,0.0,0.0,0.0,0.0,0.0,0.0,0.0,0.0,0.0,0.0,0.0,0.0,0.0,0.0,0.0,0.0,0.0,1.5496,1.6497,1.6817,0.0,0.0,0.0,0.0,1.2085,1.2198,0.0,0.0,0.0,0.0,0.0,0.0,0.0,0.0,0.0,0.0,0.0,0.0,0.0,0.0,0.0,0.0,0.0,0.0,0.0,0.0,0.0,0.0,0.0,0.0,0.0,0.0,0.0,0.0,0.0,0.0,0.0,0.0,0.0,0.0,0.0,0.0,0.0,0.0,0.0,0.0,0.0,0.0,0.0,0.0,0.0,0.0,0.0,0.0,0.0,0.0,0.0,0.0,0.0,0.0,0.0,0.0,2.5439,2.5574,2.4709,2.2956,2.2633,2.1536,1.9455,1.9234,1.8941,0.0,0.0,0.0,0.0,0.0,0.0,0.0,0.0,0.0,0.0,0.0,0.0,0.0,0.0,0.0,0.0,0.0,0.0,0.0,0.0,0.0,0.0,0.0,0.0,0.0,0.0,0.0,0.0,0.0,0.0,0.0,0.0,0.0,0.0,0.0,0.0,0.0,0.0,0.0,0.0,0.0,1.5291,1.7195,1.7044,1.6869,0.0,0.0,1.3498,1.189,1.1247,0.0,0.0,0.0,0.0,0.0,0.0,0.0,0.0,0.0,0.0,0.0,0.0,0.0,0.0,0.0,0.0,0.0,0.0,0.0,0.0,0.0,0.0,0.0,0.0,0.0,0.0,0.0,0.0,0.0,0.0,0.0,0.0,0.0,0.0,0.0,0.0,0.0,0.0,0.0,0.0,0.0,0.0,0.0,0.0,0.0,0.0,0.0,0.0,0.0,0.0,0.0,0.0,0.0,0.0,0.0,2.3823,2.5437,2.5541,2.4568,2.2671,2.2378,2.1254,1.9132,1.8824,1.8557,0.0,0.0,0.0,0.0,0.0,0.0,0.0,0.0,0.0,0.0,0.0,0.0,0.0,0.0,0.0,0.0,0.0,0.0,0.0,0.0,0.0,0.0,0.0,0.0,0.0,0.0,0.0,0.0,0.0,0.0,0.0,0.0,0.0,0.0,0.0,0.0,0.0,0.0,0.0,0.0,0.0,0.0,1.6853,1.6638,0.0,0.0,0.0,1.0954,0.8452,0.0,0.0,0.0,0.0,0.0,0.0,0.0,0.0,0.0,0.0,0.0,0.0,0.0,0.0,0.0,0.0,0.0,0.0,0.0,0.0,0.0,0.0,0.0,0.0,0.0,0.0,0.0,0.0,0.0,0.0,0.0,0.0,0.0,0.0,0.0,0.0,0.0,0.0,0.0,0.0,0.0,0.0,0.0,0.0,0.0,0.0,0.0,0.0,0.0,0.0,0.0,0.0,0.0,0.0,0.0,0.0,0.0,2.5059,2.5351,2.4487,2.2485,2.2218,2.0992,1.8729,1.8518,0.0,0.0,0.0,0.0,0.0,0.0,0.0,0.0,0.0,0.0,0.0,0.0,0.0,0.0,0.0,0.0,0.0,0.0,0.0,0.0,0.0,0.0,0.0,0.0,0.0,0.0,0.0,1.0641,0.0,0.0,0.0,0.0,0.0,0.0,0.0,0.0,0.0,0.0,0.0,0.0,0.0,0.0,1.2383,1.4979,1.5401,1.498,0.0,0.0,0.8675,0.4551,0.5215,0.5725,0.0,0.0,0.0,0.0,0.0,0.0,0.0,0.0,0.0,0.0,0.0,0.0,0.0,0.0,0.0,0.0,0.0,0.0,0.0,0.0,0.0,0.0,0.0,0.0,0.0,0.0,0.0,0.0,0.0,0.0,0.0,0.0,0.0,0.0,0.0,0.0,0.0,0.0,0.0,0.0,0.0,0.0,0.0,0.0,0.0,0.0,0.0,0.0,0.0,0.0,0.0,0.0,0.0,0.0,2.3337,2.4015,2.4935,2.4337,2.2234,2.2168,2.073,1.7735,1.8288,1.8144,0.0,0.0,0.0,0.0,0.0,0.0,0.0,0.0,0.0,0.0,0.0,0.0,0.0,0.0,0.0,0.0,0.0,0.0,0.0,0.0,0.0,0.0,0.0,0.0,0.0,0.0,0.0,0.0,0.0,0.0,0.0,0.0,0.0,0.0,0.0,0.0,0.0,0.0,0.0,0.0,0.0,0.8516,1.0807,1.3054,1.3315,0.0,0.9909,0.7801,0.0991,0.0112,0.0336,0.0771,0.0,0.0,0.0,0.0,0.0,0.0,0.0,0.0,0.0,0.0,0.0,0.0,0.0,0.0,0.0,0.0,0.0,0.0,0.0,0.0,0.0,0.0,0.0,0.0,0.0,0.0,0.0,0.0,0.0,0.0,0.0,0.0,0.0,0.0,0.0,0.0,0.0,0.0,0.0,0.0,0.0,0.0,0.0,0.0,0.0,0.0,0.0,0.0,0.0,0.0,0.0,0.0,0.0,2.3485,2.4678,2.4522,2.3619,2.2039,2.1445,1.9953,1.7426,1.7981,1.7716,0.0,0.0,0.0,0.0,0.0,0.0,0.0,0.0,0.0,0.0,0.0,0.0,0.0,0.0,0.0,0.0,0.0,0.0,0.0,0.0,0.0,0.0,0.0,0.0,0.0,0.0,0.0,0.0,0.7108,0.6523,0.5934,0.0,0.0,0.0,0.0,0.0,0.0,0.0,0.0,0.0,0.0,0.4083,0.6589,0.656,0.0,0.0,0.439,-0.007,0.0757,0.1955,0.229,0.0789,0.5442,0.0,0.0,0.0,0.0,0.0,0.0,0.0,0.0,0.0,0.0,0.0,0.0,0.0,0.0,0.0,0.0,0.0,0.0,0.0,0.0,0.0,0.0,0.0,0.0,0.0,0.0,0.0,0.0,0.0,0.0,0.0,0.0,0.0,0.0,0.0,0.0,0.0,0.0,0.0,0.0,0.0,0.0,0.0,0.0,0.0,0.0,0.0,0.0,0.0,0.0,0.0,0.0,2.369,2.4719,2.4104,2.3139,2.1856,2.0945,1.9312,1.7017,1.7651,1.7322,0.0,0.0,0.0,0.0,0.0,0.0,0.0,0.0,0.0,0.0,0.0,0.0,0.0,0.0,0.0,0.0,0.0,0.0,0.0,0.0,0.0,0.0,0.0,0.0,0.0,0.0,0.0,0.0,0.5042,0.4299,0.3692,0.0,0.0,0.0,0.0,0.0,0.0,0.0,0.0,0.0,0.0,-0.0056,0.2057,0.1693,0.2218,0.518,-0.1185,-0.5806,-0.419,-0.2517,-0.1932,-0.3584,0.0,0.0,0.0,0.0,0.0,0.0,0.0,0.0,0.0,0.0,0.0,0.0,0.0,0.0,0.0,0.0,0.0,0.0,0.0,0.0,0.0,0.0,0.0,0.0,0.0,0.0,0.0,1.558,0.0,0.0,1.5476,0.0,0.0,0.0,0.0,0.0,0.0,0.0,0.0,0.0,0.0,0.0,0.0,0.0,0.0,0.0,0.0,0.0,0.0,0.0,0.0,0.0,0.0,2.393,2.3665,2.367,2.3027,2.1729,2.0854,1.8957,1.6104,1.7265,1.702,1.5022,0.0,0.0,0.0,0.0,0.0,0.0,0.0,0.0,0.0,0.0,0.0,0.0,0.0,0.0,0.0,0.0,0.0,0.0,0.0,0.0,0.0,0.0,0.0,0.0,0.0,0.0,0.3931,0.2698,0.1751,0.0,0.0,0.0,0.0,0.0,0.0,0.0,0.0,0.0,-0.4736,-0.4467,-0.3742,-0.2735,-0.0562,-0.1135,-0.6557,-0.6218,-0.7808,-1.5056,-1.5589,-1.5074,0.0,0.0,0.0,0.0,0.0,0.0,0.0,0.0,0.0,0.0,0.0,0.0,0.0,0.0,0.0,0.0,0.0,0.0,0.0,0.0,0.0,0.0,0.0,0.0,0.0,0.0,0.0,1.3354,1.3819,0.0,0.0,0.0,0.0,0.0,0.0,0.0,0.0,0.0,0.0,0.0,0.8139,0.7916,0.0,0.0,0.0,0.0,0.0,0.0,0.0,0.0,0.0,0.0,0.0,0.0,2.4057,2.4448,2.3234,2.225,2.1561,2.0189,1.8289,1.5853,1.6744,1.6694,1.5501,0.0,0.0,0.0,0.0,0.0,0.0,0.0,0.0,0.0,0.0,0.0,0.0,0.0,0.0,0.0,0.0,0.0,0.0,0.0,0.0,0.0,0.0,0.0,0.0,0.0,0.1689,0.0,0.0,0.0,0.0,0.0,0.0,0.0,0.0,0.0,0.0,0.0,-0.5423,-0.6826,-0.7232,-0.7264,-0.6788,-0.7012,-0.6509,0.0,0.0,0.0,0.0,0.0,0.0,0.0,0.0,0.0,0.0,0.0,0.0,0.0,0.0,-2.29,-2.4181,-2.3424,-2.3076,-2.4514,0.0,0.0,0.0,0.0,0.0,0.0,0.0,0.0,0.0,0.0,0.0,0.0,0.0,0.0,1.1106,1.1315,1.1666,0.0,0.0,0.0,0.0,0.0,0.0,0.0,0.0,0.6976,0.6072,0.5075,0.4493,0.5095,0.0,0.6915,0.9925,0.0,0.0,0.0,0.0,0.0,0.0,0.0,0.0,2.2337,2.2781,2.1991,2.1369,2.0979,1.9362,1.7541,1.5634,1.552,1.5472,1.5391,1.5252,1.5511,0.0,0.0,0.0,0.0,0.0,0.0,0.0,0.0,0.0,0.0,0.0,0.0,0.0,0.0,0.0,0.0,0.0,0.0,0.0,0.0,0.0,0.0,0.0,-0.1341,0.0,0.0,0.0,0.0,0.0,0.0,0.0,0.0,0.0,-0.6018,-0.6523,-0.7346,-0.8152,-0.8752,-0.912,-0.9153,0.0,0.0,0.0,0.0,0.0,0.0,0.0,-1.4448,-1.3605,-1.0702,-1.043,-1.6277,-2.2398,-2.627,-2.5375,0.0,0.0,-2.6982,-2.6751,-2.6609,-2.6814,-2.5827,-2.4834,-2.4549,-2.3659,-2.2687,0.0,0.0,0.0,0.0,0.0,0.0,0.0,0.0,0.868,0.8581,0.0,0.8984,0.0,0.0,0.0,0.0,0.7869,0.7367,0.0,0.0,0.5067,0.4247,0.3559,0.3357,0.3105,0.2886,0.292,0.4917,0.8591,1.2133,0.0,0.0,0.0,0.0,0.0,0.0,1.9014,1.8974,2.0145,2.0553,2.0101,1.8422,1.6778,1.5308,1.3758,1.3538,1.4679,1.4338,1.4715,1.6077,1.6303,0.0,0.0,0.0,0.0,0.0,0.0,0.0,0.0,0.0,0.0,0.0,0.0,0.0,0.0,0.0,0.0,0.0,0.0,0.0,0.0,-0.3913,0.0,0.0,0.0,0.0,0.0,0.0,0.0,0.0,0.0,0.0,-0.7362,-0.8522,-0.9305,-0.8795,0.0,0.0,0.0,0.0,-1.145,-1.4092,-1.4999,-1.6268,-1.9148,-1.9634,-2.0002,-2.1152,0.0,0.0,-2.4114,-2.505,-2.5558,-2.5424,-2.58,-2.6406,-2.6716,-2.6134,-2.5845,-2.644,-2.5801,-2.5212,-2.5446,-2.5045,-2.4409,0.4541,0.0,0.0,0.0,0.0,0.5683,0.5781,0.624,0.6182,0.6467,0.6968,0.6697,0.0,0.0,0.0,0.0,0.0,0.0,0.4695,0.4113,0.3638,0.3072,0.2477,0.2205,0.2001,0.1828,0.2145,0.2848,0.394,0.5462,0.9614,1.6015,0.0,0.0,0.0,0.0,1.9289,1.9062,2.0633,2.1027,2.0119,1.8342,1.6465,1.4485,1.3542,1.3381,1.407,1.382,1.4158,1.5208,1.5128,0.0,0.0,0.0,0.0,0.0,0.0,0.0,0.0,0.0,0.0,0.0,0.0,0.0,0.0,0.0,0.0,0.0,0.0,0.0,-0.6075,-0.6407,-0.6629,0.0,0.0,0.0,0.0,0.0,0.0,0.0,0.0,0.0,-0.7845,-0.829,-0.8811,0.0,0.0,-0.9571,-1.0435,-1.0697,-1.1366,-1.2879,-1.3399,0.0,-1.6092,-1.6807,-1.7431,-1.8391,-2.0246,-2.1881,-2.2661,-2.3442,-2.3877,-2.3605,-2.3786,-2.4055,-2.4131,-2.5226,-2.6075,-2.6475,-2.6184,-2.5701,-2.5265,-2.489,-2.431,0.2987,0.477,0.4691,0.4435,0.4118,0.3719,0.3786,0.4073,0.4138,0.4415,0.472,0.4266,0.3899,0.3704,0.2952,0.0,0.0,0.0,0.2815,0.2486,0.2335,0.2123,0.1909,0.1717,0.1617,0.1621,0.1848,0.1996,0.2058,0.245,0.5179,1.004,0.0,0.0,1.3297,1.5979,1.7083,1.6743,1.9755,2.0807,1.9657,1.7708,1.5844,1.4094,1.3449,1.3321,1.3674,1.3762,1.4216,1.5163,1.5417,1.5601,0.0,0.0,0.0,0.0,0.0,0.0,0.0,0.0,0.0,0.0,0.0,0.6769,0.3426,0.0,0.0,0.0,-0.6991,-0.8658,-0.9293,-0.9478,0.0,0.0,0.0,0.0,0.0,0.0,0.0,-0.8214,-0.8654,-0.8802,-0.8154,-0.8105,-0.8306,-0.8858,-0.8931,-0.9186,-0.9927,0.0,-1.0593,-1.146,-1.2067,-1.2778,-1.3747,-1.4835,-1.6009,-1.7294,-1.9078,-2.0621,-2.1376,-2.2048,-2.245,-2.2468,-2.2509,-2.2573,-2.2678,-2.376,-2.4741,-2.5109,-2.509,-2.4798,-2.4304,-2.4055,-2.3709,0.1816,0.1811,0.1701,0.1657,0.1651,0.1829,0.1919,0.2026,0.2515,0.243,0.2047,0.1784,0.14,0.0826,0.0361,0.0,0.1762,0.1193,0.1065,0.1292,0.1233,0.1398,0.1734,0.1679,0.1734,0.196,0.1847,0.1932,0.217,0.2232,0.2652,0.3457,0.3971,0.6231,1.0037,1.2407,1.3398,1.3127,1.7923,1.992,1.8881,1.6814,1.5168,1.4047,1.3552,1.3428,1.3635,1.3972,1.4612,1.5614,1.6436,1.6777,1.6515,0.0,0.0,0.0,0.0,0.0,0.0,0.0,0.0,0.0,0.0,0.0,0.0,0.0,0.0,0.0,-1.0327,0.0,-1.1875,-1.2697,0.0,0.0,0.0,-1.0578,-0.9857,-0.9211,-0.8692,-0.8377,0.0,0.0,-0.8261,-0.8048,-0.7845,-0.7845,-0.8102,-0.841,-0.8811,-0.9095,-0.9439,-1.0294,-1.0981,-1.1625,-1.2439,-1.3888,-1.5558,-1.7234,-1.838,-1.9353,-2.0312,-2.0861,-2.1319,-2.187,-2.1797,-2.179,-2.2197,-2.2183,-2.2171,-2.2902,-2.3036,-2.3035,-2.306,-2.3055,-2.2936,0.0397,0.034,0.0393,0.0753,0.1217,0.0791,0.0917,0.1292,0.0984,0.111,0.1427,0.0371,-0.0496,-0.1117,-0.1224,-0.0912,-0.0243,-0.0353,0.0117,0.094,0.0739,0.0896,0.1458,0.168,0.179,0.1848,0.1918,0.1983,0.204,0.217,0.2511,0.3057,0.3617,0.4892,0.6803,0.9499,1.1942,1.4115,1.6752,1.8003,1.7764,1.7046,1.6087,1.4911,1.4489,1.4437,1.4776,1.4167,1.4301,1.5234,1.5102,1.5094,1.5368,1.5934,0.0,0.0,0.0,0.0,0.0,0.0,0.0,0.0,0.0,-0.1603,-0.5258,0.0,-0.9914,0.0,-1.2624,-1.3352,-1.3433,-1.3426,0.0,0.0,-1.1939,-1.1433,-1.116,-1.0179,-0.9384,-0.9046,-0.8571,-0.821,-0.8021,-0.7612,-0.73,-0.7303,-0.768,-0.8347,-0.9232,-0.9118,-0.9193,-0.9866,-1.007,-1.0561,-1.1916,-1.3705,-1.5219,-1.6273,-1.7272,-1.8362,-1.9628,-2.0061,-2.0389,-2.0983,-2.1271,-2.1366,-2.1375,-2.1519,-2.1652,-2.1765,-2.2049,-2.231,-2.2345,-2.2347,-2.2279,-0.084,-0.0952,-0.1118,-0.0799,-0.0177,0.0,0.0118,0.0177,0.0118,0.0059,-0.012,-0.122,-0.1843,-0.2151,-0.2246,-0.1808,-0.0902,-0.0875,-0.0404,0.0464,0.0284,0.0561,0.1122,0.1289,0.1624,0.1959,0.1903,0.1959,0.2072,0.2073,0.2353,0.2963,0.335,0.4237,0.5736,0.857,1.1342,1.4078,1.7134,1.8441,1.7985,1.7411,1.6738,1.5892,1.5526,1.5311,1.5232,1.4992,1.4994,1.5336,1.5267,1.5443,1.5866,1.6547,1.5479,0.0,0.0,0.0,0.0,0.0,0.0,0.0,0.0,0.0,0.0,0.0,-1.2187,-1.3616,-1.4192,-1.454,-1.4842,-1.4173,-1.3662,-1.3344,-1.2406,-1.1644,-1.1091,-1.014,-0.9309,-0.8699,-0.8336,-0.7951,-0.7594,-0.7303,-0.6985,-0.6672,-0.6908,-0.7441,-0.8202,-0.8365,-0.8539,-0.8928,-0.9049,-0.9684,-1.1325,-1.2574,-1.3844,-1.5039,-1.6236,-1.7399,-1.8507,-1.9108,-1.9657,-2.0309,-2.0473,-2.0552,-2.0788,-2.0918,-2.0967,-2.0942,-2.1094,-2.1395,-2.1694,-2.1762,-2.1726,-0.1566,-0.1623,-0.2123,-0.2069,-0.151,-0.0448,-0.0393,-0.1009,-0.056,-0.0967,-0.2048,-0.2583,-0.2736,-0.2609,-0.2718,-0.2041,-0.0932,-0.0908,-0.0561,0.0,0.0,0.0336,0.0897,0.0953,0.1456,0.2238,0.2015,0.2015,0.224,0.1964,0.2243,0.3076,0.3132,0.3958,0.5736,0.8213,1.085,1.3656,1.8241,2.0027,1.8914,1.7985,1.7307,1.6893,1.6611,1.6196,1.5571,1.6122,1.6202,1.5743,1.6244,1.6777,1.7153,1.8115,1.6596,0.0,1.1024,0.0,0.0,0.0,0.0,0.0,0.0,0.0,0.0,-1.2912,-1.3924,-1.4977,-1.5067,-1.5229,-1.5669,-1.4746,-1.3985,-1.3656,-1.2493,-1.1308,-1.0439,-0.9654,-0.886,-0.8136,-0.7901,-0.7625,-0.7195,-0.695,-0.6577,-0.6053,-0.6068,-0.6248,-0.6646,-0.7235,-0.7627,-0.7522,-0.8014,-0.8904,-1.0256,-1.0995,-1.196,-1.3619,-1.5077,-1.6262,-1.7148,-1.8124,-1.8968,-1.9634,-1.9632,-1.9673,-2.0384,-2.0323,-2.0247,-2.0254,-2.0257,-2.043,-2.0983,-2.1222,-2.1342,-0.0336,-0.0336,-0.0448,-0.0448,-0.0336,0.0,-0.0504,-0.1679,-0.2013,-0.2524,-0.3052,-0.256,-0.2397,-0.2452,-0.2039,-0.1525,-0.0906,-0.09,-0.0561,0.0,0.0,0.0336,0.0897,0.14,0.1958,0.2569,0.2575,0.2578,0.2578,0.2076,0.2243,0.3077,0.3132,0.3739,0.5054,0.0,0.0,0.0,1.907,2.1094,1.9876,1.8977,1.826,1.7774,1.7552,0.0,1.6715,1.698,1.6949,1.6676,1.7271,0.0,0.0,0.0,0.0,0.0,0.0,0.0,0.0,0.0,0.0,0.0,-1.2598,-1.2769,-1.3336,-1.4381,-1.4949,-1.4715,-1.4962,-1.4956,-1.4588,-1.3937,-1.3157,-1.2157,-1.1411,-1.0735,-0.9997,-0.9383,-0.8937,-0.8682,-0.7827,-0.7192,-0.7017,-0.6166,-0.5471,-0.5427,-0.5464,-0.5457,-0.5373,-0.6021,-0.6461,-0.6608,-0.7171,-0.7859,-0.8654,-0.9481,-1.04,-1.185,-1.3432,-1.4757,-1.5686,-1.7136,-1.8212,-1.8599,-1.8988,-1.9214,-1.9448,-1.9696,-1.9829,-1.9902,-1.9672,-1.969,-2.0343,-2.0702,-2.0895,-0.1455,-0.1063,-0.1175,-0.1007,0.0,-0.0896,-0.1231,-0.1566,-0.1286,-0.1397,-0.179,-0.179,-0.1847,-0.1847,-0.14,-0.1064,-0.0897,-0.0561,-0.028,0.0,0.0,0.0336,0.0897,0.1177,0.1847,0.2682,0.2406,0.241,0.2635,0.2076,0.2242,0.3132,0.3132,0.3793,0.5103,0.7121,1.0083,1.4076,1.9282,2.138,2.0254,1.9264,1.8606,1.8307,1.8391,0.0,0.0,0.0,0.0,0.0,0.0,0.0,0.0,0.0,0.0,0.8925,0.67,0.1722,-0.717,-1.0462,-1.2042,-1.2195,-1.2448,-1.2729,-1.3145,-1.4105,-1.456,-1.4223,-1.4282,-1.4095,-1.3561,-1.2816,-1.1944,-1.0922,-1.058,-1.0019,-0.904,-0.859,-0.8168,-0.7596,-0.7017,-0.6537,-0.6258,-0.56,-0.5033,-0.4753,-0.4576,-0.4409,-0.4439,-0.5373,-0.6076,-0.6033,-0.6281,-0.6723,-0.7238,-0.7797,-0.8722,-1.0057,-1.1426,-1.2713,-1.3871,-1.5151,-1.6195,-1.6751,-1.7434,-1.7876,-1.8122,-1.8475,-1.886,-1.9058,-1.8774,-1.8705,-1.9356,-1.9547,-1.9802,-0.2349,-0.1735,-0.1898,-0.162,-0.1007,-0.151,-0.1398,-0.0839,0.0,0.0,0.0,-0.0839,-0.1118,-0.1063,-0.0672,-0.0561,-0.0673,-0.0224,0.0056,0.0168,0.0168,0.056,0.1233,0.1233,0.1847,0.2847,0.2347,0.2296,0.2633,0.2231,0.2331,0.299,0.3138,0.3843,0.5432,0.9557,1.2512,1.4258,1.8758,2.0989,2.0649,1.946,1.8744,1.8614,1.9056,1.9254,1.9199,1.9898,2.0236,2.0241,2.0504,2.0919,2.1489,2.1332,1.7575,0.9776,0.6826,0.1644,-0.6843,-0.9724,-1.1007,-1.0771,-1.1216,-1.1751,-1.2429,-1.3101,-1.3416,-1.3215,-1.3092,-1.2833,-1.2395,-1.1528,-1.0647,-0.9806,-0.9596,-0.9013,-0.7791,-0.7579,-0.721,-0.6367,-0.6152,-0.5808,-0.5273,-0.491,-0.4598,-0.406,-0.3684,-0.3459,-0.3677,-0.4626,-0.5371,-0.532,-0.5259,-0.5402,-0.5916,-0.6218,-0.7007,-0.8353,-0.9445,-1.0617,-1.19,-1.3007,-1.3896,-1.4771,-1.5555,-1.6177,-1.6605,-1.7093,-1.7627,-1.8082,-1.7687,-1.7496,-1.8204,-1.81,-1.8369,-0.0112,0.0,0.0,0.0056,0.0168,0.028,0.0393,0.0504,-0.0448,-0.0894,-0.0951,-0.0392,-0.0224,-0.0336,0.0056,0.0168,0.0056,0.0,0.028,0.0785,0.0785,0.14,0.2572,0.2627,0.2961,0.3573,0.3297,0.3022,0.2737,0.2714,0.2832,0.298,0.3262,0.4035,0.553,1.1318,1.4395,1.4337,1.6875,1.9365,2.1688,2.0035,1.8982,1.8744,1.9374,1.9549,1.9242,2.0504,2.1177,2.1139,2.1954,2.2645,2.3021,1.995,1.5454,0.9765,0.4981,-0.0726,-0.7413,-0.8711,-0.9329,-0.971,-0.9566,-1.014,-1.1909,-1.1963,-1.17,-1.1268,-1.1014,-1.084,-1.0683,-1.0198,-0.9496,-0.8649,-0.8125,-0.7489,-0.6581,-0.6473,-0.6367,-0.615,-0.5714,-0.5215,-0.461,-0.4044,-0.3559,-0.3178,-0.3046,-0.2937,-0.32,-0.345,-0.3746,-0.3995,-0.3823,-0.3951,-0.4644,-0.4744,-0.5435,-0.6686,-0.7911,-0.8986,-1.008,-1.1393,-1.2387,-1.2982,-1.3815,-1.4628,-1.513,-1.5828,-1.6299,-1.667,-1.6445,-1.6438,-1.7053,-1.6759,-1.7071,-0.0168,0.0168,0.0112,0.0336,0.0673,0.0785,0.0673,0.0393,0.0112,0.0,0.0056,0.0336,0.0393,0.028,0.0505,0.0449,0.0224,0.0224,0.0504,0.1008,0.1063,0.1789,0.2901,0.296,0.3153,0.364,0.3307,0.2961,0.2591,0.2706,0.2786,0.2881,0.3587,0.4293,0.5235,0.9434,1.2542,1.4295,1.8598,2.102,2.1339,2.0899,2.0381,1.9752,2.0789,2.1336,2.1227,2.2249,2.2856,2.2926,2.3493,2.3962,2.4126,2.0181,1.5612,1.0652,0.5112,-0.0392,-0.5752,-0.7298,-0.8343,-0.8917,-0.89,-0.9016,-0.9699,-0.986,-0.9824,-0.9581,-0.9515,-0.9352,-0.91,-0.8849,-0.8333,-0.7489,-0.7173,-0.6635,-0.5878,-0.5714,-0.5607,-0.5281,-0.4897,-0.4486,-0.4254,-0.3643,-0.3256,-0.3127,-0.2928,-0.2726,-0.265,-0.2647,-0.2862,-0.3385,-0.3345,-0.3432,-0.3865,-0.3825,-0.4258,-0.5331,-0.5907,-0.679,-0.793,-0.9243,-0.9961,-1.0472,-1.1579,-1.2457,-1.2826,-1.3624,-1.4391,-1.5087,-1.5202,-1.5328,-1.5854,-1.6055,-1.665,-0.0336,0.0168,0.0112,0.0392,0.0897,0.0897,0.0617,0.028,0.0673,0.0897,0.0897,0.0897,0.0841,0.0729,0.0729,0.0617,0.056,0.056,0.0951,0.1509,0.1621,0.2283,0.3197,0.3161,0.3322,0.3561,0.3311,0.2967,0.2666,0.2846,0.2965,0.3085,0.3767,0.458,0.5644,0.8404,1.1449,1.4893,2.0422,2.2569,2.1006,2.1432,2.1352,2.0813,2.2019,2.2822,2.295,2.3649,2.4164,2.4386,2.4601,2.4338,2.3298,1.913,1.453,0.9676,0.4162,-0.0611,-0.4142,-0.6187,-0.7563,-0.8306,-0.8109,-0.7868,-0.7587,-0.7629,-0.795,-0.8274,-0.8364,-0.815,-0.785,-0.7744,-0.7379,-0.6588,-0.6372,-0.5934,-0.5226,-0.4954,-0.4789,-0.4353,-0.4078,-0.3904,-0.3674,-0.33,-0.2948,-0.2767,-0.2598,-0.2286,-0.1927,-0.184,-0.2104,-0.2503,-0.2814,-0.2947,-0.3037,-0.3126,-0.3519,-0.431,-0.4465,-0.5144,-0.6183,-0.695,-0.7472,-0.8166,-0.931,-1.0264,-1.0537,-1.1524,-1.2583,-1.3344,-1.3689,-1.4186,-1.5008,-1.5629,-1.6258,0.0729,0.0785,0.0785,0.0841,0.0897,0.0897,0.0841,0.0841,0.0897,0.0897,0.0897,0.0897,0.0897,0.0841,0.0785,0.1008,0.1399,0.1286,0.1788,0.2792,0.2794,0.3187,0.3842,0.3781,0.3718,0.3744,0.3616,0.335,0.3191,0.3488,0.3746,0.376,0.3615,0.4988,0.7922,1.0919,1.3756,1.6446,2.0502,2.2158,2.1324,2.1076,2.0955,2.0918,2.2303,2.3035,2.3084,2.3814,2.4391,2.4629,2.4746,2.3045,1.9227,1.4642,0.9818,0.4953,0.0096,-0.3351,-0.4723,-0.5771,-0.6779,-0.7738,-0.6789,-0.6209,-0.6324,-0.5878,-0.6251,-0.7278,-0.7393,-0.7176,-0.7187,-0.7074,-0.6696,-0.5996,-0.5609,-0.5117,-0.4463,-0.397,-0.3749,-0.3692,-0.3694,-0.3433,-0.2913,-0.2591,-0.2211,-0.1581,-0.159,-0.148,-0.1081,-0.1032,-0.0989,-0.1165,-0.17,-0.2146,-0.2012,-0.2502,-0.3075,-0.3776,-0.4041,-0.4463,-0.5055,-0.5345,-0.5511,-0.6724,-0.7447,-0.8346,-0.9257,-1.0176,-1.1062,-1.1704,-1.2336,-1.3085,-1.4021,-1.4779,-1.5616,0.1122,0.1122,0.1066,0.1009,0.1009,0.1009,0.1009,0.1009,0.1009,0.1009,0.1009,0.1066,0.1289,0.1511,0.1513,0.1734,0.2235,0.2178,0.2487,0.3103,0.3157,0.3475,0.3966,0.3883,0.3762,0.3641,0.3471,0.3288,0.3184,0.337,0.3582,0.3843,0.3483,0.4114,0.5847,0.9923,1.2736,1.4073,1.8721,2.0986,2.0842,2.1445,2.1858,2.2014,2.2943,2.3729,2.41,2.4548,2.4804,2.4882,2.5053,2.4414,2.2632,1.5536,1.0493,0.8029,0.0893,-0.3802,-0.4741,-0.5003,-0.5332,-0.5686,-0.5447,-0.5271,-0.5212,-0.5054,-0.5218,-0.566,-0.5723,-0.5614,-0.5336,-0.5279,-0.5119,-0.4732,-0.4512,-0.4239,-0.3917,-0.3695,-0.3585,-0.3585,-0.3416,-0.3066,-0.2403,-0.1828,-0.1336,-0.0937,-0.0958,-0.0902,-0.0737,-0.0775,-0.0681,-0.0552,-0.1138,-0.1478,-0.1343,-0.1654,-0.2276,-0.2808,-0.321,-0.3603,-0.4174,-0.453,-0.4842,-0.5504,-0.6214,-0.7018,-0.79,-0.8713,-0.9532,-1.0233,-1.1233,-1.2171,-1.2971,-1.3433,-1.4086,0.1291,0.1291,0.1178,0.1178,0.1178,0.1178,0.1178,0.1178,0.1178,0.1178,0.1178,0.1457,0.1903,0.229,0.2107,0.2326,0.2895,0.2905,0.3088,0.3386,0.3475,0.3689,0.3886,0.3849,0.3726,0.3591,0.3409,0.3263,0.3211,0.3386,0.3612,0.3792,0.3437,0.3695,0.5019,0.9317,1.2042,1.3391,1.7829,2.0246,2.044,2.135,2.2038,2.2354,2.3086,2.3854,2.4552,2.4681,2.487,2.5078,2.5265,2.482,2.3431,1.5869,1.0371,0.7488,0.0906,-0.3523,-0.4015,-0.3953,-0.3836,-0.3612,-0.4056,-0.4331,-0.4161,-0.4169,-0.4121,-0.407,-0.3903,-0.379,-0.4076,-0.4021,-0.3965,-0.3852,-0.3795,-0.3631,-0.3412,-0.3359,-0.3136,-0.2967,-0.2628,-0.2394,-0.1869,-0.1268,-0.0756,-0.0575,-0.0505,-0.0455,-0.0427,-0.043,-0.0386,-0.0048,-0.0464,-0.0773,-0.0809,-0.1208,-0.1566,-0.1834,-0.228,-0.255,-0.3223,-0.3539,-0.4041,-0.4408,-0.5157,-0.589,-0.6745,-0.7462,-0.8552,-0.9437,-1.0286,-1.1073,-1.165,-1.1896,-1.2358,0.1291,0.1291,0.1291,0.1347,0.1291,0.129,0.1347,0.1458,0.1346,0.1346,0.151,0.212,0.2731,0.3157,0.2472,0.2652,0.3586,0.3453,0.3561,0.4033,0.3905,0.3788,0.3777,0.3725,0.3679,0.3607,0.3636,0.3617,0.3653,0.3917,0.4005,0.3882,0.3435,0.4425,0.6717,0.9821,1.2781,1.4937,1.8416,2.0294,2.0308,2.039,2.0856,2.1546,2.2326,2.31,2.3803,2.3877,2.4301,2.5238,2.5313,2.3521,1.9328,1.4368,0.7827,0.0199,-0.2089,-0.263,-0.2511,-0.2678,-0.2623,-0.2178,-0.2737,-0.3128,-0.3069,-0.3013,-0.2902,-0.2792,-0.2285,-0.2451,-0.3516,-0.3629,-0.3741,-0.3741,-0.3516,-0.3182,-0.2906,-0.2461,-0.2014,-0.1622,-0.1509,-0.133,-0.0969,-0.0852,-0.0514,-0.0243,-0.0092,-0.0046,0.0193,0.026,0.0262,0.0295,0.0237,0.0141,-0.0407,-0.0851,-0.1165,-0.1388,-0.1432,-0.1387,-0.1697,-0.2143,-0.2728,-0.3353,-0.4178,-0.4913,-0.565,-0.6697,-0.8041,-0.8894,-0.9297,-0.9896,-1.0449,-1.0634,-1.1026,0.1572,0.1515,0.1572,0.185,0.2181,0.2125,0.2347,0.2738,0.2624,0.2592,0.2654,0.2969,0.341,0.3902,0.3461,0.3723,0.4439,0.4153,0.4041,0.4132,0.4034,0.395,0.3867,0.3824,0.379,0.3704,0.3926,0.41,0.4142,0.4184,0.4052,0.3743,0.3307,0.3572,0.5012,0.9007,1.1898,1.3236,1.7659,2.0315,2.036,2.0328,2.0472,2.0793,2.1532,2.2601,2.4003,2.4015,2.4447,2.5389,2.5456,2.478,2.2598,1.5706,0.8755,0.2646,-0.0943,-0.263,-0.24,-0.2122,-0.1956,-0.1959,-0.1847,-0.1903,-0.19,-0.19,-0.1788,-0.1564,-0.134,-0.1506,-0.1785,-0.2009,-0.2009,-0.2009,-0.1898,-0.1842,-0.162,-0.1455,-0.1288,-0.1062,-0.0727,-0.039,-0.0275,0.0054,0.0316,0.0307,0.0333,0.0375,0.0345,0.032,0.0324,0.0346,0.0429,0.0423,-0.009,-0.0448,-0.0761,-0.0851,-0.094,-0.1119,-0.143,-0.1473,-0.1966,-0.2509,-0.3249,-0.4166,-0.4952,-0.6118,-0.7432,-0.8049,-0.8456,-0.8804,-0.9301,-0.9423,-0.9797,0.213,0.2184,0.224,0.2557,0.2968,0.291,0.3109,0.351,0.3449,0.34,0.339,0.3691,0.405,0.4293,0.4277,0.4512,0.4867,0.4571,0.4367,0.4202,0.4179,0.4088,0.4043,0.4012,0.3968,0.388,0.4186,0.4366,0.4322,0.4318,0.414,0.3746,0.3357,0.3528,0.4782,0.8966,1.1695,1.3461,1.7802,2.0374,2.0388,2.0357,2.036,2.0463,2.0899,2.1835,2.3338,2.3617,2.418,2.5033,2.545,2.4948,2.2802,1.5844,0.9442,0.4786,0.0202,-0.2295,-0.2069,-0.1679,-0.14,-0.1456,-0.1289,-0.1177,-0.1176,-0.1064,-0.0895,-0.0727,-0.0447,-0.0335,-0.0336,-0.0335,-0.0447,-0.0782,-0.0894,-0.0838,-0.0727,-0.0784,-0.0672,-0.0448,-0.0056,0.0168,0.028,0.0549,0.0594,0.0481,0.0502,0.0448,0.0513,0.0472,0.0482,0.0553,0.0746,0.0722,0.046,0.0224,0.0089,0.0,-0.0131,-0.0484,-0.0806,-0.0894,-0.1163,-0.1703,-0.2461,-0.3382,-0.4428,-0.5599,-0.6407,-0.7071,-0.7408,-0.775,-0.8009,-0.8174,-0.8569,0.2906,0.3234,0.3287,0.3447,0.3733,0.3724,0.3587,0.3647,0.3776,0.383,0.3804,0.4299,0.4532,0.4494,0.4762,0.4914,0.4905,0.4722,0.4575,0.4457,0.4405,0.4351,0.4345,0.4355,0.432,0.4194,0.4414,0.4372,0.4282,0.4447,0.4358,0.3926,0.3852,0.4831,0.6961,1.0204,1.3143,1.5546,1.8764,2.0422,2.0417,2.0408,2.0402,2.0412,2.047,2.0904,2.1762,2.2604,2.3533,2.4422,2.5248,2.3469,1.9852,1.4856,0.9841,0.5758,0.0996,-0.1209,-0.1346,-0.1122,-0.0841,-0.0673,-0.0953,-0.1066,-0.0785,-0.0561,-0.0393,-0.028,0.028,0.0785,0.0729,0.0729,0.0336,-0.0615,-0.0671,-0.0559,-0.0392,-0.0336,-0.0168,0.0224,0.0505,0.0673,0.0673,0.0558,0.0441,0.0379,0.0325,0.0486,0.0795,0.0839,0.0984,0.115,0.1138,0.1043,0.1035,0.0985,0.0938,0.0888,0.0777,0.0555,0.0133,-0.0045,-0.0359,-0.0898,-0.2015,-0.294,-0.3818,-0.4904,-0.5564,-0.6155,-0.6419,-0.68,-0.7133,-0.7377,-0.7328,0.3457,0.3566,0.3894,0.4304,0.4655,0.4591,0.4751,0.5244,0.5242,0.5171,0.5108,0.533,0.5353,0.5317,0.5412,0.5437,0.5427,0.5361,0.5053,0.4681,0.486,0.4886,0.479,0.479,0.4879,0.5014,0.4973,0.4973,0.5021,0.5029,0.4633,0.4193,0.555,0.6511,0.7342,1.1837,1.5079,1.5984,1.8877,2.0486,2.0469,2.0467,2.0458,2.0468,2.0464,2.0618,2.0908,2.2246,2.342,2.4343,2.5224,2.4984,2.2916,1.899,1.4418,1.0014,0.5601,0.1585,-0.0773,-0.0953,-0.0617,-0.0393,-0.0449,-0.0393,-0.0168,-0.0056,0.0056,0.0112,0.0505,0.0729,0.0785,0.0841,0.0673,0.0392,0.0336,0.028,0.0393,0.0505,0.0561,0.0673,0.0729,0.0729,0.0673,0.0561,0.0558,0.0774,0.0668,0.0719,0.1023,0.1074,0.0898,0.1039,0.1181,0.1365,0.1183,0.1293,0.1438,0.1336,0.1261,0.1231,0.0924,0.0629,0.0315,-0.0314,-0.1431,-0.2409,-0.329,-0.4037,-0.4739,-0.5313,-0.5741,-0.6121,-0.6501,-0.6573,-0.6428,0.439,0.4664,0.4992,0.5284,0.5585,0.5517,0.566,0.5953,0.6074,0.5989,0.5821,0.594,0.5958,0.5834,0.5809,0.5809,0.5812,0.5893,0.5631,0.519,0.528,0.5369,0.5224,0.5099,0.5101,0.5315,0.5272,0.5361,0.5534,0.5428,0.4948,0.4704,0.567,0.7319,0.8789,1.2313,1.5029,1.7406,1.9503,2.0507,2.0508,2.0508,2.0509,2.0504,2.0505,2.0502,2.0603,2.1856,2.2994,2.3947,2.5025,2.5666,2.5326,2.1128,1.6573,1.2074,0.7682,0.3373,-0.0381,-0.0897,-0.0561,-0.0168,-0.0168,-0.0112,0.0112,0.0224,0.0336,0.0505,0.0673,0.0785,0.0785,0.0841,0.0897,0.0897,0.0841,0.0897,0.0953,0.1121,0.1232,0.1232,0.1344,0.1343,0.1232,0.112,0.1065,0.1289,0.1232,0.1228,0.148,0.1492,0.1498,0.1459,0.1612,0.1605,0.1315,0.1518,0.1878,0.1794,0.1632,0.1606,0.1495,0.116,0.0853,0.0179,-0.0805,-0.1653,-0.2535,-0.3204,-0.3865,-0.4395,-0.4968,-0.5183,-0.5473,-0.5439,-0.5388,0.5594,0.6394,0.6448,0.6396,0.6369,0.6444,0.6209,0.596,0.6272,0.6234,0.6073,0.6269,0.63,0.6107,0.6145,0.6147,0.6105,0.6319,0.6395,0.6142,0.609,0.5981,0.5865,0.5604,0.5564,0.5564,0.5739,0.5825,0.599,0.5895,0.5555,0.5596,0.5728,0.7166,1.1615,1.2355,1.5557,1.9562,2.0421,2.0511,2.0511,2.0505,2.0508,2.0508,2.0505,2.0568,2.0838,2.1809,2.2559,2.324,2.4697,2.5497,2.4831,2.1307,1.7382,1.2953,0.8314,0.4557,0.0882,0.0222,0.0112,0.0224,-0.0056,-0.0224,0.0168,0.0393,0.0561,0.0729,0.0953,0.1065,0.1065,0.1122,0.1122,0.1065,0.112,0.1009,0.1066,0.1512,0.1735,0.1845,0.2179,0.2347,0.2015,0.1903,0.1847,0.1791,0.1734,0.1785,0.2144,0.2286,0.2473,0.2707,0.307,0.3049,0.3132,0.1667,0.1941,0.1797,0.1788,0.1897,0.1929,0.1652,0.1211,0.0493,-0.0134,-0.0983,-0.1739,-0.2406,-0.303,-0.3603,-0.4003,-0.4186,-0.4395,-0.4585,-0.471,0.6643,0.6595,0.7009,0.7028,0.6736,0.67,0.6711,0.6669,0.679,0.6813,0.6741,0.6774,0.6852,0.6738,0.6748,0.6781,0.6904,0.6983,0.7128,0.7311,0.753,0.731,0.6959,0.6784,0.6881,0.7179,0.7325,0.7266,0.7074,0.7216,0.7596,0.8483,0.981,1.2072,1.5168,1.6895,1.8763,2.0274,2.0545,2.0521,2.0499,2.0526,2.0507,2.0508,2.0529,2.0841,2.1522,2.2949,2.3453,2.3174,2.4111,2.4736,2.4716,2.3899,2.1269,1.7025,1.5528,1.1843,0.5909,0.4135,0.3234,0.0841,0.0335,0.0112,0.0336,0.0617,0.0841,0.1063,0.1455,0.1903,0.2013,0.2131,0.2184,0.2172,0.1787,0.1567,0.1904,0.2072,0.2128,0.2127,0.2181,0.2181,0.2126,0.2015,0.1958,0.2071,0.2009,0.2204,0.2886,0.4115,0.4756,0.5184,0.5457,0.5313,0.4687,0.2886,0.1923,0.1774,0.184,0.2142,0.2161,0.2109,0.1516,0.0808,0.0269,-0.0491,-0.1072,-0.174,-0.2274,-0.2943,-0.3431,-0.3785,-0.4047,-0.425,-0.4341,0.7518,0.7592,0.7959,0.7909,0.7613,0.7685,0.7662,0.7606,0.7657,0.7701,0.7708,0.7748,0.7752,0.7792,0.7884,0.7968,0.8015,0.8143,0.8338,0.8502,0.882,0.8576,0.8088,0.8016,0.8308,0.8731,0.8962,0.9093,0.922,0.935,0.9903,1.0577,1.2226,1.4217,1.6386,1.8204,1.9802,2.0521,2.1012,2.1089,2.0445,2.0749,2.0963,2.0994,2.1012,2.1298,2.1938,2.3096,2.3693,2.3799,2.4434,2.4795,2.4511,2.5229,2.3476,1.9093,1.8901,1.5805,1.0191,0.7459,0.5555,0.3483,0.191,0.0781,0.0896,0.112,0.1287,0.1734,0.2071,0.2238,0.2349,0.2466,0.2632,0.2735,0.24,0.2293,0.2574,0.2683,0.2683,0.2627,0.2627,0.2627,0.246,0.2291,0.2345,0.234,0.2302,0.3106,0.4166,0.5795,0.7356,0.8004,0.7396,0.6799,0.5822,0.4104,0.32,0.2836,0.2588,0.2773,0.2624,0.2619,0.1929,0.1254,0.0671,0.0134,-0.0492,-0.1117,-0.1876,-0.2499,-0.2987,-0.3386,-0.3649,-0.369,-0.3781,0.8448,0.8915,0.9065,0.8926,0.8714,0.8933,0.8787,0.8569,0.8682,0.8743,0.8747,0.8877,0.8887,0.8939,0.9081,0.9266,0.9304,0.946,0.9674,0.9877,1.0014,0.9906,0.9472,0.9349,0.975,1.0268,1.0489,1.0916,1.1292,1.1772,1.2249,1.2772,1.3046,1.4539,1.7213,1.8104,1.9031,2.0729,2.1586,2.1393,2.071,2.0995,2.1319,2.1449,2.1995,2.1949,2.2241,2.2931,2.3643,2.4182,2.5097,2.5,2.4579,2.5231,2.3868,2.0892,2.0136,1.829,1.3899,1.0559,0.7709,0.6759,0.353,0.1384,0.183,0.1734,0.1958,0.2407,0.2407,0.2631,0.2687,0.2519,0.2799,0.3189,0.3131,0.2903,0.296,0.3294,0.3462,0.3072,0.3461,0.3407,0.323,0.3245,0.3463,0.4486,0.4606,0.6062,0.7361,0.8947,1.038,1.1436,1.0057,0.8011,0.675,0.5287,0.474,0.4293,0.3931,0.3805,0.3451,0.3147,0.2407,0.1743,0.1207,0.0671,0.0089,-0.0626,-0.1386,-0.1923,-0.232,-0.2812,-0.3171,-0.3077,-0.312,0.9805,0.9722,0.9771,0.9533,0.922,0.9424,0.9447,0.9341,0.9564,0.9697,0.9648,0.9785,0.9844,0.9839,1.006,1.0133,1.028,1.0384,1.0619,1.1305,1.1552,1.1682,1.1456,1.1072,1.1446,1.2181,1.2362,1.2604,1.2999,1.3506,1.4268,1.5777,1.5986,1.7376,1.9697,2.0049,2.067,2.1395,2.1482,2.1299,2.1017,2.1118,2.1378,2.157,2.2744,2.3087,2.3027,2.4135,2.4394,2.3835,2.4166,2.471,2.4619,2.5221,2.4932,2.4212,2.3782,2.2288,1.8872,1.6645,1.4069,0.9085,0.7281,0.5105,0.2275,0.2599,0.2665,0.2906,0.324,0.3623,0.4144,0.3659,0.3914,0.4283,0.4284,0.3895,0.3742,0.3786,0.3913,0.376,0.3951,0.3674,0.3842,0.5937,0.6423,0.6656,0.7804,0.9465,1.0806,1.2047,1.3316,1.4459,1.3185,1.1373,1.0513,0.8877,0.7428,0.6801,0.6236,0.59,0.5512,0.4336,0.3838,0.2888,0.1746,0.1248,0.092,0.0045,-0.0671,-0.1162,-0.1699,-0.2235,-0.2592,-0.2502,-0.2636,1.0529,1.0417,1.0561,1.0454,1.0305,1.0525,1.062,1.0672,1.0772,1.0811,1.0854,1.0954,1.0997,1.0997,1.1219,1.1411,1.1496,1.1686,1.2009,1.2479,1.2705,1.3024,1.3417,1.3159,1.3356,1.3918,1.429,1.4648,1.5128,1.564,1.657,1.7851,1.8324,1.9241,2.0893,2.1457,2.1538,2.1547,2.1641,2.155,2.1323,2.1423,2.1875,2.2355,2.3536,2.3969,2.3439,2.4485,2.4471,2.3973,2.4257,2.4639,2.4578,2.5194,2.5644,2.5697,2.5657,2.4959,2.2819,2.0579,1.783,1.3876,1.1864,0.8799,0.6399,0.5485,0.4597,0.3825,0.3765,0.4398,0.6344,0.6495,0.6387,0.6853,0.7931,0.7419,0.5102,0.5364,0.636,0.6639,0.7942,0.8292,0.888,0.918,0.9251,0.9422,0.9493,1.111,1.3221,1.452,1.6119,1.6822,1.5996,1.5041,1.445,1.2886,1.0582,0.9857,0.93,0.913,0.8954,0.732,0.56,0.4403,0.3185,0.2334,0.1862,0.0954,-0.0045,-0.076,-0.1341,-0.1787,-0.2189,-0.2366,-0.2591,1.1175,1.1226,1.1427,1.1523,1.1519,1.1751,1.1868,1.1945,1.2022,1.1975,1.2067,1.2107,1.2036,1.2164,1.2464,1.2691,1.287,1.3148,1.3402,1.3479,1.3558,1.3947,1.4444,1.4778,1.4983,1.4925,1.5683,1.6503,1.7206,1.8021,1.8079,1.8828,1.9756,2.033,2.0855,2.164,2.203,2.1748,2.1949,2.1969,2.1689,2.183,2.243,2.3362,2.3967,2.4082,2.3723,2.4255,2.4545,2.3927,2.4663,2.4794,2.4788,2.5151,2.5652,2.5644,2.5653,2.539,2.4707,2.2636,2.0555,1.9914,1.6865,1.3323,1.0647,0.9417,0.8066,0.6128,0.5353,0.6312,0.9207,0.9637,0.9695,1.019,1.2647,1.1153,0.7794,0.8677,1.0424,0.9129,1.0291,1.1352,1.1889,1.2277,1.2241,1.2229,1.2348,1.3003,1.5163,1.6769,1.8186,1.8908,1.8102,1.7752,1.7238,1.5407,1.3304,1.3405,1.2747,1.2201,1.2413,1.2442,1.0679,0.6443,0.4847,0.4181,0.2989,0.167,0.07,-0.0266,-0.0894,-0.1296,-0.1786,-0.2275,-0.2412,1.2475,1.2583,1.2622,1.2471,1.2264,1.2578,1.2569,1.2412,1.2618,1.2735,1.2774,1.2808,1.289,1.3025,1.3165,1.3452,1.3774,1.4066,1.4269,1.4337,1.4392,1.4715,1.5134,1.5903,1.6268,1.65,1.6934,1.7497,1.8021,1.8539,1.8876,1.9288,1.9782,2.03,2.0942,2.1527,2.1975,2.1975,2.1986,2.1803,2.1967,2.2201,2.2733,2.3621,2.3971,2.3729,2.3416,2.3898,2.4129,2.3507,2.4275,2.4607,2.4663,2.5069,2.5328,2.5442,2.5508,2.5521,2.5204,2.493,2.2824,2.0847,1.93,1.7269,1.4653,1.3371,1.172,0.9542,0.8488,0.9394,1.2303,1.2749,1.2697,1.2974,1.3539,1.3506,1.2743,1.4175,1.4587,1.158,1.2679,1.4296,1.5034,1.5523,1.5518,1.5819,1.6233,1.6643,1.802,1.8989,1.9699,2.0107,2.0113,1.9977,1.9829,1.7571,1.5742,1.6885,1.6489,1.5141,1.5782,1.7774,1.618,1.177,0.8272,0.6779,0.5174,0.3358,0.2562,0.2524,0.1038,-0.0394,-0.052,-0.0509,-0.1647,1.2832,1.2925,1.3012,1.2944,1.288,1.3142,1.3243,1.3137,1.3291,1.3349,1.3397,1.3483,1.3615,1.3752,1.3947,1.4222,1.4536,1.4726,1.4886,1.5028,1.5135,1.5466,1.5856,1.678,1.7225,1.7619,1.8027,1.8323,1.8644,1.8884,1.9184,1.9566,1.9869,2.0323,2.0778,2.1214,2.1598,2.1871,2.166,2.1726,2.2207,2.2565,2.3084,2.3329,2.3516,2.3377,2.3336,2.35,2.3738,2.3538,2.3824,2.4025,2.4169,2.437,2.4729,2.5036,2.5185,2.5165,2.5067,2.4997,2.3951,2.2585,2.2072,2.035,1.7785,1.6279,1.4956,1.2513,1.143,1.243,1.5648,1.5929,1.6044,1.6404,1.7335,1.6699,1.5765,1.8683,1.7247,1.4676,1.7107,1.8627,1.8603,1.889,1.8855,1.9295,1.9822,2.0175,2.0497,2.0537,2.0526,2.0533,2.0492,2.0485,2.0471,1.9195,1.7676,1.8846,1.9335,1.8013,1.7905,1.9313,1.9198,1.6831,1.3749,1.0567,0.8853,0.7531,0.6462,0.5504,0.5317,0.4585,0.2491,0.1142,0.0473,1.3123,1.3123,1.3281,1.3362,1.3404,1.3563,1.3716,1.3821,1.3821,1.3826,1.3868,1.4015,1.4145,1.4321,1.4656,1.4937,1.5187,1.5283,1.5537,1.5798,1.5878,1.6255,1.6907,1.7478,1.7914,1.8252,1.8745,1.9108,1.9033,1.9169,1.9413,1.9682,2.0096,2.0346,2.061,2.0982,2.1238,2.1327,2.1291,2.1644,2.2356,2.2773,2.2968,2.2974,2.2998,2.3054,2.3127,2.3232,2.3351,2.3321,2.341,2.3459,2.345,2.3509,2.387,2.4397,2.4617,2.4558,2.4454,2.4389,2.418,2.3528,2.3858,2.2195,2.0312,1.8653,1.7372,1.5273,1.4165,1.5298,1.817,1.9044,1.9095,1.9527,2.1079,2.2028,1.9097,1.937,2.1008,2.059,2.2393,2.1878,2.0714,1.9886,1.9345,1.9373,1.9864,2.0007,2.0302,2.0416,2.0447,2.0495,2.0503,2.0499,2.0493,2.0476,1.9478,1.9687,2.0046,1.9395,1.9504,2.0098,1.9544,1.9011,1.8103,1.5124,1.3427,1.1226,0.9355,0.8683,0.9916,0.919,0.6441,0.496,0.4331,1.3779,1.3884,1.3868,1.3921,1.3915,1.3968,1.3962,1.3968,1.4015,1.3968,1.4062,1.4233,1.443,1.4708,1.5238,1.5501,1.5635,1.5824,1.6145,1.6495,1.6593,1.6925,1.7572,1.7994,1.8337,1.8662,1.9064,1.9265,1.9265,1.9339,1.9516,1.9812,1.999,2.0243,2.0636,2.0827,2.1055,2.1331,2.137,2.1611,2.2031,2.2307,2.2445,2.2526,2.2553,2.2598,2.2686,2.2756,2.2858,2.2934,2.3074,2.3122,2.3146,2.3155,2.3141,2.3368,2.3661,2.4011,2.3907,2.384,2.3755,2.3626,2.3704,2.345,2.192,2.0144,1.9382,2.1583,1.8943,1.8117,2.0066,2.1005,2.1295,2.1296,2.1758,2.2704,2.1619,2.0044,2.1615,2.1821,2.2145,2.1849,2.1085,2.0307,1.9638,1.974,1.9844,1.997,2.0124,2.0269,2.0387,2.0448,2.0516,2.0516,2.0521,2.0494,2.0471,2.0428,2.0412,2.0388,2.0347,2.0313,2.0296,1.978,1.9285,1.8537,1.6177,1.3885,1.1858,1.1839,1.3055,1.1906,0.9816,0.8854,0.8206,1.4736,1.4025,1.4046,1.4098,1.414,1.4285,1.4389,1.443,1.4564,1.4605,1.4662,1.4748,1.4926,1.5261,1.5742,1.5913,1.5957,1.6162,1.6558,1.7005,1.7173,1.7544,1.8273,1.8606,1.8805,1.9026,1.925,1.9391,1.9457,1.9552,1.9697,1.9884,2.0018,2.02,2.0603,2.0728,2.0958,2.1166,2.1339,2.1487,2.1639,2.1781,2.189,2.1957,2.1957,2.2052,2.2138,2.2195,2.229,2.2364,2.2448,2.2475,2.2475,2.2475,2.2449,2.245,2.2633,2.2858,2.2938,2.2991,2.2894,2.2618,2.2586,2.232,2.2004,2.1248,2.0437,2.168,2.0773,2.0536,2.1053,2.1494,2.1579,2.1718,2.1886,2.222,2.2565,2.2369,2.2022,2.1943,2.1791,2.1466,2.1084,2.033,1.966,1.9579,1.9675,1.982,2.0007,2.021,2.0322,2.0415,2.0486,2.0533,2.0529,2.0528,2.0507,2.0465,2.0413,2.0408,2.0389,2.0368,2.0349,2.0332,1.996,1.9072,1.7998,1.7323,1.6022,1.5981,1.6176,1.4762,1.3392,1.2784,1.2292,1.5565,1.4475,1.46,1.4576,1.446,1.4691,1.4794,1.4851,1.5125,1.5303,1.5377,1.5441,1.5662,1.5912,1.6142,1.6231,1.6244,1.6423,1.6775,1.719,1.7651,1.8179,1.8662,1.8972,1.9205,1.9465,1.9413,1.9531,1.964,1.9748,1.9848,1.9998,2.0025,2.02,2.0407,2.0595,2.0819,2.1023,2.1214,2.1325,2.1381,2.1433,2.1471,2.1462,2.1471,2.154,2.167,2.1721,2.1764,2.1882,2.1895,2.1924,2.1924,2.1944,2.1915,2.1915,2.1972,2.1963,2.2068,2.2105,2.1886,2.1667,2.1448,2.1657,2.1668,2.1503,2.1371,2.1366,2.1187,2.1118,2.1316,2.1347,2.1485,2.1576,2.1743,2.1903,2.2104,2.2198,2.2124,2.1935,2.1662,2.1194,2.0751,2.0144,1.9711,1.9476,1.9523,1.9665,1.9869,2.0089,2.0241,2.0342,2.045,2.0513,2.0517,2.0514,2.0507,2.0501,2.0451,2.0432,2.043,2.0405,2.0379,2.0357,2.0337,1.9989,1.9153,1.9801,2.0308,1.9144,1.8197,1.8067,1.73,1.6543,1.6123,1.6105,1.5761,1.5778,1.5509,1.5034,1.5068,1.5062,1.5211,1.5654,1.5963,1.6168,1.6313,1.6566,1.6726,1.6535,1.6454,1.6448,1.7036,1.7454,1.7818,1.822,1.8806,1.9144,1.9359,1.9472,1.9574,1.9567,1.9632,1.9777,1.9863,1.9927,1.9998,2.0068,2.0208,2.0346,2.0543,2.0662,2.0827,2.103,2.1095,2.1135,2.1214,2.1277,2.1285,2.1309,2.1332,2.1417,2.1409,2.1501,2.1593,2.1584,2.1615,2.1645,2.1675,2.1653,2.1623,2.1623,2.1584,2.1562,2.1653,2.167,2.1612,2.1474,2.1381,2.1534,2.1367,2.117,2.1079,2.1198,2.1079,2.1055,2.1023,2.1409,2.1501,2.1713,2.2036,2.2234,2.24,2.2297,2.1982,2.1694,2.1416,2.1025,2.055,1.9831,1.9553,1.9252,1.9374,1.9688,1.9906,2.0105,2.0257,2.04,2.0468,2.0482,2.0484,2.0508,2.051,2.0485,2.0481,2.0493,2.045,2.0415,2.0392,2.0385,2.0366,2.037,2.039,2.0394,2.0385,2.0044,1.9457,1.9353,1.8799,1.8866,1.7558,1.7296,1.7339,1.6703,1.5719,1.5496,1.5633,1.6053,1.6435,1.6822,1.7147,1.7054,1.702,1.7077,1.7047,1.7098,1.7497,1.8107,1.8659,1.9265,1.9775,1.991,1.998,1.9914,1.9961,1.9744,1.9683,1.9712,1.9812,1.9891,1.999,2.0025,2.0177,2.0243,2.0415,2.0517,2.061,2.0662,2.0802,2.0901,2.0876,2.0933,2.0998,2.0998,2.099,2.1079,2.1183,2.1214,2.1348,2.1472,2.1417,2.1456,2.1548,2.1609,2.1639,2.1639,2.1609,2.1579,2.1456,2.1394,2.1277,2.1175,2.1207,2.131,2.1526,2.1478,2.1533,2.145,2.1355,2.1269,2.1425,2.1479,2.1593,2.157,2.1751,2.211,2.2307,2.249,2.2546,2.2271,2.2167,2.2031,2.1589,2.1144,2.0359,1.9642,1.9318,1.915,1.9469,1.976,1.9954,2.0131,2.027,2.0356,2.0371,2.0432,2.0494,2.0496,2.0496,2.0487,2.0484,2.0505,2.0469,2.0444,2.0424,2.041,2.0409,2.0416,2.041,2.0392,2.041,2.0282,2.0391,2.0535,2.0527,1.8418,1.8217,1.8193,1.7528,1.6498,1.63,1.6434,1.6904,1.7335,1.7827,1.8283,1.7921,1.7759,1.7735,1.7752,1.7948,1.8491,1.9125,1.9828,2.0309,2.0641,2.0814,2.0789,2.0749,2.0655,2.016,2.0076,2.0142,1.9891,1.9869,1.9975,2.0177,2.0427,2.0551,2.0388,2.0525,2.061,2.0628,2.0687,2.0769,2.0744,2.0802,2.0835,2.0835,2.0835,2.0885,2.099,2.103,2.1087,2.1246,2.1309,2.1388,2.1503,2.1648,2.1738,2.1768,2.1806,2.1776,2.1678,2.1324,2.1055,2.1087,2.1175,2.1302,2.1472,2.1625,2.165,2.1579,2.1593,2.1721,2.1789,2.1751,2.1819,2.1827,2.2052,2.2343,2.239,2.249,2.258,2.2556,2.2522,2.2453,2.1893,2.1354,2.0524,1.9782,1.9336,1.9214,1.9405,1.9657,1.9839,1.9992,2.012,2.0192,2.025,2.0286,2.0327,2.0404,2.0411,2.0439,2.0441,2.0464,2.0495,2.0488,2.0467,2.0458,2.0439,2.043,2.0415,2.0388,2.0419,2.0472,2.0483,2.0516,2.0516,1.8483,1.8217,1.8223,1.7917,1.7454,1.7515,1.752,1.7672,1.8191,1.8827,1.93,1.8977,1.8838,1.8833,1.88,1.8972,1.9427,2.0206,2.0759,2.0933,2.1578,2.1489,2.1424,2.1434,2.1383,2.0918,2.0827,2.063,2.0167,2.0368,2.034,2.0525,2.0973,2.1013,2.0404,2.0426,2.0587,2.0761,2.0753,2.0761,2.0761,2.0753,2.0761,2.081,2.081,2.0827,2.0835,2.086,2.0925,2.103,2.1214,2.1317,2.1394,2.1631,2.1759,2.1797,2.1776,2.1746,2.1686,2.1182,2.1127,2.1277,2.1419,2.152,2.1664,2.1724,2.1776,2.1786,2.1653,2.1683,2.1781,2.1907,2.2069,2.2126,2.2315,2.2398,2.2436,2.2526,2.265,2.2685,2.2782,2.2729,2.2142,2.1504,2.0662,1.9956,1.9425,1.9299,1.9403,1.9532,1.9695,1.9847,1.9963,2.0022,2.0075,2.01,2.0156,2.0255,2.0314,2.0324,2.0346,2.0365,2.0402,2.0467,2.0453,2.0395,2.0419,2.0445,2.0428,2.042,2.0458,2.0502,2.051,2.0503,2.051,1.9008,1.8983,1.8989,1.8891,1.8623,1.7989,1.8049,1.8523,1.8772,1.917,1.9527,1.9215,1.926,1.9441,1.9661,1.9946,2.0654,2.1398,2.1894,2.2323,2.2702,2.2529,2.2378,2.2215,2.2059,2.1586,2.1468,2.1531,2.1387,2.1286,2.1444,2.1695,2.1633,2.1539,2.1021,2.0698,2.0467,2.0467,2.052,2.0579,2.0587,2.062,2.0662,2.076,2.0752,2.0744,2.0744,2.0769,2.0827,2.0941,2.1191,2.1301,2.1432,2.1697,2.1969,2.1998,2.2019,2.194,2.1811,2.1562,2.1524,2.1661,2.1751,2.1869,2.2027,2.2251,2.2271,2.2206,2.2121,2.2223,2.2407,2.2426,2.2453,2.2281,2.2337,2.24,2.2455,2.2615,2.272,2.2694,2.2747,2.273,2.235,2.1664,2.0839,2.0128,1.9584,1.929,1.9317,1.9394,1.9521,1.9656,1.9781,1.9845,1.9893,1.9905,1.9955,2.005,2.0131,2.0181,2.0204,2.0237,2.0262,2.0304,2.0321,2.033,2.0351,2.0375,2.0429,2.0456,2.046,2.0496,2.0509,2.0513,2.0511,1.9275,1.9368,1.942,1.942,1.9356,1.8709,1.8784,1.9215,1.9302,1.9503,1.9679,1.9585,1.9744,2.0136,2.0559,2.0927,2.1808,2.2476,2.2944,2.3385,2.3501,2.326,2.3093,2.2993,2.2753,2.2325,2.2171,2.2221,2.1988,2.2148,2.2302,2.244,2.2417,2.2033,2.1547,2.1142,2.064,2.0573,2.0527,2.0595,2.0595,2.0628,2.0662,2.0744,2.0752,2.076,2.076,2.0777,2.0827,2.0974,2.1119,2.1253,2.1438,2.165,2.1982,2.2031,2.2198,2.2141,2.2084,2.2081,2.2064,2.2113,2.2172,2.2209,2.2281,2.2426,2.2516,2.257,2.2659,2.2667,2.2667,2.2685,2.2615,2.2446,2.2446,2.2482,2.2517,2.2685,2.272,2.2694,2.2685,2.266,2.2461,2.177,2.102,2.0368,1.9761,1.9534,1.9295,1.9301,1.9387,1.9499,1.9582,1.9625,1.967,1.9688,1.976,1.9848,1.9914,1.9974,2.0066,2.0092,2.0107,2.0138,2.0154,2.0193,2.0251,2.0303,2.0362,2.0387,2.0385,2.0429,2.0486,2.0488,2.0476,1.9275,1.942,1.942,1.9525,1.9598,1.9498,1.9594,1.9779,1.9779,1.9773,1.9901,2.0377,2.0598,2.0884,2.1763,2.2253,2.2534,2.3165,2.3376,2.3537,2.3595,2.352,2.355,2.3563,2.3245,2.3137,2.3006,2.2856,2.244,2.2655,2.2978,2.3093,2.2883,2.2593,2.224,2.1728,2.1104,2.0651,2.0509,2.0543,2.0577,2.0662,2.0669,2.0711,2.0718,2.0711,2.0711,2.0711,2.0711,2.0802,2.0942,2.1015,2.1134,2.1268,2.1584,2.189,2.2248,2.2362,2.2411,2.2436,2.2446,2.2366,2.2265,2.2271,2.2379,2.2525,2.2579,2.2614,2.2641,2.2614,2.2632,2.2659,2.2712,2.265,2.265,2.2677,2.2677,2.2712,2.2712,2.2712,2.2712,2.26,2.2262,2.1675,2.1321,2.0862,2.0337,2.0054,1.9741,1.9223,1.9301,1.9344,1.9407,1.9413,1.9462,1.9564,1.9559,1.9676,1.9692,1.9746,1.9839,1.9942,1.9896,1.9904,1.997,2.005,2.0156,2.0244,2.0301,2.0317,2.0303,2.0371,2.043,2.0412,2.0398,1.9466,1.9656,1.9708,1.9701,1.9753,1.9753,1.9753,1.9798,1.9798,1.9952,2.0416,2.0653,2.1126,2.1853,2.2374,2.2754,2.3076,2.3392,2.348,2.3566,2.3602,2.3602,2.361,2.3653,2.3546,2.3556,2.3553,2.3605,2.3578,2.3582,2.3656,2.3884,2.3628,2.3377,2.2886,2.2362,2.1466,2.0736,2.0581,2.0483,2.0514,2.0564,2.0582,2.0566,2.0741,2.071,2.0574,2.0769,2.0777,2.0758,2.1038,2.1206,2.1238,2.1518,2.184,2.2104,2.2354,2.2535,2.2545,2.2526,2.2508,2.251,2.2419,2.2508,2.2587,2.2623,2.2614,2.2641,2.2641,2.2667,2.2659,2.2685,2.2712,2.2712,2.2712,2.2712,2.2712,2.2712,2.2712,2.2712,2.2712,2.266,2.2288,2.2001,2.1644,2.1295,2.0954,2.063,2.028,1.9768,1.9395,1.9465,1.9639,1.9756,1.9525,1.9551,1.9501,1.9475,1.9703,1.9834,1.9807,1.9857,1.9712,1.9729,1.9873,1.9992,2.0111,2.0136,2.0108,2.0211,2.0219,2.0301,2.0355,2.0313,2.0302,1.961,1.9798,1.9798,1.9907,2.0099,2.0099,2.0201,2.0346,2.0213,2.0359,2.0709,2.1224,2.1745,2.2314,2.2792,2.3172,2.3363,2.3472,2.3559,2.3566,2.361,2.3602,2.3595,2.3673,2.3694,2.3824,2.3932,2.3994,2.4143,2.4185,2.4279,2.4256,2.431,2.3894,2.334,2.2809,2.2208,2.1329,2.0748,2.0439,2.0481,2.0636,2.0671,2.0601,2.0837,2.0961,2.0659,2.0936,2.1217,2.1038,2.1264,2.1272,2.1317,2.1511,2.1609,2.1866,2.2223,2.2396,2.2479,2.2497,2.2489,2.2499,2.2526,2.2597,2.2641,2.2676,2.2659,2.2677,2.2685,2.2712,2.2712,2.2712,2.2712,2.2712,2.2712,2.2712,2.2712,2.2712,2.2712,2.2712,2.2712,2.272,2.2531,2.2262,2.1984,2.1651,2.1381,2.1141,2.0838,2.0469,2.0019,1.9794,2.0046,2.0235,1.9975,1.9879,2.0133,2.033,2.0556,2.056,2.0177,2.0187,2.0467,2.0187,1.9801,1.9905,1.9985,1.988,1.9858,1.9957,2.0018,2.0012,2.0068,2.0162,2.0156,1.9662,1.9798,1.985,2.0201,2.0616,2.066,2.0888,2.1321,2.0944,2.0795,2.114,2.1887,2.236,2.2694,2.3172,2.34,2.348,2.3551,2.3595,2.3595,2.3602,2.3595,2.363,2.3736,2.3759,2.3925,2.4067,2.4151,2.4268,2.431,2.431,2.431,2.431,2.4025,2.3594,2.3263,2.2748,2.2217,2.1368,2.0883,2.093,2.1147,2.1373,2.105,2.1525,2.2014,2.1369,2.1532,2.2135,2.1709,2.1528,2.1543,2.1388,2.1317,2.1365,2.1576,2.2015,2.2293,2.243,2.2449,2.2496,2.2542,2.2623,2.2614,2.2587,2.2649,2.2685,2.2677,2.2712,2.2712,2.2712,2.2712,2.2712,2.2833,2.292,2.2997,2.3091,2.3091,2.31,2.3022,2.2824,2.2816,2.2712,2.2427,2.2392,2.2036,2.1911,2.1712,2.1567,2.1263,2.0793,2.0358,2.0461,2.066,2.0571,2.0599,2.1052,2.1307,2.138,2.1177,2.0701,2.0932,2.1365,2.0847,2.0273,1.9885,1.9806,1.9753,1.9716,1.9692,1.9728,1.9673,1.9766,2.0022,2.0223,1.9656,1.985,2.0258,2.0696,2.1175,2.1175,2.1272,2.1458,2.1792,2.186,2.1928,2.2289,2.2709,2.312,2.3385,2.3566,2.3559,2.3551,2.3595,2.3595,2.3595,2.3595,2.3595,2.3673,2.3724,2.3782,2.3925,2.4151,2.4268,2.431,2.431,2.431,2.431,2.4125,2.3956,2.3656,2.3232,2.2986,2.2416,2.1869,2.1931,2.1931,2.2022,2.1922,2.2284,2.2414,2.2042,2.2269,2.254,2.2433,2.2491,2.2252,2.1749,2.1487,2.1467,2.167,2.2116,2.2476,2.2643,2.2688,2.2681,2.2483,2.2496,2.246,2.2487,2.2623,2.2667,2.2685,2.2712,2.2712,2.2712,2.2712,2.2729,2.2928,2.3162,2.3308,2.3496,2.3529,2.3547,2.3272,2.3014,2.2867,2.2798,2.2695,2.2686,2.2652,2.2643,2.2573,2.255,2.2324,2.1715,2.1283,2.1001,2.105,2.1044,2.1308,2.1783,2.1758,2.1698,2.1468,2.1271,2.1261,2.1342,2.117,2.0787,2.0398,2.0012,1.9738,1.9685,1.9815,1.9866,2.001,1.9983,2.0158,2.0402,2.0251,2.0534,2.0832,2.1279,2.1725,2.1806,2.1948,2.2189,2.2565,2.2716,2.2723,2.2852,2.312,2.3443,2.3559,2.3595,2.3595,2.3595,2.3595,2.3595,2.3595,2.3595,2.3595,2.3645,2.3782,2.3832,2.4009,2.4227,2.4268,2.431,2.431,2.431,2.431,2.4294,2.4256,2.3917,2.3725,2.3717,2.3279,2.3155,2.3055,2.2925,2.254,2.2471,2.2779,2.2817,2.2717,2.2848,2.3165,2.3087,2.3001,2.3,2.263,2.2506,2.2524,2.2839,2.3177,2.3348,2.3403,2.3363,2.3167,2.3014,2.2942,2.3151,2.2586,2.2676,2.2649,2.2667,2.2694,2.272,2.2712,2.2712,2.2712,2.2824,2.3335,2.3751,2.4081,2.4356,2.4059,2.3608,2.3368,2.3152,2.3014,2.2756,2.2764,2.2799,2.2851,2.2877,2.2954,2.3038,2.2529,2.2173,2.1848,2.1686,2.1732,2.2048,2.2489,2.2368,2.2111,2.2297,2.2291,2.1622,2.1229,2.1441,2.1362,2.0886,2.0508,2.0249,2.0345,2.0618,2.056,2.0491,2.0424,2.0431,2.0806,2.0993,2.1472,2.1527,2.1813,2.2263,2.2388,2.2632,2.3023,2.3231,2.3327,2.3275,2.3414,2.353,2.3566,2.3595,2.3595,2.3595,2.3595,2.3595,2.3595,2.3595,2.3595,2.3645,2.3696,2.3832,2.3967,2.4094,2.4185,2.4276,2.4268,2.431,2.431,2.431,2.431,2.431,2.4294,2.421,2.4171,2.404,2.4171,2.4017,2.3763,2.3225,2.3225,2.3471,2.3586,2.3357,2.3395,2.3825,2.3722,2.353,2.3568,2.35,2.3388,2.3523,2.3756,2.3998,2.4283,2.4551,2.4447,2.4196,2.4019,2.3947,2.3595,2.3053,2.2811,2.2793,2.2648,2.2702,2.2703,2.2703,2.2712,2.2712,2.2953,2.3577,2.4426,2.487,2.5193,2.4686,2.4169,2.391,2.3696,2.3291,2.3015,2.2912,2.2955,2.2894,2.2903,2.2937,2.3013,2.2833,2.2722,2.2609,2.2507,2.2416,2.254,2.2895,2.2976,2.2812,2.3195,2.3279,2.2526,2.2098,2.2173,2.1972,2.1506,2.1202,2.0978,2.1152,2.1247,2.0987,2.0798,2.088,2.097,2.1416,2.1582,2.203,2.2037,2.2324,2.2745,2.2888,2.303,2.3127,2.3378,2.3458,2.3451,2.353,2.3574,2.3545,2.3559,2.3595,2.3595,2.3595,2.3595,2.3595,2.3595,2.3595,2.3645,2.3739,2.3882,2.3975,2.4101,2.4101,2.4234,2.4268,2.431,2.431,2.431,2.4302,2.4294,2.4302,2.4343,2.4385,2.4385,2.4385,2.4385,2.4182,2.414,2.4102,2.4125,2.4182,2.4168,2.4294,2.4374,2.4326,2.4216,2.4325,2.4373,2.4304,2.429,2.4504,2.4759,2.4861,2.5022,2.5051,2.4799,2.4571,2.4406,2.4168,2.3716,2.3428,2.3243,2.2767,2.2761,2.2736,2.271,2.2694,2.2728,2.3305,2.3938,2.5285,2.6225,2.6057,2.5691,2.5298,2.5008,2.4519,2.3872,2.3596,2.3345,2.325,2.2945,2.2945,2.2962,2.3013,2.3099,2.3114,2.3128,2.3102,2.2931,2.2814,2.3041,2.3236,2.3336,2.3342,2.3304,2.3276,2.3008,2.2746,2.252,2.2122,2.1882,2.1701,2.1521,2.1506,2.1209,2.105,2.1245,2.1476,2.1885]},{"header":{"parameterUnit":"m.s-1","parameterCategory":1,"la1":31.0,"la2":29.5877,"lo1":-88.7671,"lo2":-86.6584,"dy":0.0162,"dx":0.0185,"nx":115,"ny":88,"refTime":"2024-08-20T06:00:00:Z","depth":0,"parameterNumber":3,"parameterNumberName":"V-component_of_WINDS"},"data":[0.0,0.0,0.0,0.0,0.0,0.0,0.0,0.0,0.0,0.0,0.0,0.0,0.0,0.0,0.0,0.0,0.0,0.0,0.0,0.0,0.0,0.0,0.0,0.0,0.0,0.0,0.0,0.0,0.0,0.0,0.0,0.0,0.0,0.0,0.0,0.0,0.0,0.0,0.0,0.0,0.0,0.0,0.0,0.0,0.0,0.0,0.0,0.0,0.0,0.0,0.0,0.0,0.0,0.0,0.0,0.0,0.0,0.0,0.0,0.0,0.0,0.0,0.0,0.0,0.0,0.0,0.0,0.0,0.0,0.0,0.0,0.0,0.0,0.0,0.0,0.0,0.0,0.0,0.0,0.0,0.0,0.0,0.0,0.0,0.0,0.0,0.0,0.0,0.0,0.0,0.0,0.0,0.0,0.0,0.0,0.0,0.0,0.0,0.0,0.0,0.0,0.0,0.0,0.0,0.0,0.0,0.0,0.0,0.0,0.0,0.0,0.0,0.0,0.0,0.0,0.0,0.0,0.0,0.0,0.0,0.0,0.0,0.0,0.0,0.0,0.0,0.0,0.0,0.0,0.0,0.0,0.0,0.0,0.0,0.0,0.0,0.0,0.0,0.0,0.0,0.0,0.0,0.0,0.0,0.0,0.0,0.0,0.0,0.0,0.0,0.0,0.0,0.0,0.0,0.0,0.0,0.0,0.0,0.0,0.0,0.0,0.0,0.0,0.0,0.0,0.0,0.0,0.0,0.0,0.0,0.0,0.0,0.0,0.0,0.0,0.0,0.0,0.0,0.0,0.0,0.0,0.0,0.0,0.0,0.0,0.0,0.0,0.0,0.0,0.0,0.0,0.0,0.0,0.0,0.0,0.0,0.0,0.0,0.0,0.0,0.0,0.0,0.0,0.0,0.0,0.0,0.0,0.0,0.0,0.0,0.0,0.0,0.0,0.0,0.0,0.0,0.0,0.0,0.0,0.0,0.0,0.0,0.0,0.0,0.0,0.0,0.0,0.0,0.0,0.0,0.0,0.0,0.0,0.0,0.0,0.0,0.0,0.0,0.0,0.0,0.0,0.0,0.0,0.0,0.0,0.0,0.0,0.0,0.0,0.0,0.0,0.0,0.0,0.0,0.0,0.0,0.0,0.0,0.0,0.0,0.0,0.0,0.0,0.0,0.0,0.0,0.0,0.0,0.0,0.0,0.0,0.0,0.0,0.0,0.0,0.0,0.0,0.0,0.0,0.0,0.0,0.0,0.0,0.0,0.0,0.0,0.0,0.0,0.0,0.0,0.0,0.0,0.0,0.0,0.0,0.0,0.0,0.0,0.0,0.0,0.0,0.0,0.0,0.0,0.0,0.0,0.0,0.0,0.0,0.0,0.0,0.0,0.0,0.0,0.0,0.0,0.0,0.0,0.0,0.0,0.0,0.0,0.0,0.0,0.0,0.0,0.0,0.0,0.0,0.0,0.0,0.0,0.0,0.0,0.0,0.0,0.0,0.0,0.0,0.0,0.0,0.0,0.0,0.0,0.0,0.0,0.0,0.0,0.0,0.0,0.0,0.0,0.0,0.0,0.0,0.0,0.0,0.0,0.0,0.0,0.0,0.0,0.0,0.0,0.0,0.0,0.0,0.0,0.0,0.0,0.0,0.0,0.0,0.0,0.0,0.0,0.0,0.0,0.0,0.0,0.0,0.0,0.0,0.0,0.0,0.0,0.0,0.0,0.0,0.0,0.0,0.0,0.0,0.0,0.0,0.0,0.0,0.0,0.0,0.0,0.0,0.0,0.0,0.0,0.0,0.0,0.0,0.0,0.0,0.0,0.0,0.0,0.0,0.0,0.0,0.0,0.0,0.0,0.0,0.0,0.0,0.0,0.0,0.0,0.0,0.0,0.0,0.0,0.0,0.0,0.0,0.0,0.0,0.0,0.0,0.0,0.0,0.0,0.0,0.0,0.0,0.0,0.0,0.0,0.0,0.0,0.0,0.0,0.0,0.0,0.0,0.0,0.0,0.0,0.0,0.0,0.0,0.0,0.0,0.0,0.0,0.0,0.0,0.0,0.0,0.0,0.0,0.0,0.0,0.0,0.0,0.0,0.0,0.0,0.0,0.0,0.0,0.0,0.0,0.0,0.0,0.0,0.0,0.0,0.0,0.0,0.0,0.0,0.0,0.0,0.0,0.0,0.0,0.0,0.0,0.0,0.0,0.0,0.0,0.0,0.0,0.0,0.0,0.0,0.0,0.0,0.0,0.0,0.0,0.0,0.0,0.0,0.0,0.0,0.0,0.0,0.0,0.0,0.0,0.0,0.0,0.0,0.0,0.0,0.0,0.0,0.0,0.0,0.0,0.0,0.0,0.0,0.0,0.0,0.0,0.0,0.0,0.0,0.0,0.0,0.0,0.0,0.0,0.0,0.0,0.0,0.0,0.0,0.0,0.0,0.0,0.0,0.0,0.0,0.0,0.0,0.0,0.0,0.0,0.0,0.0,0.0,0.0,0.0,0.0,0.0,0.0,0.0,0.0,0.0,0.0,0.0,0.0,0.0,0.0,0.0,0.0,0.0,0.0,0.0,0.0,0.0,0.0,0.0,0.0,0.0,0.0,0.0,0.0,0.0,0.0,0.0,0.0,0.0,0.0,0.0,0.0,0.0,0.0,0.0,0.0,0.0,0.0,0.0,0.0,0.0,0.0,0.0,0.0,0.0,0.0,0.0,0.0,0.0,0.0,0.0,0.0,0.0,0.0,0.0,0.0,0.0,0.0,0.0,0.0,0.0,0.0,0.0,0.0,0.0,0.0,0.0,0.0,0.0,0.0,0.0,0.0,0.0,0.0,0.0,0.0,0.0,0.0,0.0,0.0,0.0,0.0,0.0,0.0,0.0,0.0,0.0,0.0,0.0,0.0,0.0,0.0,0.0,0.0,0.0,0.0,0.0,0.0,0.0,0.0,0.0,0.0,0.0,0.0,0.0,0.0,0.0,0.0,0.0,0.0,0.0,0.0,0.0,0.0,0.0,0.0,0.0,0.0,0.0,0.0,0.0,0.0,0.0,0.0,0.0,0.0,0.0,0.0,0.0,0.0,0.0,0.0,0.0,0.0,0.0,0.0,0.0,0.0,0.0,0.0,0.0,0.0,0.0,0.0,0.0,0.0,0.0,0.0,0.0,0.0,0.0,0.0,0.0,0.0,0.0,0.0,0.0,0.0,0.0,0.0,0.0,0.0,0.0,0.0,0.0,0.0,0.0,0.0,0.0,0.0,0.0,0.0,0.0,0.0,0.0,0.0,0.0,0.0,0.0,0.0,0.0,0.0,0.0,0.0,0.0,0.0,0.0,0.0,0.0,0.0,0.0,0.0,0.0,0.0,0.0,0.0,0.0,0.0,0.0,0.0,0.0,0.0,0.0,0.0,0.0,0.0,0.0,0.0,0.0,0.0,0.0,0.0,0.0,0.0,0.0,0.0,0.0,0.0,0.0,0.0,0.0,0.0,0.0,0.0,0.0,0.0,0.0,0.0,0.0,0.0,0.0,0.0,0.0,0.0,0.0,0.0,0.0,0.0,0.0,0.0,0.0,0.0,0.0,0.0,0.0,0.0,0.0,0.0,0.0,0.0,0.0,0.0,0.0,0.0,0.0,0.0,0.0,0.0,0.0,0.0,0.0,0.0,0.0,0.0,0.0,0.0,0.0,0.0,0.0,0.0,0.0,0.0,0.0,0.0,0.0,0.0,0.0,0.0,0.0,0.0,0.0,0.0,0.0,0.0,0.0,0.0,0.0,0.0,0.0,0.0,0.0,0.0,0.0,0.0,0.0,0.0,0.0,0.0,0.0,0.0,0.0,0.0,0.0,0.0,0.0,0.0,0.0,0.0,0.0,0.0,0.0,0.0,0.0,0.0,0.0,0.0,0.0,0.0,0.0,0.0,0.0,0.0,0.0,0.0,0.0,0.0,0.0,0.0,0.0,0.0,0.0,0.0,0.0,0.0,0.0,0.0,0.0,0.0,0.0,0.0,0.0,0.0,0.0,0.0,0.0,0.0,0.0,0.0,0.0,0.0,0.0,0.0,0.0,0.0,0.0,0.0,0.0,0.0,0.0,0.0,0.0,0.0,0.0,0.0,0.0,0.0,0.0,0.0,0.0,0.0,0.0,0.0,0.0,0.0,0.0,0.0,0.0,0.0,0.0,0.0,0.0,0.0,0.0,0.0,0.0,0.0,0.0,0.0,0.0,0.0,0.0,0.0,0.0,0.0,0.0,0.0,0.0,0.0,0.0,0.0,0.0,0.3607,0.0,0.0,0.0,0.0,0.0,0.0,0.0,0.0,0.0,0.0,0.0,0.0,0.0,0.0,0.0,0.0,0.0,0.0,0.0,0.0,0.0,0.0,0.0,0.0,0.0,0.0,0.0,0.0,0.0,0.0,0.0,0.0,0.0,0.0,0.0,0.0,0.0,0.0,0.0,0.0,0.0,0.0,0.0,0.0,0.0,0.0,0.0,0.0,0.0,0.0,0.0,0.0,0.0,0.0,0.0,0.0,0.0,0.0,0.0,0.0,0.0,0.0,0.0,0.0,0.0,0.0,0.0,0.0,0.0,0.0,0.0,0.0,0.0,0.0,0.0,0.0,0.0,0.0,0.0,0.0,0.0,0.0,0.0,0.0,0.0,0.0,0.0,0.0,0.0,0.0,0.0,0.0,0.0,0.0,0.0,0.0,0.0,0.0,0.0,0.0,0.0,0.0,0.0,0.0,0.0,0.0,0.0,0.0,0.0,0.0,0.3868,0.3818,0.3812,0.3763,0.3599,0.0,0.0,0.0,0.0,0.0,0.0,0.0,0.0,0.0,0.0,0.0,0.0,0.0,0.0,0.0,0.0,0.0,0.0,0.0,0.0,0.0,0.0,0.0,0.0,0.0,0.0,0.0,0.0,0.0,0.0,0.0,0.0,0.0,0.0,0.0,0.0,0.0,0.0,0.0,0.0,0.0,0.0,0.0,0.0,0.0,0.0,0.0,0.0,0.0,0.0,0.0,0.0,0.0,0.0,0.0,0.0,0.0,0.0,0.0,0.0,0.0,0.0,0.0,0.0,0.0,0.0,0.0,0.0,0.0,0.0,0.0,0.0,0.0,0.0,0.0,0.0,0.0,0.0,0.0,0.0,0.0,0.0,0.0,0.0,0.0,0.0,0.0,0.0,0.0,0.0,0.0,0.0,0.0,0.0,0.0,0.0,0.0,0.0,0.0,0.0,0.0,0.0,0.0,0.0,0.0,0.0,0.0,0.0,0.0,0.0,0.0,0.0,0.3789,0.3738,0.36,0.0,0.0,0.0,0.0,0.0,0.0,0.0,0.0,0.0,0.0,0.0,0.0,0.0,0.0,0.0,0.0,0.0,0.0,0.0,0.0,0.0,0.0,0.0,0.0,0.0,0.0,0.0,0.0,0.0,0.0,0.0,0.0,0.0,0.0,0.0,0.0,0.0,0.0,0.0,0.0,0.0,0.0,0.0,0.0,0.0,0.0,0.0,0.0,0.0,0.0,0.0,0.0,0.0,0.0,0.0,0.0,0.0,0.0,0.0,0.0,0.0,0.0,0.0,0.0,0.0,0.0,0.0,0.0,0.0,0.0,0.0,0.0,0.0,0.0,0.0,0.0,0.0,0.0,0.0,0.0,0.0,0.0,0.0,0.0,0.0,0.0,0.0,0.0,0.0,0.0,0.0,0.0,0.0,0.0,0.0,0.0,0.0,0.0,0.0,0.0,0.0,0.0,0.0,0.0,0.0,0.0,0.0,0.0,0.0,0.0,0.3812,0.3814,0.3808,0.0,0.3513,0.0,0.0,0.0,0.0,0.0,0.0,0.0,0.0,0.0,0.0,0.0,0.0,0.0,0.0,0.0,0.0,0.0,0.0,0.0,0.0,0.0,0.0,0.0,0.0,0.0,0.0,0.0,0.0,0.0,0.0,0.0,0.0,0.0,0.0,0.0,0.0,0.0,0.0,0.0,0.0,0.0,0.0,0.0,0.0,0.0,0.0,0.0,0.0,0.0,0.0,0.0,0.0,0.0,0.0,0.0,0.0,0.0,0.0,0.0,0.0,0.0,0.0,0.0,0.0,0.0,0.0,0.0,0.0,0.0,0.0,0.0,0.0,0.0,0.0,0.0,0.0,0.0,0.0,0.0,0.0,0.0,0.0,0.0,0.0,0.0,0.0,0.0,0.0,0.0,0.0,0.0,0.0,0.0,0.0,0.0,0.0,0.0,0.0,0.0,0.0,0.0,0.0,0.0,0.0,0.0,0.0,0.0,0.0,0.0,0.0,0.3812,0.3812,0.3036,0.2247,0.0,0.0,0.0,0.0,0.0,0.0,0.0,0.0,0.0,0.0,0.0,0.0,0.0,0.0,0.0,0.0,0.0,0.0,0.0,0.0,0.0,0.0,0.0,0.0,0.0,0.0,0.0,0.0,0.0,0.0,0.0,0.0,0.0,0.0,0.0,0.0,0.0,0.0,0.0,0.0,0.0,0.0,0.0,0.0,0.0,0.0,0.0,0.0,0.0,0.0,0.0,0.0,0.0,0.0,0.0,0.0,0.0,0.0,0.0,0.0,0.0,0.0,0.0,0.0,0.0,0.0,0.0,0.0,0.0,0.0,0.0,0.0,0.0,0.0,0.0,0.0,0.0,0.0,0.0,0.0,0.0,0.0,0.0,0.0,0.0,0.0,0.0,0.0,0.0,0.0,0.0,0.0,0.0,0.0,0.0,0.0,0.0,0.0,0.0,0.0,0.0,0.0,0.0,0.0,0.0,0.0,0.0,0.0,0.0,0.0,0.3728,0.383,0.3801,0.2829,0.1569,0.0,0.0,0.0,0.0,0.0,0.0,0.0,0.0,0.0,0.0,0.0,0.0,0.0,0.0,0.0,0.0,0.0,0.0,0.0,0.0,0.0,0.0,0.0,0.0,0.0,0.0,0.0,0.0,0.0,0.0,0.0,0.0,0.0,0.0,0.0,0.0,0.0,0.0,0.0,0.0,0.0,0.0,0.0,0.0,0.0,0.0,0.0,0.0,0.0,0.0,0.0,0.0,0.0,0.0,0.0,0.0,0.0,0.0,0.0,0.0,0.0,0.0,0.0,0.0,0.0,0.0,0.0,0.0,0.0,0.0,0.0,0.0,0.0,0.0,0.0,0.0,0.0,0.0,0.0,0.0,0.0,0.0,0.0,0.0,0.0,0.0,0.0,0.0,0.0,0.0,0.0,0.0,0.0,0.0,0.0,0.0,0.0,0.0,0.0,0.0,0.0,0.0,0.0,0.0,0.0,0.0,0.0,0.0,0.0,0.0,0.3808,0.3816,0.3819,0.3654,0.2418,0.0,0.0,0.0,0.0,0.0,0.0,0.0,0.0,0.0,0.0,0.0,0.0,0.0,0.0,0.0,0.0,0.0,0.0,0.0,0.0,0.0,0.0,0.0,0.0,0.0,0.0,0.0,0.0,0.0,0.0,0.0,0.0,0.0,0.0,0.0,0.0,0.0,0.0,0.0,0.0,0.0,0.0,0.0,0.0,0.0,0.0,0.0,0.0,0.0,0.0,0.0,0.0,0.0,0.0,0.0,0.0,0.0,0.0,0.0,0.0,0.0,0.0,0.0,0.0,0.0,0.0,0.0,0.0,0.0,0.0,0.0,0.0,0.0,0.0,0.0,0.0,0.0,0.0,0.0,0.0,0.0,0.0,0.0,0.0,0.0,0.0,0.0,0.0,0.0,0.0,0.0,0.0,0.0,0.0,0.0,0.0,0.0,0.0,0.0,0.0,0.0,0.0,0.0,0.0,0.0,0.0,0.0,0.0,0.0,0.3706,0.3743,0.3282,0.221,0.3348,0.275,0.0,0.0,0.0,0.0,0.0,0.0,0.0,0.0,0.0,0.0,0.0,0.0,0.0,0.0,0.0,0.0,0.0,0.0,0.0,0.0,0.0,0.0,0.0,0.0,0.0,0.0,0.0,0.0,0.0,0.0,0.0,0.0,0.0,0.0,0.0,0.0,0.0,0.0,0.0,0.0,0.0,0.0,0.0,0.0,0.0,0.0,0.0,0.0,0.0,0.0,0.0,0.0,0.0,0.0,0.0,0.0,0.0,0.0,0.0,0.0,0.0,0.0,0.0,0.0,0.0,0.0,0.0,0.0,0.0,0.0,0.0,0.0,0.0,0.0,0.0,0.0,0.0,0.0,0.0,0.0,0.0,0.0,0.0,0.0,0.0,0.0,0.0,0.0,0.0,0.0,0.0,0.0,0.0,0.0,0.0,0.0,0.0,0.0,0.0,0.0,0.0,0.0,0.0,0.0,0.0,0.0,0.0,0.0,0.0,0.3297,0.0,0.2612,0.0,0.2069,0.1764,0.0,0.0,0.0,0.0,0.0,0.0,0.0,0.0,0.0,0.0,0.0,0.0,0.0,0.0,0.0,0.0,0.0,0.0,0.0,0.0,0.0,0.0,0.0,0.0,0.0,0.0,0.0,0.0,0.0,0.0,0.0,0.0,0.0,0.0,0.0,0.0,0.0,0.0,0.0,0.0,0.0,0.0,0.0,0.0,0.0,0.0,0.0,0.0,0.0,0.0,0.0,0.0,0.0,0.0,0.0,0.0,0.0,0.0,0.0,0.0,0.0,0.0,0.0,0.0,0.0,0.0,0.0,0.0,0.0,0.0,0.0,0.0,0.0,0.0,0.0,0.0,0.0,0.0,0.0,0.0,0.0,0.0,0.0,0.0,0.0,0.0,0.0,0.0,0.0,0.0,0.0,0.0,0.0,0.0,0.0,0.0,0.0,0.0,0.0,0.0,0.0,0.0,0.0,0.0,0.0,0.0,0.0,0.0,0.3238,0.2629,0.2403,0.1877,0.1114,-0.0055,-0.0557,0.0,0.0,0.0,0.0,0.0,0.0,0.0,0.0,0.0,0.0,0.0,0.0,0.0,0.0,0.0,0.0,0.0,0.0,0.0,0.0,0.0,0.0,0.0,0.0,0.0,0.0,0.0,0.0,0.0,0.0,0.0,0.0,0.0,0.0,0.0,0.0,0.0,0.0,0.0,0.0,0.0,0.0,0.0,0.0,0.0,0.0,0.0,0.0,0.0,0.0,0.0,0.0,0.0,0.0,0.0,0.0,0.0,0.0,0.0,0.0,0.0,0.0,0.0,0.0,0.0,0.0,0.0,0.0,0.0,0.0,0.0,0.0,0.0,0.0,0.0,0.0,0.0,0.0,0.0,0.0,0.0,0.0,0.0,0.0,0.0,0.0,0.0,0.0,0.0,0.0,0.0,0.0,0.0,0.0,0.0,0.0,0.0,0.0,0.0,0.0,0.0,0.0,0.0,0.0,0.0,0.0,0.0,0.0,0.0,0.2245,0.1401,0.0681,0.0226,-0.0426,-0.0748,0.0,0.0,0.0,0.0,0.0,0.0,0.0,0.0,0.0,0.0,0.0,0.0,0.0,0.0,0.0,0.0,0.0,0.0,0.0,0.0,0.0,0.0,0.0,0.0,0.0,0.0,0.0,0.0,0.0,0.0,0.0,0.0,0.0,0.0,0.0,0.0,0.0,0.0,0.0,0.0,0.0,0.0,0.0,0.0,0.0,0.0,0.0,0.0,0.0,0.0,0.0,0.0,0.0,0.0,0.0,0.0,0.0,0.0,0.0,0.0,0.0,0.0,0.0,0.0,0.0,0.0,0.0,0.0,0.0,0.0,0.0,0.0,0.0,0.0,0.0,0.0,0.0,0.0,0.0,0.0,0.0,0.0,0.0,0.0,0.0,0.0,0.0,0.0,0.0,0.0,0.0,0.0,0.0,0.0,0.0,0.0,0.0,0.0,0.0,0.0,0.0,0.0,0.0,0.0,0.0,0.0,0.0,0.0,0.0,0.1168,0.0494,-0.0112,-0.0615,-0.0955,-0.1056,-0.0954,0.0,0.0,0.0,0.0,0.0,0.0,0.0,0.0,0.0,0.0,0.0,0.0,0.0,0.0,0.0,0.0,0.0,0.0,0.0,0.0,0.0,0.0,0.0,0.0,0.0,0.0,0.0,0.0,0.0,0.0,0.0,0.0,0.0,0.0,0.0,0.0,0.0,0.0,0.0,0.0,0.0,0.0,0.0,0.0,0.0,0.0,0.0,0.0,0.0,0.0,0.0,0.0,0.0,0.0,0.0,0.0,0.0,0.0,0.0,0.0,0.0,0.0,0.0,0.0,0.0,0.0,0.0,0.0,0.0,0.0,0.0,0.0,0.0,0.0,0.0,0.0,0.0,0.0,0.0,0.0,0.0,0.0,0.0,0.0,0.0,0.0,0.0,0.0,0.0,0.0,0.0,0.0,0.0,0.0,0.0,0.0,0.0,0.0,0.0,0.0,0.0,0.0,0.0,0.0,0.0,0.0,0.0,0.0,-0.0372,-0.033,-0.0615,-0.1345,-0.1573,-0.1599,0.0,0.0,0.0,0.0,0.0,0.0,0.0,0.0,0.0,0.0,0.0,0.0,0.0,0.0,0.0,0.0,0.0,0.0,0.0,0.0,0.0,0.0,0.0,0.0,0.0,0.0,0.0,0.0,0.0,0.0,0.0,0.0,0.0,0.0,0.0,0.0,0.0,0.0,0.0,0.0,0.0,0.0,0.0,0.0,0.0,0.0,0.0,0.0,0.0,0.0,0.0,0.0,0.0,0.0,0.0,0.0,0.0,0.0,0.0,0.0,0.0,0.0,0.0,0.0,0.0,0.0,0.0,0.0,0.0,0.0,0.0,0.0,0.0,0.0,0.0,0.0,0.0,0.0,0.0,0.0,0.0,0.0,0.0,0.0,0.0,0.0,0.0,0.0,0.0,0.0,0.0,0.0,0.0,0.0,0.0,0.0,0.0,0.0,0.0,0.0,0.0,0.0,0.0,0.0,0.0,0.0,0.0,0.0,0.0,-0.0331,-0.0946,-0.1566,-0.2296,-0.2277,-0.2163,0.0,0.0,0.0,0.0,0.0,0.0,0.0,0.0,0.0,0.0,0.0,0.0,0.0,0.0,0.0,0.0,0.0,0.0,0.0,0.0,0.0,0.0,0.0,0.0,0.0,0.0,0.0,0.0,0.0,0.0,0.0,0.0,0.0,0.0,0.0,0.0,0.0,0.0,0.0,0.0,0.0,0.0,0.0,0.0,0.0,0.0,0.0,0.0,0.0,0.0,0.0,0.0,0.0,0.0,0.0,0.0,0.0,0.0,0.0,0.0,0.0,0.0,0.0,0.0,0.0,0.0,0.0,0.0,0.0,0.0,0.0,0.0,0.0,0.0,0.0,0.0,0.0,0.0,0.0,0.0,0.0,0.0,0.0,0.0,0.0,0.0,0.0,0.0,0.0,0.0,0.0,0.0,0.0,0.0,0.0,0.0,0.0,0.0,0.0,0.0,0.0,0.0,0.0,0.0,0.0,0.0,0.0,0.0,0.0895,-0.0838,-0.1566,-0.235,-0.3302,-0.3073,-0.2802,0.0,0.0,0.0,0.0,0.0,0.0,0.0,0.0,0.0,0.0,0.0,0.0,0.0,0.0,0.0,0.0,0.0,0.0,0.0,0.0,0.0,0.0,0.0,0.0,0.0,0.0,0.0,0.0,0.0,0.0,0.0,0.0,0.0,0.0,0.0,0.0,0.0,0.0,0.0,0.0,0.0,0.0,0.0,0.0,0.0,0.0,0.0,0.0,0.0,0.0,0.0,0.0,0.0,0.0,0.0,0.0,0.0,0.0,0.0,0.0,0.0,0.0,0.0,0.0,0.0,0.0,0.0,0.0,0.0,0.0,0.0,0.0,0.0,0.0,0.0,0.0,0.0,0.0,0.0,0.0,0.0,0.0,0.0,0.0,0.0,0.0,0.0,0.0,0.0,0.0,0.0,0.0,0.0,0.0,0.0,0.0,0.0,0.0,0.0,0.0,0.0,0.0,0.0,0.0,0.0,0.0,0.0,0.0,0.056,-0.151,-0.212,-0.3011,-0.4242,-0.3959,-0.3519,0.0,0.0,0.0,0.0,0.0,0.0,0.0,0.0,0.0,0.0,0.0,0.0,0.0,0.0,0.0,0.0,0.0,0.0,0.0,0.0,0.0,0.0,0.0,0.0,0.0,0.0,0.0,0.0,0.0,0.0,0.0,0.0,0.0,0.0,0.0,0.0,0.0,0.0,0.0,0.0,0.0,0.0,0.0,0.0,0.0,0.0,0.0,0.0,0.0,0.0,0.0,0.0,0.0,0.0,0.0,0.0,0.0,0.0,0.0,0.0,0.0,0.0,0.0,0.0,0.0,0.0,0.0,0.0,0.0,0.0,0.0,0.0,0.0,0.0,0.0,0.0,0.0,0.0,0.0,0.0,0.0,0.0,0.0,0.0,0.0,0.0,0.0,0.0,0.0,0.0,0.0,0.0,0.0,0.0,0.0,0.0,0.0,0.0,0.0,0.0,0.0,0.0,0.0,0.0,0.0,0.0,0.0,0.0,0.0728,-0.1229,-0.2121,-0.3415,-0.5162,-0.5046,-0.4595,0.0,0.0,0.0,0.0,0.0,0.0,0.0,0.0,0.0,0.0,0.0,0.0,0.0,0.0,0.0,0.0,0.0,0.0,0.0,0.0,0.0,0.0,0.0,0.0,0.0,0.0,0.0,0.0,0.0,0.0,0.0,0.0,0.0,0.0,0.0,0.0,0.0,0.0,0.0,0.0,0.0,0.0,0.0,0.0,0.0,0.0,0.0,0.0,-1.3814,0.0,0.0,0.0,0.0,0.0,0.0,0.0,0.0,0.0,0.0,0.0,0.0,0.0,0.0,0.0,0.0,0.0,0.0,0.0,0.0,0.0,0.0,0.0,0.0,0.0,0.0,0.0,0.0,0.0,0.0,0.0,0.0,0.0,0.0,0.0,0.0,0.0,0.0,0.0,0.0,0.0,0.0,0.0,0.0,0.0,0.0,0.0,0.0,0.0,0.0,0.0,0.0,0.0,0.0,0.0,0.0,0.0,0.0,0.0,0.0056,-0.1785,-0.2592,-0.3839,-0.5619,-0.6096,-0.5937,0.0,0.0,0.0,0.0,0.0,0.0,0.0,0.0,0.0,0.0,0.0,0.0,0.0,0.0,0.0,0.0,0.0,0.0,0.0,0.0,0.0,0.0,0.0,0.0,0.0,0.0,0.0,0.0,0.0,0.0,0.0,0.0,0.0,0.0,0.0,0.0,0.0,0.0,0.0,0.0,0.0,0.0,0.0,0.0,0.0,0.0,0.0,0.0,0.0,0.0,0.0,0.0,0.0,0.0,0.0,0.0,0.0,0.0,0.0,0.0,0.0,0.0,0.0,0.0,0.0,0.0,0.0,0.0,0.0,0.0,0.0,0.0,0.0,0.0,0.0,0.0,0.0,0.0,0.0,0.0,0.0,0.0,0.0,0.0,0.0,0.0,0.0,0.0,0.0,0.0,0.0,0.0,0.0,0.0,0.0,0.0,0.0,0.0,0.0,0.0,0.0,0.0,0.0,0.0,0.0,0.0,0.0,-0.0056,-0.1061,-0.2601,-0.3217,-0.4301,-0.5935,-0.6918,-0.7145,-0.6668,0.0,0.0,0.0,0.0,0.0,0.0,0.0,0.0,0.0,0.0,0.0,0.0,0.0,0.0,0.0,0.0,0.0,0.0,0.0,0.0,0.0,0.0,0.0,0.0,0.0,0.0,0.0,0.0,0.0,0.0,0.0,0.0,0.0,0.0,0.0,0.0,0.0,0.0,0.3227,-0.5581,0.0,0.0,0.0,0.0,0.0,0.0,0.0,0.0,-1.6513,0.0,0.0,0.0,0.0,0.0,0.0,0.0,0.0,0.0,0.0,0.0,0.0,0.0,0.0,0.0,0.0,0.0,0.0,0.0,0.0,0.0,0.0,0.0,0.0,0.0,0.0,0.0,0.0,0.0,0.0,0.0,0.0,0.0,0.0,0.0,0.0,0.0,0.0,0.0,0.0,0.0,0.0,0.0,0.0,0.0,0.0,0.0,0.0,0.0,0.0,0.0,0.0,0.0,0.0,0.0,0.0,-0.0391,-0.1121,-0.2102,-0.3324,-0.3774,-0.4793,-0.649,-0.6974,-0.7504,-0.8052,0.0,0.0,0.0,0.0,0.0,0.0,0.0,0.0,0.0,0.0,0.0,0.0,0.0,0.0,0.0,0.0,0.0,0.0,0.0,0.0,0.0,0.0,0.0,0.0,0.0,0.0,0.0,0.0,0.0,0.0,0.0,0.0,0.0,0.0,0.0,0.0,0.0,0.0,0.0,-0.8795,-1.2912,0.0,0.0,0.0,0.0,0.0,0.0,0.0,0.0,-1.79,0.0,0.0,0.0,0.0,0.0,0.0,0.0,0.0,0.0,0.0,0.0,0.0,0.0,0.0,0.0,0.0,0.0,0.0,0.0,0.0,0.0,0.0,0.0,0.0,0.0,0.0,0.0,0.0,0.0,0.0,0.0,0.0,0.0,0.0,0.0,0.0,0.0,0.0,0.0,0.0,0.0,0.0,0.0,0.0,0.0,0.0,0.0,0.0,0.0,0.0,0.0,0.0,0.0,0.0,0.0,-0.0111,-0.1007,-0.209,-0.3344,-0.3835,-0.4893,-0.6681,-0.7251,-0.7862,0.0,0.0,0.0,0.0,0.0,0.0,0.0,0.0,0.0,0.0,0.0,0.0,0.0,0.0,0.0,0.0,0.0,0.0,0.0,0.0,0.0,0.0,0.0,0.0,0.0,0.0,0.0,0.0,0.0,0.0,0.0,0.0,0.0,0.0,0.0,0.0,0.0,0.0,0.0,0.0,-0.1559,-0.603,-0.9954,0.0,0.0,0.0,0.0,0.0,0.0,-1.8806,-1.9681,0.0,0.0,0.0,0.0,0.0,0.0,0.0,0.0,0.0,0.0,0.0,0.0,0.0,0.0,0.0,0.0,0.0,0.0,0.0,0.0,0.0,0.0,0.0,0.0,0.0,0.0,0.0,0.0,0.0,0.0,0.0,0.0,0.0,0.0,0.0,0.0,0.0,0.0,0.0,0.0,0.0,0.0,0.0,0.0,0.0,0.0,0.0,0.0,0.0,0.0,0.0,0.0,0.0,0.0,0.0,0.0223,-0.0894,-0.2134,-0.3405,-0.3912,-0.5016,-0.6797,-0.7538,-0.8156,0.0,0.0,0.0,0.0,0.0,0.0,0.0,0.0,0.0,0.0,0.0,0.0,0.0,0.0,0.0,0.0,0.0,0.0,0.0,0.0,0.0,0.0,0.0,0.0,0.0,0.0,0.0,0.0,0.0,0.0,0.0,0.0,0.0,0.0,0.0,0.0,0.0,0.0,0.0,0.0,0.0,0.2663,-0.6291,-1.2846,0.0,0.0,0.0,0.0,-1.9624,-2.0708,0.0,0.0,0.0,0.0,0.0,0.0,0.0,0.0,0.0,0.0,0.0,0.0,0.0,0.0,0.0,0.0,0.0,0.0,0.0,0.0,0.0,0.0,0.0,0.0,0.0,0.0,0.0,0.0,0.0,0.0,0.0,0.0,0.0,0.0,0.0,0.0,0.0,0.0,0.0,0.0,0.0,0.0,0.0,0.0,0.0,0.0,0.0,0.0,0.0,0.0,0.0,0.0,0.0,0.0,0.0,0.0,0.0056,-0.19,-0.3253,-0.4048,-0.4451,-0.5419,-0.7081,-0.7528,-0.8138,0.0,0.0,0.0,0.0,0.0,0.0,0.0,0.0,0.0,0.0,0.0,0.0,0.0,0.0,0.0,0.0,0.0,0.0,0.0,0.0,0.0,0.0,0.0,0.0,0.0,0.0,0.0,0.0,0.0,0.0,0.0,0.0,0.0,0.0,0.0,0.0,0.0,0.0,0.0,0.0,0.0,0.993,-0.5216,-1.4493,-1.9406,0.0,0.0,-2.0589,-2.0593,-2.2436,0.0,0.0,0.0,0.0,0.0,0.0,0.0,0.0,0.0,0.0,0.0,0.0,0.0,0.0,0.0,0.0,0.0,0.0,0.0,0.0,0.0,0.0,0.0,0.0,0.0,0.0,0.0,0.0,0.0,0.0,0.0,0.0,0.0,0.0,0.0,0.0,0.0,0.0,0.0,0.0,0.0,0.0,0.0,0.0,0.0,0.0,0.0,0.0,0.0,0.0,0.0,0.0,0.0,0.0,0.0,0.1457,-0.0333,-0.1954,-0.3344,-0.451,-0.5218,-0.6195,-0.744,-0.8088,-0.8752,0.0,0.0,0.0,0.0,0.0,0.0,0.0,0.0,0.0,0.0,0.0,0.0,0.0,0.0,0.0,0.0,0.0,0.0,0.0,0.0,0.0,0.0,0.0,0.0,0.0,0.0,0.0,0.0,0.0,0.0,0.0,0.0,0.0,0.0,0.0,0.0,0.0,0.0,0.0,0.0,0.0,0.0,-0.1031,-1.3234,0.0,0.0,0.0,-2.1731,-2.2758,0.0,0.0,0.0,0.0,0.0,0.0,0.0,0.0,0.0,0.0,0.0,0.0,0.0,0.0,0.0,0.0,0.0,0.0,0.0,0.0,0.0,0.0,0.0,0.0,0.0,0.0,0.0,0.0,0.0,0.0,0.0,0.0,0.0,0.0,0.0,0.0,0.0,0.0,0.0,0.0,0.0,0.0,0.0,0.0,0.0,0.0,0.0,0.0,0.0,0.0,0.0,0.0,0.0,0.0,0.0,0.0,0.0,-0.1204,-0.2441,-0.3769,-0.5191,-0.5901,-0.672,-0.771,-0.8488,0.0,0.0,0.0,0.0,0.0,0.0,0.0,0.0,0.0,0.0,0.0,0.0,0.0,0.0,0.0,0.0,0.0,0.0,0.0,0.0,0.0,0.0,0.0,0.0,0.0,0.0,0.0,-0.1401,0.0,0.0,0.0,0.0,0.0,0.0,0.0,0.0,0.0,0.0,0.0,0.0,0.0,0.0,1.6138,0.5415,-0.806,-1.754,0.0,0.0,-2.2748,-2.4553,-2.4799,-2.4797,0.0,0.0,0.0,0.0,0.0,0.0,0.0,0.0,0.0,0.0,0.0,0.0,0.0,0.0,0.0,0.0,0.0,0.0,0.0,0.0,0.0,0.0,0.0,0.0,0.0,0.0,0.0,0.0,0.0,0.0,0.0,0.0,0.0,0.0,0.0,0.0,0.0,0.0,0.0,0.0,0.0,0.0,0.0,0.0,0.0,0.0,0.0,0.0,0.0,0.0,0.0,0.0,0.0,0.0,-0.1019,-0.2896,-0.4061,-0.5229,-0.6428,-0.6304,-0.6736,-0.785,-0.8334,-0.8801,0.0,0.0,0.0,0.0,0.0,0.0,0.0,0.0,0.0,0.0,0.0,0.0,0.0,0.0,0.0,0.0,0.0,0.0,0.0,0.0,0.0,0.0,0.0,0.0,0.0,0.0,0.0,0.0,0.0,0.0,0.0,0.0,0.0,0.0,0.0,0.0,0.0,0.0,0.0,0.0,0.0,2.2776,1.4672,0.3104,-0.6315,0.0,-1.8345,-2.4009,-2.5234,-2.5605,-2.5652,-2.5223,0.0,0.0,0.0,0.0,0.0,0.0,0.0,0.0,0.0,0.0,0.0,0.0,0.0,0.0,0.0,0.0,0.0,0.0,0.0,0.0,0.0,0.0,0.0,0.0,0.0,0.0,0.0,0.0,0.0,0.0,0.0,0.0,0.0,0.0,0.0,0.0,0.0,0.0,0.0,0.0,0.0,0.0,0.0,0.0,0.0,0.0,0.0,0.0,0.0,0.0,0.0,0.0,0.0,-0.2365,-0.4407,-0.4711,-0.5616,-0.7002,-0.6968,-0.7311,-0.8265,-0.8867,-0.9469,0.0,0.0,0.0,0.0,0.0,0.0,0.0,0.0,0.0,0.0,0.0,0.0,0.0,0.0,0.0,0.0,0.0,0.0,0.0,0.0,0.0,0.0,0.0,0.0,0.0,0.0,0.0,0.0,1.7593,1.9216,1.8536,0.0,0.0,0.0,0.0,0.0,0.0,0.0,0.0,0.0,0.0,2.3763,1.5811,0.8946,0.0,0.0,-1.2483,-1.6045,-2.3113,-2.2346,-2.1342,-2.2594,-2.2666,0.0,0.0,0.0,0.0,0.0,0.0,0.0,0.0,0.0,0.0,0.0,0.0,0.0,0.0,0.0,0.0,0.0,0.0,0.0,0.0,0.0,0.0,0.0,0.0,0.0,0.0,0.0,0.0,0.0,0.0,0.0,0.0,0.0,0.0,0.0,0.0,0.0,0.0,0.0,0.0,0.0,0.0,0.0,0.0,0.0,0.0,0.0,0.0,0.0,0.0,0.0,0.0,-0.3277,-0.5537,-0.5289,-0.593,-0.7526,-0.7468,-0.7754,-0.8438,-0.9237,-0.99,0.0,0.0,0.0,0.0,0.0,0.0,0.0,0.0,0.0,0.0,0.0,0.0,0.0,0.0,0.0,0.0,0.0,0.0,0.0,0.0,0.0,0.0,0.0,0.0,0.0,0.0,0.0,0.0,1.9152,1.9802,1.9447,0.0,0.0,0.0,0.0,0.0,0.0,0.0,0.0,0.0,0.0,2.5498,1.9992,1.4855,0.8656,0.051,-0.3279,-0.8178,-1.6649,-1.5668,-1.4432,-1.6,0.0,0.0,0.0,0.0,0.0,0.0,0.0,0.0,0.0,0.0,0.0,0.0,0.0,0.0,0.0,0.0,0.0,0.0,0.0,0.0,0.0,0.0,0.0,0.0,0.0,0.0,0.0,1.3723,0.0,0.0,1.231,0.0,0.0,0.0,0.0,0.0,0.0,0.0,0.0,0.0,0.0,0.0,0.0,0.0,0.0,0.0,0.0,0.0,0.0,0.0,0.0,0.0,0.0,-0.379,-0.612,-0.5902,-0.6494,-0.7855,-0.7745,-0.7901,-0.8339,-0.9277,-0.9876,-1.0037,0.0,0.0,0.0,0.0,0.0,0.0,0.0,0.0,0.0,0.0,0.0,0.0,0.0,0.0,0.0,0.0,0.0,0.0,0.0,0.0,0.0,0.0,0.0,0.0,0.0,0.0,1.9321,1.9827,2.0011,0.0,0.0,0.0,0.0,0.0,0.0,0.0,0.0,0.0,2.7208,2.8203,2.8909,2.9071,2.1457,1.7316,2.2135,0.9667,-0.1731,-0.5258,-0.533,-0.4898,0.0,0.0,0.0,0.0,0.0,0.0,0.0,0.0,0.0,0.0,0.0,0.0,0.0,0.0,0.0,0.0,0.0,0.0,0.0,0.0,0.0,0.0,0.0,0.0,0.0,0.0,0.0,1.8047,1.7296,0.0,0.0,0.0,0.0,0.0,0.0,0.0,0.0,0.0,0.0,0.0,2.5049,2.4546,0.0,0.0,0.0,0.0,0.0,0.0,0.0,0.0,0.0,0.0,0.0,0.0,-0.4949,-0.5588,-0.6334,-0.7176,-0.8115,-0.7953,-0.8095,-0.8563,-0.9091,-0.9834,-1.0704,0.0,0.0,0.0,0.0,0.0,0.0,0.0,0.0,0.0,0.0,0.0,0.0,0.0,0.0,0.0,0.0,0.0,0.0,0.0,0.0,0.0,0.0,0.0,0.0,0.0,1.9301,0.0,0.0,0.0,0.0,0.0,0.0,0.0,0.0,0.0,0.0,0.0,2.6362,2.7898,2.8219,2.8342,2.855,2.5073,2.2698,0.0,0.0,0.0,0.0,0.0,0.0,0.0,0.0,0.0,0.0,0.0,0.0,0.0,0.0,0.005,0.0633,0.298,0.5861,0.9166,0.0,0.0,0.0,0.0,0.0,0.0,0.0,0.0,0.0,0.0,0.0,0.0,0.0,0.0,2.1797,2.117,2.1045,0.0,0.0,0.0,0.0,0.0,0.0,0.0,0.0,2.2998,2.4352,2.5516,2.615,2.4765,0.0,2.2976,1.7104,0.0,0.0,0.0,0.0,0.0,0.0,0.0,0.0,-0.2941,-0.3151,-0.5687,-0.741,-0.8158,-0.802,-0.8273,-0.8936,-0.9418,-1.0241,-1.1493,-1.2572,-1.3131,0.0,0.0,0.0,0.0,0.0,0.0,0.0,0.0,0.0,0.0,0.0,0.0,0.0,0.0,0.0,0.0,0.0,0.0,0.0,0.0,0.0,0.0,0.0,2.0454,0.0,0.0,0.0,0.0,0.0,0.0,0.0,0.0,0.0,2.531,2.592,2.6713,2.7743,2.7969,2.8067,2.8169,0.0,0.0,0.0,0.0,0.0,0.0,0.0,0.8216,0.6635,0.4962,0.3693,0.3164,0.6901,1.0018,1.0188,0.0,0.0,0.3492,0.4958,0.6944,0.839,1.0108,1.1514,1.1841,1.3728,1.5159,0.0,0.0,0.0,0.0,0.0,0.0,0.0,0.0,2.6516,2.6024,0.0,2.4852,0.0,0.0,0.0,0.0,2.2853,2.391,0.0,0.0,2.4631,2.5379,2.5732,2.6389,2.6734,2.6896,2.8375,2.6213,2.0362,1.2133,0.0,0.0,0.0,0.0,0.0,0.0,0.1831,0.087,-0.419,-0.7228,-0.807,-0.8058,-0.8457,-0.9335,-1.0088,-1.1012,-1.2208,-1.2797,-1.3603,-1.4603,-1.4424,0.0,0.0,0.0,0.0,0.0,0.0,0.0,0.0,0.0,0.0,0.0,0.0,0.0,0.0,0.0,0.0,0.0,0.0,0.0,0.0,2.0608,0.0,0.0,0.0,0.0,0.0,0.0,0.0,0.0,0.0,0.0,2.5888,2.6228,2.6645,2.6869,0.0,0.0,0.0,0.0,2.5271,2.2884,2.2029,2.101,1.9148,1.815,1.7464,1.7282,0.0,0.0,1.262,1.1948,1.1312,1.0661,1.0228,0.9481,0.7661,0.7494,0.8149,0.9298,0.9904,1.0508,1.1396,1.1546,1.1773,2.5428,0.0,0.0,0.0,0.0,2.7026,2.7494,2.8145,2.8177,2.8013,2.7691,2.7628,0.0,0.0,0.0,0.0,0.0,0.0,2.533,2.458,2.5089,2.5479,2.5721,2.6539,2.6928,2.6989,2.8033,2.7676,2.5972,2.3424,1.7893,0.9862,0.0,0.0,0.0,0.0,0.1476,0.1375,-0.4386,-0.7757,-0.8077,-0.8311,-0.8617,-0.9051,-0.9838,-1.074,-1.1702,-1.2887,-1.3792,-1.4306,-1.4419,0.0,0.0,0.0,0.0,0.0,0.0,0.0,0.0,0.0,0.0,0.0,0.0,0.0,0.0,0.0,0.0,0.0,0.0,0.0,2.1907,2.0793,2.0867,0.0,0.0,0.0,0.0,0.0,0.0,0.0,0.0,0.0,2.5071,2.5513,2.6143,0.0,0.0,2.6841,2.8865,2.6812,2.4515,2.2997,2.23,0.0,2.0504,1.9678,1.9022,1.8552,1.6616,1.4483,1.2497,1.2596,1.2629,1.1705,1.1218,1.0773,1.043,0.9873,0.962,0.9636,1.0051,1.0449,1.0659,1.0694,1.1015,2.6217,2.6379,2.6601,2.6863,2.715,2.7326,2.782,2.8529,2.8539,2.8686,2.8983,2.8975,2.8652,2.8136,2.7508,0.0,0.0,0.0,2.5706,2.5239,2.541,2.5547,2.5691,2.6203,2.6445,2.6503,2.7281,2.7682,2.7697,2.7998,2.4627,1.7927,0.0,0.0,1.3067,0.7324,0.4577,0.4525,-0.3306,-0.7676,-0.7942,-0.8446,-0.8782,-0.9066,-0.9816,-1.0643,-1.1627,-1.2777,-1.3789,-1.4579,-1.4823,-1.487,0.0,0.0,0.0,0.0,0.0,0.0,0.0,0.0,0.0,0.0,0.0,1.0832,1.3246,0.0,0.0,0.0,2.0305,2.1032,2.1761,2.1798,0.0,0.0,0.0,0.0,0.0,0.0,0.0,2.5855,2.6051,2.593,2.5095,2.5132,2.5374,2.5725,2.5575,2.5941,2.7273,0.0,2.4508,2.3366,2.2694,2.2133,2.1579,2.0798,1.9858,1.879,1.7253,1.5539,1.3684,1.3644,1.3623,1.2842,1.2349,1.2066,1.1931,1.1589,1.108,1.04,1.0521,1.0783,1.0694,1.0459,1.0494,2.6804,2.6736,2.595,2.6158,2.6991,2.7008,2.7443,2.8091,2.8042,2.849,2.9274,2.9174,2.9156,2.9109,2.7556,0.0,2.6876,2.6018,2.5671,2.5719,2.5664,2.5606,2.5605,2.5609,2.5605,2.5618,2.642,2.6796,2.6826,2.7586,2.7539,2.6711,2.657,2.3666,1.8107,1.2848,0.9869,0.9107,-0.1411,-0.7201,-0.7725,-0.8429,-0.8979,-0.9298,-0.9891,-1.0729,-1.1853,-1.2635,-1.3685,-1.5012,-1.5394,-1.5645,-1.5879,0.0,0.0,0.0,0.0,0.0,0.0,0.0,0.0,0.0,0.0,0.0,0.0,0.0,0.0,0.0,2.0713,0.0,2.1096,2.3264,0.0,0.0,0.0,2.6513,2.5348,2.6191,2.6553,2.5782,0.0,0.0,2.5615,2.4955,2.4507,2.4507,2.5122,2.5319,2.454,2.4988,2.4913,2.3818,2.3153,2.2694,2.2325,2.1488,2.0275,1.8726,1.7672,1.6676,1.5446,1.4949,1.4515,1.4,1.3621,1.3223,1.2686,1.2808,1.2672,1.1669,1.1423,1.136,1.1309,1.0567,1.0332,2.5983,2.5974,2.5759,2.6532,2.7884,2.7889,2.8003,2.8173,2.8166,2.8259,2.8411,2.8376,2.8414,2.8435,2.803,2.7856,2.7821,2.697,2.6718,2.6917,2.6064,2.5668,2.5671,2.5629,2.5601,2.5627,2.5808,2.592,2.5926,2.6111,2.608,2.5826,2.5733,2.4875,2.3152,1.7866,1.3032,0.8777,-0.1576,-0.7319,-0.8142,-0.8685,-0.9148,-0.9545,-1.0005,-1.0731,-1.1701,-1.2812,-1.363,-1.4206,-1.4712,-1.4833,-1.452,-1.3852,0.0,0.0,0.0,0.0,0.0,0.0,0.0,0.0,0.0,1.6279,1.8038,0.0,2.0784,0.0,2.1114,2.2112,2.3502,2.3731,0.0,0.0,2.6046,2.6294,2.5667,2.6176,2.6316,2.5545,2.5616,2.5457,2.4871,2.4703,2.4645,2.4654,2.4733,2.4589,2.4051,2.4386,2.4588,2.4115,2.3159,2.252,2.241,2.1617,2.0567,1.9566,1.8849,1.7888,1.6397,1.61,1.6001,1.574,1.4756,1.4075,1.4081,1.3841,1.3595,1.3469,1.2923,1.2366,1.2322,1.1509,1.1169,2.566,2.5656,2.561,2.616,2.704,2.708,2.709,2.7089,2.708,2.7265,2.7597,2.7952,2.8113,2.8121,2.7761,2.7587,2.7563,2.6743,2.6471,2.6607,2.5994,2.5697,2.5698,2.5671,2.5632,2.5609,2.5603,2.5609,2.561,2.5629,2.5605,2.5512,2.5444,2.5322,2.4844,1.9829,1.4387,0.8669,-0.1876,-0.7639,-0.8291,-0.8633,-0.9041,-0.9596,-1.0035,-1.0721,-1.1688,-1.258,-1.3265,-1.3688,-1.4299,-1.4654,-1.4731,-1.3946,-1.0788,0.0,0.0,0.0,0.0,0.0,0.0,0.0,0.0,0.0,0.0,0.0,2.0793,2.0768,2.1442,2.2497,2.3867,2.3942,2.4147,2.4835,2.5578,2.5848,2.5356,2.5741,2.5752,2.5087,2.5097,2.5027,2.4648,2.4654,2.4563,2.4265,2.4494,2.4531,2.4163,2.3953,2.3621,2.3257,2.2538,2.1878,2.1639,2.1347,2.0817,1.9958,1.9521,1.8905,1.7639,1.7205,1.6937,1.6446,1.5781,1.5207,1.5034,1.4852,1.4749,1.4801,1.4498,1.3961,1.349,1.2947,1.2797,2.5606,2.5613,2.5547,2.5571,2.561,2.567,2.57,2.5683,2.5668,2.6066,2.6767,2.7457,2.7776,2.7729,2.6992,2.668,2.6693,2.6009,2.5697,2.5693,2.5693,2.5701,2.5697,2.5695,2.5642,2.5586,2.5604,2.5604,2.5605,2.5667,2.5634,2.5509,2.5511,2.5347,2.4844,2.0717,1.5352,0.8826,-0.2078,-0.7939,-0.8322,-0.8386,-0.8818,-0.9606,-1.003,-1.0669,-1.1628,-1.226,-1.2888,-1.3505,-1.4121,-1.4713,-1.5377,-1.4153,-1.0573,0.0,-0.187,0.0,0.0,0.0,0.0,0.0,0.0,0.0,0.0,2.0663,2.074,2.0997,2.1923,2.2792,2.345,2.4064,2.4469,2.4509,2.5056,2.5249,2.4743,2.4987,2.502,2.4495,2.45,2.4556,2.4686,2.4644,2.4332,2.3833,2.4111,2.4378,2.4171,2.3123,2.2151,2.1692,2.1577,2.1363,2.0683,2.0897,2.0925,2.0003,1.9917,1.9728,1.8632,1.8046,1.7533,1.6769,1.662,1.6435,1.5641,1.5736,1.5818,1.5824,1.5614,1.5256,1.4692,1.4449,1.4463,2.5681,2.5672,2.567,2.567,2.5681,2.5693,2.5669,2.5619,2.5575,2.5628,2.5787,2.5987,2.6081,2.6057,2.5906,2.5853,2.5931,2.5765,2.5697,2.5693,2.5693,2.5701,2.5697,2.5636,2.5589,2.5515,2.5574,2.5603,2.5603,2.5668,2.5634,2.5518,2.5511,2.54,2.5122,0.0,0.0,0.0,-0.1752,-0.7573,-0.8335,-0.8301,-0.8808,-0.9852,-1.0185,0.0,-1.1542,-1.2564,-1.3361,-1.3808,-1.4237,0.0,0.0,0.0,0.0,0.0,0.0,0.0,0.0,0.0,0.0,0.0,2.182,2.1357,2.0438,2.1221,2.1956,2.2337,2.3039,2.3703,2.416,2.4508,2.4615,2.4383,2.4612,2.4542,2.3986,2.4128,2.4224,2.4182,2.4452,2.4676,2.4676,2.4278,2.3933,2.3743,2.3434,2.3175,2.3044,2.1527,2.0336,2.0186,2.0976,2.1302,2.0388,2.0566,2.0633,2.0017,2.0293,2.0034,1.8861,1.8216,1.8054,1.7882,1.7323,1.6777,1.661,1.6454,1.6201,1.6188,1.5648,1.5246,1.5469,1.5529,1.5532,2.5623,2.5632,2.5627,2.5625,0.0,2.5648,2.5634,2.5606,2.5602,2.5597,2.5592,2.5601,2.5607,2.5607,2.5636,2.5661,2.5697,2.5697,2.5702,2.5693,2.5693,2.5701,2.5697,2.5666,2.5607,2.5514,2.5571,2.5609,2.5607,2.5668,2.5625,2.5511,2.5511,2.5382,2.5082,2.2586,1.7204,0.8967,-0.1687,-0.7466,-0.8081,-0.8227,-0.8578,-0.9328,-1.0089,0.0,0.0,0.0,0.0,0.0,0.0,0.0,0.0,0.0,0.0,0.5127,0.6641,1.1878,2.2232,2.2436,2.2064,2.246,2.2342,2.1936,2.1242,2.2034,2.2636,2.2872,2.3306,2.3692,2.3969,2.3977,2.3955,2.3966,2.4045,2.4041,2.4019,2.409,2.4237,2.4463,2.4676,2.4828,2.4869,2.4255,2.368,2.3359,2.3006,2.2422,2.1579,2.059,1.9873,1.9733,2.0229,2.0539,2.0021,2.0313,2.0423,1.9952,2.0195,2.0246,1.9626,1.9392,1.9045,1.8121,1.7741,1.7644,1.6461,1.6345,1.6395,1.6134,1.5545,1.5215,1.5605,1.5758,1.561,2.5566,2.5615,2.5545,2.5564,2.5625,2.561,2.5606,2.5621,0.0,0.0,0.0,2.5641,2.561,2.5632,2.5665,2.5697,2.5694,2.5692,2.5693,2.5693,2.5693,2.5687,2.5664,2.5673,2.5607,2.5486,2.5547,2.56,2.5587,2.5498,2.5372,2.5263,2.5107,2.497,2.4503,1.8859,1.3595,0.8823,-0.0655,-0.6267,-0.7567,-0.7961,-0.8296,-0.863,-0.9709,-1.0238,-1.0154,-1.0916,-1.1333,-1.1162,-1.0902,-1.089,-1.1127,-0.8619,-0.2902,0.6138,0.8621,1.3887,2.3476,2.3476,2.3076,2.323,2.2996,2.2695,2.2308,2.2691,2.3005,2.3121,2.3258,2.3391,2.3559,2.3376,2.3362,2.3674,2.375,2.3946,2.434,2.4407,2.4539,2.4842,2.4906,2.4908,2.4807,2.4134,2.338,2.2736,2.2315,2.1837,2.0592,2.024,2.0045,1.9856,1.9974,1.9814,1.9656,2.0024,2.0206,1.9678,1.9915,2.018,2.0203,2.0221,1.9392,1.7448,1.7973,1.7654,1.6318,1.6292,1.6437,1.6068,1.5511,1.5076,1.5208,1.5255,1.5008,2.5674,2.5684,2.5684,2.5683,2.5693,2.5692,2.57,2.5669,2.5641,2.5609,2.5617,2.5671,2.5683,2.5691,2.5693,2.5693,2.5693,2.5693,2.5702,2.5701,2.5701,2.5645,2.5545,2.5529,2.5493,2.5424,2.5471,2.5535,2.5508,2.4783,2.4387,2.4271,2.3584,2.3484,2.3258,1.4617,0.9709,0.9355,0.351,-0.195,-0.6786,-0.7342,-0.7814,-0.8345,-0.9034,-0.964,-1.0177,-1.0902,-1.126,-1.1122,-1.0946,-1.05,-0.9418,-0.3923,0.2172,0.8158,1.3234,1.8472,2.3691,2.3933,2.3835,2.3883,2.3825,2.3459,2.2635,2.2738,2.2963,2.3232,2.3353,2.3381,2.3442,2.3594,2.3801,2.409,2.4282,2.4496,2.4776,2.4804,2.4842,2.4896,2.5,2.4799,2.4283,2.3532,2.279,2.1919,2.1336,2.0573,2.0494,2.0344,2.0212,2.0085,2.0138,2.0094,1.9915,1.9952,1.9936,1.9418,1.9459,1.9493,1.926,1.8868,1.8278,1.7228,1.7136,1.6902,1.6877,1.6752,1.6514,1.6168,1.547,1.4801,1.4437,1.3876,1.3458,2.5663,2.5693,2.5664,2.5662,2.5694,2.5701,2.5694,2.57,2.5664,2.5644,2.5654,2.5701,2.57,2.5702,2.5698,2.5699,2.5692,2.5692,2.5669,2.5654,2.5632,2.5582,2.546,2.5011,2.4781,2.4724,2.4297,2.4116,2.4148,2.3753,2.3537,2.3466,2.2974,2.2882,2.2675,1.6339,1.1695,0.9151,0.1423,-0.3943,-0.6626,-0.7094,-0.7418,-0.7731,-0.8399,-0.8892,-0.9175,-0.9616,-0.9761,-0.9496,-0.9077,-0.8368,-0.7089,-0.1323,0.4366,0.9507,1.4951,1.9957,2.4429,2.4441,2.4229,2.4169,2.4124,2.3955,2.356,2.3514,2.3572,2.3714,2.3698,2.3742,2.3861,2.3986,2.4201,2.4496,2.4611,2.4761,2.4962,2.5,2.5034,2.5115,2.5192,2.512,2.4754,2.3667,2.2806,2.2252,2.1166,2.0365,2.0474,2.0454,2.0366,2.0227,2.0263,2.0238,2.012,2.0148,2.0031,1.9722,1.9628,1.9444,1.9145,1.8743,1.8538,1.8322,1.783,1.7384,1.7333,1.7127,1.6849,1.6321,1.547,1.4802,1.4528,1.3652,1.232,2.5642,2.5693,2.5644,2.5651,2.5697,2.5697,2.5696,2.5702,2.5694,2.5697,2.5697,2.5697,2.5699,2.5693,2.5693,2.5696,2.5677,2.5687,2.5637,2.558,2.5583,2.5454,2.5129,2.4425,2.4019,2.3827,2.3193,2.2924,2.2951,2.2772,2.252,2.2307,2.2212,2.178,2.0881,1.6674,1.2277,0.7466,-0.1383,-0.61,-0.6173,-0.6655,-0.6938,-0.7014,-0.7798,-0.825,-0.824,-0.8491,-0.838,-0.7806,-0.7171,-0.5843,-0.3534,0.1842,0.7166,1.2056,1.7169,2.1544,2.4753,2.4816,2.4545,2.4468,2.4411,2.4397,2.4435,2.4381,2.4288,2.4201,2.4118,2.4181,2.4342,2.4376,2.4519,2.4804,2.4861,2.4958,2.5126,2.5191,2.5223,2.5332,2.5387,2.5365,2.4956,2.3855,2.2779,2.2132,2.1159,2.0459,2.0486,2.0513,2.0449,2.0384,2.0343,2.0325,2.0321,2.0308,2.0214,2.006,1.9936,1.9711,1.9461,1.9357,1.9339,1.9237,1.8983,1.8327,1.7537,1.7328,1.7161,1.6626,1.5817,1.5146,1.4878,1.3888,1.203,2.5693,2.5701,2.5701,2.5699,2.5697,2.5697,2.5699,2.5699,2.5697,2.5697,2.5697,2.5697,2.5697,2.5699,2.5701,2.5664,2.5626,2.5612,2.5563,2.5492,2.5511,2.5052,2.4258,2.3872,2.3477,2.2988,2.2831,2.2753,2.2706,2.202,2.1244,2.0537,2.0504,1.9116,1.5976,1.1258,0.7161,0.391,-0.2245,-0.5217,-0.4923,-0.5746,-0.6207,-0.6196,-0.7139,-0.7819,-0.7948,-0.8258,-0.7984,-0.7004,-0.6227,-0.3444,0.164,0.738,1.2567,1.6856,2.1914,2.5031,2.5176,2.4997,2.4864,2.492,2.4902,2.4902,2.4903,2.4962,2.4841,2.457,2.4566,2.462,2.4657,2.467,2.4775,2.4974,2.5043,2.5149,2.5313,2.5424,2.5468,2.5466,2.5476,2.5226,2.4613,2.3657,2.245,2.1269,2.0789,2.0523,2.0626,2.054,2.0582,2.0514,2.0457,2.0415,2.0428,2.0374,2.0276,2.0127,2.0086,1.9926,1.9724,1.9607,1.954,1.9529,1.9401,1.8968,1.8267,1.7715,1.728,1.703,1.637,1.5664,1.4711,1.3963,1.2589,2.5698,2.5698,2.5701,2.5693,2.5693,2.5693,2.5693,2.5693,2.5693,2.5693,2.5693,2.5701,2.5671,2.5629,2.5649,2.5605,2.5547,2.5542,2.5249,2.4826,2.5253,2.4728,2.3387,2.2896,2.248,2.2055,2.1608,2.136,2.1306,2.0981,2.0579,2.0244,2.0269,1.9562,1.7733,1.1365,0.7316,0.601,-0.0858,-0.4317,-0.4193,-0.505,-0.55,-0.5438,-0.5987,-0.6414,-0.6684,-0.675,-0.6473,-0.5916,-0.5097,-0.3323,-0.0444,0.7121,1.2395,1.4865,2.1524,2.544,2.5272,2.5152,2.5084,2.5126,2.5089,2.5067,2.5059,2.5122,2.5088,2.5012,2.5038,2.5063,2.5103,2.5105,2.5158,2.5224,2.5264,2.5331,2.5452,2.5485,2.5511,2.5511,2.5515,2.5431,2.4953,2.3895,2.2646,2.1454,2.0886,2.0654,2.11,2.0874,2.079,2.1086,2.0838,2.0494,2.0483,2.0451,2.0371,2.0305,2.0265,2.0179,2.0068,2.0021,1.9978,1.9847,1.9708,1.9415,1.884,1.837,1.7926,1.7547,1.6971,1.6225,1.512,1.4724,1.3963,2.57,2.57,2.5696,2.5696,2.5696,2.5696,2.5696,2.5696,2.5696,2.5696,2.5696,2.5662,2.5613,2.5532,2.5352,2.5313,2.5412,2.5008,2.47,2.4484,2.4728,2.3966,2.2618,2.1831,2.1407,2.1172,2.0648,2.0316,2.0275,2.0236,2.0227,2.0214,2.0267,1.9695,1.7944,1.1505,0.7634,0.5962,-0.0311,-0.3615,-0.3696,-0.4295,-0.4634,-0.465,-0.496,-0.5288,-0.5612,-0.5528,-0.54,-0.5216,-0.4398,-0.3378,-0.2101,0.5854,1.2089,1.5968,2.1846,2.547,2.5348,2.5318,2.5287,2.53,2.5252,2.5207,2.5206,2.5254,2.5301,2.5339,2.5356,2.5363,2.5378,2.5387,2.5395,2.5393,2.5392,2.5435,2.5485,2.5512,2.5541,2.5541,2.5539,2.5444,2.5145,2.4195,2.3093,2.1946,2.1058,2.0835,2.1724,2.189,2.2135,2.1875,2.1245,2.0825,2.058,2.0492,2.0467,2.0445,2.041,2.0398,2.0352,2.0329,2.0315,2.0089,1.994,1.9725,1.9315,1.8944,1.8446,1.8031,1.755,1.697,1.6257,1.5931,1.5676,2.57,2.57,2.57,2.5697,2.57,2.569,2.5697,2.5681,2.5687,2.5678,2.56,2.5508,2.545,2.5253,2.4554,2.4712,2.5116,2.3813,2.3827,2.4762,2.3654,2.2634,2.1982,2.0861,2.0344,2.0456,2.0361,2.0256,2.02,2.015,2.0133,2.0207,2.0258,1.8431,1.5086,1.1052,0.6832,0.3414,-0.0885,-0.3214,-0.349,-0.3412,-0.3584,-0.3945,-0.434,-0.4752,-0.5114,-0.5184,-0.5165,-0.502,-0.4349,-0.3358,-0.1479,0.4668,1.3354,2.2831,2.5138,2.5558,2.5492,2.5475,2.549,2.5542,2.5508,2.5473,2.545,2.5457,2.547,2.5492,2.5474,2.5458,2.5422,2.5416,2.541,2.541,2.5422,2.5456,2.5509,2.5556,2.5595,2.5603,2.559,2.5375,2.4659,2.4409,2.3559,2.2284,2.1123,2.0889,2.206,2.3807,2.4002,2.2498,2.1747,2.1533,2.0738,2.051,2.0514,2.049,2.0477,2.048,2.0428,2.0386,2.0375,2.0311,2.0088,1.989,1.9704,1.9311,1.8717,1.8338,1.8148,1.7671,1.7305,1.71,1.6978,2.5694,2.5697,2.5694,2.5646,2.5571,2.5576,2.5547,2.5517,2.55,2.5189,2.4731,2.4626,2.4263,2.3635,2.2815,2.3179,2.4245,2.3255,2.2918,2.314,2.2879,2.2121,2.0865,2.0387,2.0204,2.023,2.0198,2.0153,2.0135,2.0116,2.0143,2.0193,2.0309,1.951,1.7337,1.2007,0.8101,0.6207,0.0501,-0.2946,-0.2907,-0.2993,-0.3151,-0.3247,-0.3748,-0.4036,-0.4071,-0.4343,-0.4421,-0.4306,-0.3408,-0.2659,-0.1135,0.7916,1.5714,2.0799,2.4005,2.5558,2.5512,2.5537,2.557,2.5609,2.5617,2.5603,2.5574,2.5564,2.5563,2.5567,2.5561,2.5542,2.5533,2.5526,2.5526,2.5526,2.5535,2.5539,2.5574,2.5623,2.5641,2.5613,2.5634,2.5524,2.5194,2.4756,2.4168,2.3445,2.1824,2.1462,2.2585,2.4441,2.4715,2.2673,2.1841,2.1549,2.0722,2.0542,2.0503,2.051,2.0496,2.0487,2.0448,2.0425,2.0413,2.0432,2.0229,2.003,1.9861,1.9553,1.8988,1.8735,1.8555,1.8457,1.8354,1.8006,1.8138,2.5634,2.561,2.5605,2.5389,2.5079,2.5056,2.4875,2.4585,2.4544,2.4196,2.3744,2.3639,2.3263,2.2614,2.1751,2.1933,2.2897,2.222,2.1953,2.2134,2.2009,2.1281,2.0324,2.0171,2.018,2.0197,2.0126,2.0108,2.0117,2.0098,2.0125,2.0212,2.033,1.9756,1.7847,1.2341,0.8853,0.6529,0.0855,-0.2502,-0.2549,-0.2861,-0.3043,-0.3013,-0.3263,-0.341,-0.3332,-0.3582,-0.3776,-0.3685,-0.3069,-0.2347,-0.0697,0.8204,1.5483,1.8845,2.3144,2.5591,2.558,2.5609,2.5636,2.5632,2.5671,2.5676,2.5647,2.5642,2.5639,2.5634,2.5621,2.5623,2.5633,2.5623,2.5621,2.5603,2.5609,2.5611,2.5644,2.5662,2.5665,2.5641,2.5664,2.5693,2.5633,2.5179,2.4739,2.4478,2.3002,2.2818,2.351,2.4058,2.4556,2.303,2.28,2.2049,2.1059,2.0526,2.0478,2.0469,2.0078,2.016,2.0502,2.0478,2.0475,2.0496,2.0409,2.0207,1.9974,1.9688,1.943,1.9167,1.905,1.8945,1.8869,1.8798,1.8803,2.5509,2.542,2.5394,2.4919,2.4255,2.4197,2.3645,2.3024,2.2874,2.2885,2.2731,2.2642,2.2527,2.2336,2.148,2.1286,2.1248,2.0659,2.1071,2.2154,2.0948,2.0251,2.0012,2.006,2.0108,2.0164,2.0117,2.0136,2.0146,2.006,2.0069,2.0198,1.9815,1.8188,1.5276,1.1483,0.7742,0.4421,0.045,-0.1876,-0.2552,-0.2777,-0.2958,-0.296,-0.2968,-0.3031,-0.3107,-0.3076,-0.3203,-0.3541,-0.3492,-0.2518,-0.0217,0.4935,1.1074,1.7721,2.282,2.5176,2.5678,2.5698,2.5689,2.5684,2.5695,2.5691,2.5691,2.5697,2.57,2.5702,2.5702,2.5691,2.5683,2.5683,2.5662,2.5608,2.5606,2.5629,2.5681,2.5701,2.5693,2.5692,2.5698,2.5694,2.5694,2.559,2.527,2.4802,2.4803,2.4771,2.4284,2.4028,2.373,2.3947,2.3684,2.274,2.1557,2.0504,2.0457,2.0342,1.977,1.9572,2.0312,2.0547,2.0544,2.0557,2.0458,2.0276,2.0109,1.9852,1.9728,1.9521,1.9467,1.9337,1.9206,1.9093,1.9091,2.5401,2.5376,2.5298,2.4726,2.3946,2.3899,2.335,2.2492,2.2483,2.2178,2.1692,2.1578,2.127,2.0745,2.0377,2.029,2.0252,2.0007,2.0268,2.0688,2.0245,1.9967,1.9951,1.9951,1.9939,1.9926,1.9946,1.9946,1.9954,1.9982,2.0068,1.9725,1.708,1.5526,1.4726,1.0154,0.6635,0.5348,0.1486,-0.0715,-0.0894,-0.1701,-0.2105,-0.2196,-0.2649,-0.2898,-0.2938,-0.2289,-0.2513,-0.3475,-0.2818,-0.1802,-0.04,0.0954,0.5789,1.3595,1.8609,2.2669,2.5301,2.5695,2.5696,2.57,2.5699,2.57,2.5693,2.5693,2.5693,2.5693,2.5698,2.5702,2.5701,2.5699,2.5684,2.5671,2.5672,2.5672,2.57,2.5698,2.5697,2.5694,2.5693,2.5693,2.5694,2.5697,2.557,2.534,2.5519,2.5361,2.4656,2.4605,2.4202,2.3796,2.3525,2.3143,2.1667,2.0408,1.9938,1.973,1.9246,1.9424,2.0145,2.0586,2.0593,2.0564,2.0468,2.0356,2.0203,2.0067,1.9933,1.9828,1.9698,1.9563,1.9429,1.9364,1.9351,2.5216,2.5167,2.5094,2.4335,2.3265,2.3201,2.2492,2.1465,2.136,2.1059,2.064,2.0545,2.0276,1.9854,1.977,1.977,1.9779,1.9735,1.9801,1.9891,1.9877,1.9863,1.9841,1.9894,1.9904,1.9837,1.9849,1.9835,1.9788,1.9908,2.0033,1.9409,1.7195,1.476,1.3342,1.047,0.7782,0.4179,0.1364,0.0179,0.0045,-0.0627,-0.1075,-0.1164,-0.1704,-0.2064,-0.2029,-0.196,-0.2062,-0.2148,-0.1476,-0.0952,-0.0553,-0.0461,0.3072,1.1064,1.6567,2.1,2.4958,2.5697,2.5697,2.5693,2.5693,2.5693,2.5693,2.5692,2.5701,2.5698,2.5694,2.5701,2.5701,2.5699,2.5697,2.5697,2.5699,2.5697,2.5695,2.5669,2.5654,2.5654,2.5639,2.5629,2.5654,2.5659,2.5671,2.5671,2.5654,2.5566,2.5093,2.5298,2.4485,2.3852,2.3793,2.2952,2.1503,2.0422,1.95,1.9066,1.8649,1.9328,2.012,2.0436,2.0558,2.0556,2.0492,2.0431,2.0282,2.0226,2.012,2.0031,1.9927,1.9862,1.9734,1.9611,1.9595,2.4977,2.4724,2.471,2.3663,2.221,2.2107,2.1301,1.9959,1.9741,1.9773,1.9711,1.9731,1.968,1.9669,1.9637,1.9647,1.966,1.9592,1.9681,1.9781,1.9767,1.9718,1.9641,1.9707,1.9728,1.9728,1.9688,1.9663,1.9593,1.9744,1.9863,1.9516,1.8448,1.619,1.1168,1.1623,0.742,0.1368,0.0579,0.0806,0.0806,0.0358,0.0045,0.0045,-0.0358,-0.0583,-0.0682,-0.1573,-0.1627,-0.0304,0.0,-0.0223,-0.0379,-0.0698,0.2987,1.0211,1.5554,1.9935,2.3773,2.5468,2.5693,2.5692,2.5693,2.5692,2.5693,2.57,2.5697,2.5683,2.5676,2.5681,2.5671,2.5698,2.5688,2.5671,2.5659,2.5673,2.5691,2.5639,2.5615,2.5588,2.5552,2.5537,2.5604,2.5603,2.5607,2.5611,2.5605,2.5533,2.5133,2.4876,2.4563,2.3762,2.2556,2.1356,1.9496,2.0606,1.9709,1.9095,1.8566,1.884,1.9583,1.9883,2.0531,2.0551,2.0527,2.0455,2.0395,2.0327,2.0273,2.0179,2.0123,2.0126,2.0031,1.9858,1.9809,2.4365,2.378,2.3661,2.2635,2.1202,2.109,2.0502,1.9507,1.9444,1.9509,1.944,1.9398,1.9485,1.9431,1.9459,1.9416,1.9497,1.9448,1.9718,2.0088,1.9746,1.9422,1.925,1.9291,1.9298,1.92,1.9207,1.9052,1.9176,1.9301,1.9039,1.8295,1.5252,1.2124,0.9114,0.6233,0.3014,0.0885,0.1302,0.175,0.1658,0.1435,0.112,0.0895,0.0851,0.0864,0.094,0.01,-0.0409,0.0,0.0,0.0,-0.0162,-0.0574,0.065,0.3697,0.83,1.399,1.9791,2.3754,2.542,2.5699,2.5593,2.5693,2.5701,2.5696,2.568,2.5632,2.5623,2.5603,2.5575,2.5644,2.561,2.5464,2.5553,2.5626,2.5623,2.561,2.5605,2.5595,2.5571,2.5571,2.5586,2.5604,2.5599,2.56,2.5526,2.5187,2.4381,2.1673,2.0199,2.0044,1.919,1.8378,1.8124,1.9603,1.9976,1.9303,1.8679,1.8096,1.8605,1.8877,1.9815,2.056,2.0535,2.0473,2.045,2.0404,2.0352,2.0296,2.0229,2.0175,2.0115,1.9993,1.9993,2.4211,2.3717,2.3617,2.2808,2.1649,2.1552,2.1051,2.0343,2.0209,2.0193,2.0211,2.0185,2.0194,2.0168,2.0143,2.0099,2.0091,2.0029,2.0255,2.0526,2.0285,2.0081,2.002,1.9965,1.9813,1.9609,1.944,1.939,1.933,1.917,1.8823,1.8137,1.5031,1.2359,1.0339,0.6942,0.376,0.2884,0.3234,0.3435,0.2646,0.241,0.2157,0.1837,0.1746,0.1723,0.1678,0.116,0.062,0.0,0.0,-0.0054,-0.016,-0.0495,0.0051,0.1712,0.5331,0.9924,1.547,2.0356,2.2699,2.3306,2.4271,2.5564,2.5658,2.5659,2.5632,2.5605,2.56,2.5586,2.5566,2.5614,2.5578,2.5488,2.5512,2.5561,2.5564,2.5523,2.5523,2.5529,2.5529,2.5529,2.5546,2.5542,2.5517,2.5469,2.5051,2.3999,2.2478,1.8662,1.5685,1.554,1.6323,1.6115,1.6555,1.7955,1.8871,1.8426,1.9329,1.8554,1.8378,1.8635,1.9583,2.0509,2.0507,2.0498,2.0482,2.0458,2.0422,2.0355,2.0289,2.0236,2.018,2.0153,2.0156,2.4192,2.4003,2.3926,2.3405,2.2555,2.2532,2.1886,2.1479,2.1222,2.1239,2.1248,2.13,2.1063,2.1317,2.0885,2.1059,2.1021,2.0758,2.0864,2.0942,2.0996,2.1123,2.115,2.0755,2.044,2.0152,2.0258,1.9898,1.9461,1.9117,1.8862,1.8071,1.7156,1.5188,1.1886,1.0243,0.8275,0.5458,0.5132,0.4841,0.3792,0.3466,0.3234,0.3015,0.2603,0.2307,0.2142,0.1754,0.1343,0.058,0.0219,-0.0,-0.0268,-0.0385,0.0938,0.3309,0.4326,0.6567,1.0665,1.46,1.8497,1.9631,2.2933,2.5343,2.5373,2.5596,2.5589,2.558,2.558,2.5568,2.5562,2.5579,2.556,2.5514,2.5502,2.548,2.5483,2.5452,2.5439,2.5479,2.543,2.5447,2.5391,2.5074,2.4641,2.2815,2.2143,1.9826,1.788,1.4744,1.2261,1.1044,1.2364,1.416,1.5071,1.6272,1.6947,1.7378,1.9321,1.9575,1.9085,1.9325,1.9963,2.0434,2.0472,2.0497,2.0508,2.0479,2.0461,2.0437,2.0366,2.0334,2.031,2.0285,2.0269,2.3241,2.2629,2.2608,2.2189,2.159,2.1417,2.1343,2.1229,2.1108,2.1155,2.1048,2.0985,2.099,2.0981,2.0974,2.0776,2.0845,2.0826,2.0729,2.0931,2.184,2.197,2.1659,2.0934,2.0026,1.9588,1.9405,1.9225,1.8913,1.859,1.7937,1.7067,1.5778,1.3576,1.1719,0.9996,0.8038,0.6643,0.6109,0.5707,0.524,0.4682,0.4447,0.429,0.3959,0.3553,0.3083,0.2803,0.2403,0.1719,0.1055,0.0593,0.0,-0.044,-0.0,0.0581,0.0882,0.1266,0.282,0.763,1.2892,1.7268,1.9474,2.1893,2.5367,2.5257,2.5358,2.5509,2.5469,2.5377,2.4763,2.5234,2.5067,2.4928,2.461,2.4942,2.5419,2.5334,2.5058,2.516,2.4943,2.534,2.496,2.1591,2.0686,2.0037,1.7947,1.5147,1.2936,1.0847,0.8898,0.7288,0.7234,0.8727,0.9718,1.1517,1.3824,1.41,1.5932,1.8024,1.7615,1.7719,1.7494,1.8763,2.0472,2.0401,2.0077,2.0508,2.0487,2.0465,2.0447,2.0405,2.0373,2.0374,2.0367,2.3104,2.2726,2.2649,2.2419,2.21,2.1942,2.1896,2.1882,2.1844,2.1803,2.177,2.1731,2.1699,2.1699,2.1552,2.1461,2.1394,2.1302,2.1335,2.1505,2.2006,2.2,2.1682,2.0957,2.0179,1.9784,1.9578,1.9263,1.885,1.8312,1.777,1.694,1.5308,1.4368,1.2929,1.0933,0.9986,0.9146,0.7984,0.7211,0.6774,0.6244,0.5708,0.5522,0.5326,0.4986,0.4344,0.4262,0.3931,0.3369,0.2764,0.1831,0.0751,0.022,-0.0112,-0.0561,-0.0616,-0.0763,0.0398,0.1981,0.5409,0.9807,1.4393,1.8977,2.1601,2.2415,2.3649,2.4854,2.5189,2.463,2.1943,2.4455,2.4261,2.141,2.0135,2.0952,2.4005,2.3707,2.2365,2.1886,2.0162,1.93,1.8106,1.7449,1.6689,1.6075,1.4759,1.2125,1.0611,0.8425,0.559,0.3845,0.2749,0.2924,0.3838,0.6215,1.0086,1.0207,1.0194,1.2171,1.309,1.3483,1.3947,1.5743,1.7615,1.9362,1.9334,1.987,2.0439,2.0484,2.0454,2.043,2.04,2.0371,2.0363,2.3168,2.3144,2.3045,2.2986,2.2977,2.2816,2.2678,2.2704,2.2729,2.2522,2.2694,2.2651,2.2401,2.252,2.2255,2.2205,2.2068,2.1881,2.1657,2.1782,2.1698,2.1579,2.1214,2.0719,2.0341,2.0637,1.9894,1.9322,1.8777,1.8259,1.7689,1.7253,1.6213,1.5112,1.4671,1.3522,1.1962,1.1201,1.0003,0.91,0.8489,0.7892,0.7288,0.692,0.6759,0.6453,0.597,0.5767,0.5554,0.514,0.4906,0.3761,0.2387,0.1318,0.1064,0.0168,0.0224,0.0166,-0.0054,0.0148,0.0673,0.0565,0.878,1.5462,1.7459,1.8284,1.9965,2.2673,2.39,2.2956,1.8467,1.9649,2.0326,1.8011,1.4742,1.7012,2.1128,2.0442,1.8518,1.8821,1.7127,1.5411,1.4486,1.3755,1.2899,1.1965,1.0593,0.9147,0.756,0.5979,0.3207,0.1696,0.0909,0.0271,0.0979,0.1585,0.5341,0.6074,0.5411,0.659,0.7832,0.6616,0.7271,1.1992,1.4278,1.6167,1.8352,1.9577,2.0046,2.0311,2.0469,2.0457,2.041,2.0362,2.0375,2.2506,2.2468,2.2424,2.2497,2.2588,2.246,2.2443,2.2508,2.2415,2.2394,2.2349,2.2296,2.2215,2.2113,2.2019,2.1845,2.162,2.1454,2.1355,2.1356,2.1237,2.1015,2.0545,1.9993,1.9647,1.9491,1.9141,1.8681,1.8259,1.7747,1.7373,1.6915,1.638,1.5718,1.4801,1.3847,1.3009,1.2244,1.1142,1.0341,1.0011,0.9481,0.8955,0.8597,0.843,0.8055,0.7665,0.7306,0.6976,0.6519,0.6334,0.5851,0.4906,0.3356,0.2383,0.1835,0.1728,0.1673,0.1873,0.1416,0.3055,0.5586,0.8342,1.0843,1.3251,1.4277,1.6507,1.9456,2.1826,2.1866,2.0577,1.8039,1.6179,1.6021,1.6794,1.7443,1.7864,1.6093,1.5237,1.7008,1.4715,1.1996,1.1074,1.0129,0.9232,0.7973,0.6353,0.4812,0.3137,0.2247,0.1032,0.0088,-0.0395,-0.096,-0.1169,-0.0959,0.055,0.1403,0.1334,0.1591,0.1659,-0.1009,0.0247,0.5209,1.0215,1.3523,1.5806,1.7901,1.8525,1.7958,1.9015,2.0084,1.9847,1.9427,2.0363,2.2338,2.2274,2.22,2.2195,2.2198,2.2089,2.204,2.2081,2.2011,2.1999,2.197,2.1894,2.1789,2.1691,2.1579,2.1386,2.115,2.1031,2.087,2.0684,2.0641,2.0247,1.9756,1.9134,1.888,1.8566,1.8185,1.7928,1.7693,1.738,1.7047,1.6637,1.6306,1.5736,1.5096,1.4444,1.3826,1.3012,1.2068,1.137,1.1376,1.0763,1.0338,1.0144,0.9982,0.9683,0.9369,0.9139,0.8816,0.8509,0.8436,0.8214,0.762,0.6587,0.4975,0.3797,0.3372,0.3986,0.4929,0.5029,0.6027,0.7502,0.7708,0.9274,1.1772,1.3183,1.4443,1.7788,1.9403,1.9512,1.6707,1.5248,1.5027,1.4323,1.4481,1.5369,1.5765,1.2308,1.3055,1.474,1.0898,0.8342,0.7658,0.6689,0.563,0.4101,0.2434,0.1101,-0.0179,-0.0045,0.0224,-0.0762,-0.1029,-0.1163,-0.1521,-0.1553,-0.1858,-0.1732,-0.1522,-0.126,-0.1724,-0.3102,-0.3428,-0.1214,0.3813,0.9308,1.1695,1.3243,1.4344,1.5331,1.5014,1.5355,1.745,1.8666,1.9692,2.2168,2.2168,2.1995,2.1911,2.1874,2.1811,2.1738,2.1694,2.1694,2.1702,2.1664,2.1581,2.1472,2.1332,2.1127,2.0941,2.0712,2.0654,2.034,2.0039,2.0051,1.9632,1.8943,1.8498,1.8309,1.8014,1.7557,1.7205,1.7288,1.7109,1.6801,1.6515,1.6057,1.5754,1.539,1.4829,1.446,1.385,1.3047,1.2433,1.2201,1.1855,1.1451,1.1329,1.1279,1.112,1.0784,1.0649,1.0458,1.0261,1.0179,1.014,1.0136,0.9798,0.8336,0.6253,0.5457,0.6408,0.736,0.7925,0.7682,0.8216,0.8099,0.9421,1.0971,1.2229,1.3943,1.6814,1.8377,1.7368,1.4912,1.4946,1.4785,1.3484,1.1564,1.0684,1.3248,1.2579,1.0589,0.9821,0.6368,0.5658,0.5989,0.505,0.4422,0.4473,0.2924,0.2191,0.1108,0.1159,0.0937,-0.0716,-0.1344,-0.1254,-0.1343,-0.1297,-0.179,-0.233,-0.2195,-0.2039,-0.2611,-0.3499,-0.349,-0.3309,-0.1226,0.3806,0.619,0.901,1.0953,1.1628,1.0313,1.0952,1.3579,1.7016,1.9335,2.1733,2.1689,2.1664,2.1642,2.1634,2.1612,2.1603,2.1612,2.1581,2.1612,2.155,2.1402,2.1294,2.1103,2.0687,2.0478,2.0376,2.0254,1.9937,1.9571,1.9514,1.9214,1.8598,1.8231,1.7941,1.7632,1.724,1.7044,1.7044,1.696,1.6742,1.6405,1.6188,1.5887,1.534,1.5062,1.4743,1.4253,1.3944,1.3569,1.3107,1.2749,1.2505,1.2358,1.2309,1.2206,1.1999,1.1846,1.1647,1.1497,1.1191,1.1091,1.104,1.1044,1.0914,0.998,0.8965,0.7918,0.8466,0.8736,0.8882,0.8892,0.8336,0.7903,0.9759,1.1807,1.2951,1.1116,1.4535,1.6028,1.4247,1.3772,1.3501,1.3372,1.2626,1.1258,1.1799,1.333,1.1372,1.0233,0.8445,0.6628,0.5897,0.4549,0.3463,0.3614,0.3588,0.294,0.2293,0.213,0.1828,0.0223,-0.0941,-0.0941,-0.121,-0.1164,-0.1521,-0.2463,-0.2597,-0.2549,-0.2996,-0.3399,-0.3442,-0.2956,-0.1645,-0.0526,0.249,0.533,0.7775,0.791,0.658,0.788,1.0165,1.3765,1.6369,2.2159,2.1597,2.1526,2.1503,2.1464,2.1379,2.1333,2.1294,2.1191,2.1151,2.1135,2.1063,2.0925,2.0718,2.0331,2.0185,2.015,2.0048,1.9646,1.9221,1.9072,1.8731,1.8035,1.7733,1.7536,1.7282,1.7031,1.6931,1.684,1.6699,1.6528,1.6318,1.6138,1.5925,1.5385,1.5198,1.488,1.4547,1.4258,1.4087,1.3852,1.361,1.3415,1.3324,1.3324,1.3185,1.304,1.2944,1.274,1.2589,1.2379,1.233,1.233,1.233,1.2316,1.2253,1.1594,1.0964,1.0818,1.066,1.0797,1.1277,1.1077,1.1434,1.1638,1.2454,1.3463,1.2644,1.3945,1.4648,1.4402,1.3825,1.3747,1.3637,1.3478,1.2764,1.1935,1.24,1.246,1.1545,1.0569,0.8782,0.7003,0.5734,0.4947,0.4791,0.4724,0.4168,0.3214,0.2392,0.2001,0.1338,0.0268,-0.0403,-0.0851,-0.1076,-0.112,-0.1835,-0.2506,-0.2551,-0.2911,-0.318,-0.3177,-0.322,-0.2584,-0.1375,-0.0039,0.1022,0.2825,0.2998,0.2852,0.4654,0.6174,0.4875,0.699,2.2541,2.1664,2.1544,2.1407,2.1238,2.1079,2.103,2.1014,2.1107,2.1063,2.0972,2.0962,2.0785,2.0458,2.0203,1.9955,1.997,2.0101,1.9641,1.9175,1.8845,1.8418,1.7787,1.7385,1.7141,1.6846,1.6876,1.6754,1.6626,1.6497,1.6362,1.6194,1.6144,1.5925,1.5659,1.5379,1.5057,1.4789,1.4512,1.4384,1.4354,1.4186,1.4077,1.4071,1.4077,1.3988,1.3805,1.3705,1.36,1.3409,1.3351,1.3304,1.3304,1.3251,1.3299,1.3299,1.3072,1.3067,1.287,1.2827,1.3346,1.3737,1.4129,1.3533,1.3606,1.4098,1.428,1.4075,1.4291,1.4446,1.431,1.4264,1.4019,1.3878,1.3652,1.3357,1.3021,1.288,1.2517,1.154,1.0918,1.0974,0.9239,0.7582,0.6643,0.6234,0.5783,0.5315,0.4314,0.3137,0.262,0.2183,0.1251,0.0448,0.0045,-0.0403,-0.0671,-0.1209,-0.1879,-0.2509,-0.2826,-0.2868,-0.2773,-0.2861,-0.2994,-0.2587,-0.1465,-0.1907,-0.2224,-0.0794,0.0477,0.1184,0.1476,0.0072,0.0035,2.2579,2.1793,2.1816,2.1444,2.0884,2.0835,2.0827,2.0936,2.1447,2.1572,2.1455,2.1259,2.1013,2.0748,2.0148,1.9784,1.9865,2.0393,1.9815,1.9276,1.9033,1.8481,1.7774,1.7203,1.6927,1.6718,1.6712,1.662,1.6448,1.6374,1.6281,1.6194,1.6106,1.5931,1.5754,1.548,1.5289,1.5062,1.4794,1.4702,1.4662,1.4512,1.4419,1.4425,1.4373,1.4321,1.4176,1.417,1.403,1.3889,1.3884,1.3836,1.3789,1.3742,1.3795,1.3842,1.3842,1.3884,1.3936,1.3795,1.3805,1.3968,1.4213,1.4354,1.4051,1.4892,1.5171,1.4759,1.4501,1.4691,1.4743,1.4789,1.417,1.403,1.37,1.3175,1.2837,1.2545,1.2106,1.1322,1.1113,1.1267,1.1003,0.9257,0.8164,0.7702,0.6865,0.6389,0.5229,0.4186,0.3681,0.3073,0.2099,0.1431,0.1208,0.076,0.0089,-0.0537,-0.1163,-0.1972,-0.2652,-0.2602,-0.2326,-0.2594,-0.2729,-0.2862,-0.2908,-0.2684,-0.2504,-0.2413,-0.171,-0.0467,0.0296,-0.0082,-0.0247,2.3513,2.2745,2.27,2.2165,2.1242,2.0751,2.0746,2.1016,2.1227,2.1532,2.1848,2.1249,2.0925,2.0625,1.9871,1.9582,1.9777,1.9674,1.9491,1.9349,1.9096,1.8485,1.7754,1.7311,1.7048,1.6715,1.659,1.654,1.6405,1.6324,1.6188,1.6144,1.6049,1.5887,1.5665,1.5531,1.539,1.5289,1.5114,1.4977,1.5028,1.4932,1.484,1.484,1.4834,1.4691,1.4558,1.4512,1.4332,1.4145,1.4176,1.4134,1.3994,1.3899,1.3852,1.3852,1.3899,1.3947,1.4134,1.4228,1.4419,1.4553,1.4575,1.4441,1.4046,1.4419,1.432,1.4197,1.4269,1.4414,1.4181,1.4082,1.3889,1.3941,1.3658,1.3089,1.2749,1.2403,1.2178,1.1593,1.1601,1.1714,1.1358,1.0773,0.9875,0.9107,0.825,0.7255,0.6092,0.511,0.4561,0.3913,0.2984,0.2409,0.2186,0.1518,0.076,0.0268,-0.0313,-0.1119,-0.1837,-0.1929,-0.1791,-0.2149,-0.2327,-0.237,-0.2461,-0.2642,-0.2687,-0.2594,-0.219,-0.1418,-0.089,-0.0314,-0.009,2.4112,2.3317,2.3286,2.274,2.1794,2.1146,2.1129,2.1443,2.1599,2.1917,2.2478,2.174,2.1353,2.1042,2.0242,1.9846,2.0091,1.9978,1.9656,1.9527,1.9333,1.8741,1.8151,1.7643,1.7331,1.6842,1.6623,1.6604,1.6324,1.6306,1.6175,1.6049,1.6031,1.5984,1.5715,1.5537,1.539,1.5334,1.5238,1.5159,1.521,1.5114,1.5068,1.5068,1.5068,1.4966,1.4834,1.4794,1.4697,1.4466,1.4373,1.4291,1.4098,1.3858,1.3716,1.3668,1.3626,1.3673,1.381,1.4316,1.4743,1.4697,1.4621,1.4436,1.4145,1.391,1.3926,1.3947,1.3889,1.3705,1.3615,1.3658,1.3568,1.3573,1.3185,1.2706,1.2603,1.2403,1.226,1.1994,1.1975,1.1813,1.164,1.1175,1.0289,0.9383,0.8357,0.7472,0.6634,0.5776,0.527,0.4615,0.3865,0.347,0.3117,0.2581,0.2136,0.1965,0.1248,0.0045,-0.058,-0.0759,-0.0716,-0.0626,-0.0938,-0.1565,-0.1788,-0.1787,-0.2236,-0.2775,-0.2372,-0.1971,-0.0447,0.0224,0.0224,2.4087,2.3317,2.3325,2.2932,2.234,2.2118,2.2026,2.2118,2.2565,2.3043,2.3412,2.2817,2.245,2.2148,2.0971,2.0524,2.0472,2.0562,2.0311,1.9778,1.9686,1.9349,1.8789,1.8225,1.7784,1.732,1.7093,1.6856,1.6404,1.642,1.6252,1.6254,1.6459,1.6344,1.587,1.5603,1.5373,1.5153,1.5147,1.5153,1.5153,1.5147,1.5153,1.5119,1.5119,1.5062,1.5068,1.5017,1.4926,1.4794,1.4512,1.4378,1.4228,1.3847,1.3663,1.3621,1.3673,1.3721,1.3815,1.449,1.4588,1.4419,1.4244,1.4109,1.3868,1.3773,1.3673,1.3547,1.3795,1.3747,1.361,1.3425,1.3195,1.3099,1.2754,1.2608,1.2501,1.2358,1.217,1.2126,1.1923,1.1769,1.1711,1.1374,1.0471,0.9518,0.8446,0.7602,0.6966,0.6346,0.5787,0.5318,0.4655,0.4301,0.3993,0.3816,0.3509,0.339,0.281,0.1644,0.0799,0.0489,0.0579,0.0938,0.0804,0.0445,-0.0223,-0.0759,-0.1294,-0.1787,-0.2693,-0.2245,-0.0537,0.0761,0.0851,2.4112,2.3758,2.3765,2.3643,2.3308,2.2414,2.219,2.247,2.2772,2.3152,2.3478,2.3001,2.2451,2.1878,2.1084,2.0475,2.0474,1.9867,1.9541,2.0012,1.9909,1.9498,1.9029,1.8723,1.8346,1.7953,1.7697,1.7513,1.7319,1.7008,1.6981,1.7026,1.6978,1.6828,1.635,1.5954,1.5564,1.5564,1.5463,1.5367,1.5373,1.5328,1.5289,1.5222,1.5216,1.521,1.521,1.5159,1.5062,1.4937,1.4564,1.4368,1.4118,1.3689,1.3266,1.3218,1.3165,1.3314,1.3563,1.3936,1.3978,1.38,1.3658,1.3467,1.317,1.2847,1.2793,1.2885,1.303,1.2895,1.2613,1.2559,1.251,1.2735,1.2638,1.2545,1.2447,1.2215,1.2081,1.213,1.2031,1.1895,1.1821,1.1278,1.0447,0.9655,0.8617,0.799,0.7367,0.6725,0.6155,0.5916,0.5486,0.5132,0.4822,0.4687,0.447,0.4216,0.3913,0.3241,0.2526,0.186,0.2533,0.3216,0.2901,0.2541,0.1423,0.0489,-0.0089,-0.0714,-0.1251,-0.2019,-0.1254,0.0448,0.1749,2.4124,2.4024,2.3982,2.3982,2.3796,2.3,2.2787,2.3001,2.3004,2.3243,2.3453,2.3033,2.2613,2.1974,2.1104,2.0475,2.0515,1.9885,1.9509,2.0061,1.9895,1.9604,1.9378,1.9208,1.884,1.8485,1.8195,1.7995,1.7568,1.7539,1.7581,1.7611,1.7593,1.7291,1.6834,1.637,1.5837,1.5715,1.5468,1.5379,1.5379,1.5334,1.5289,1.521,1.5216,1.5222,1.5222,1.5165,1.5062,1.4891,1.4651,1.4403,1.4055,1.3726,1.3208,1.3107,1.288,1.2977,1.3074,1.3137,1.3127,1.3025,1.2866,1.2822,1.2735,1.2559,1.2417,1.2318,1.2175,1.218,1.218,1.2126,1.2215,1.2442,1.2442,1.2398,1.2353,1.2126,1.2081,1.213,1.2126,1.1985,1.1755,1.1093,1.0366,0.9606,0.8798,0.8292,0.7796,0.7216,0.6628,0.6383,0.6221,0.5953,0.5733,0.5599,0.5341,0.5041,0.4735,0.4428,0.3991,0.3362,0.4458,0.5208,0.456,0.3743,0.2621,0.1776,0.1245,0.0979,0.0801,-0.0134,-0.1298,-0.0045,0.1927,2.4124,2.3982,2.3982,2.3897,2.3774,2.3654,2.3664,2.3572,2.3572,2.3565,2.3508,2.3032,2.2676,2.2493,2.1574,2.1026,2.0739,2.0137,1.9965,1.9837,1.9798,1.9736,1.9761,1.9684,1.9333,1.8819,1.8547,1.8344,1.7611,1.778,1.7953,1.8123,1.8121,1.7811,1.7376,1.6824,1.6194,1.5774,1.5525,1.548,1.5435,1.5289,1.5295,1.5255,1.5261,1.5255,1.5255,1.5255,1.5255,1.5114,1.4869,1.4715,1.4525,1.4346,1.3884,1.3415,1.291,1.2652,1.2486,1.2501,1.2442,1.2526,1.2725,1.2793,1.2662,1.2421,1.2323,1.2278,1.2229,1.2278,1.2224,1.2175,1.2076,1.217,1.217,1.2121,1.2121,1.2076,1.2076,1.2076,1.2076,1.1953,1.1651,1.1044,1.0572,0.9839,0.9161,0.8616,0.8177,0.7766,0.7216,0.6898,0.6777,0.6732,0.6559,0.631,0.6167,0.5782,0.5693,0.543,0.5038,0.4742,0.5285,0.566,0.5679,0.4999,0.3781,0.3025,0.2538,0.2405,0.2358,0.1782,0.0624,0.0579,0.1919,2.3932,2.3739,2.3696,2.3688,2.3645,2.3645,2.3645,2.3595,2.3595,2.3465,2.3076,2.2837,2.236,2.1664,2.114,2.0759,2.0416,2.0067,1.9965,1.9862,1.9805,1.9805,1.9811,1.9759,1.9583,1.9418,1.9158,1.8861,1.8754,1.8591,1.8482,1.8744,1.8627,1.8346,1.7881,1.7393,1.6621,1.5984,1.5721,1.5576,1.5599,1.5566,1.551,1.5498,1.5558,1.5535,1.5504,1.5439,1.5445,1.529,1.48,1.4507,1.446,1.4041,1.3515,1.3021,1.2647,1.2363,1.2241,1.2358,1.2412,1.2286,1.2491,1.2412,1.2328,1.2283,1.2278,1.2229,1.2229,1.218,1.2175,1.2126,1.2076,1.2076,1.2076,1.2076,1.2076,1.2076,1.2076,1.2076,1.2076,1.1985,1.1664,1.1392,1.091,1.0157,0.9549,0.9078,0.8608,0.8239,0.7836,0.7472,0.7343,0.7337,0.7058,0.678,0.6715,0.6611,0.6545,0.6301,0.582,0.5647,0.5933,0.6079,0.6076,0.5638,0.4875,0.428,0.3772,0.37,0.3656,0.317,0.2725,0.2269,0.2,2.3789,2.3595,2.3595,2.3516,2.3326,2.3326,2.3238,2.3098,2.3253,2.3113,2.2799,2.2267,2.1745,2.1175,2.0703,2.0321,2.0131,1.9959,1.9856,1.9862,1.9811,1.9805,1.9798,1.9689,1.9619,1.9552,1.9466,1.9172,1.9204,1.9152,1.8969,1.8951,1.8993,1.8668,1.8235,1.782,1.7273,1.659,1.6065,1.5826,1.5787,1.5906,1.5861,1.5808,1.5917,1.6012,1.578,1.5705,1.5916,1.5781,1.5308,1.5314,1.5065,1.4509,1.3899,1.3399,1.2895,1.2671,1.2524,1.2471,1.2466,1.2407,1.2358,1.2269,1.2229,1.2184,1.2175,1.2121,1.2126,1.2076,1.2076,1.2076,1.2076,1.2076,1.2076,1.2076,1.2076,1.2076,1.2076,1.2076,1.2076,1.2081,1.1917,1.1651,1.1383,1.0854,1.0428,1.0027,0.9497,0.9007,0.8498,0.8098,0.7997,0.7971,0.7668,0.7482,0.7527,0.75,0.7482,0.718,0.6605,0.6413,0.6502,0.651,0.6529,0.6038,0.5589,0.542,0.5043,0.493,0.476,0.4482,0.3719,0.2699,0.2519,2.3746,2.3595,2.3551,2.3238,2.2897,2.2844,2.2596,2.2175,2.2558,2.2694,2.2374,2.1602,2.1126,2.0795,2.0321,2.0074,1.9965,1.985,1.9798,1.9798,1.9805,1.9798,1.9741,1.9567,1.9585,1.946,1.9316,1.921,1.9046,1.8993,1.8993,1.8993,1.8993,1.877,1.8434,1.8175,1.7772,1.7358,1.662,1.6097,1.6133,1.6154,1.6179,1.6007,1.6368,1.674,1.625,1.6374,1.6985,1.6658,1.6444,1.6456,1.5899,1.5065,1.4411,1.3878,1.3228,1.2871,1.269,1.2637,1.2534,1.2431,1.2283,1.2278,1.2328,1.2234,1.2126,1.2121,1.2076,1.2076,1.2076,1.2076,1.2076,1.2077,1.2059,1.2163,1.2278,1.2278,1.2282,1.2241,1.2072,1.2068,1.2013,1.1799,1.1656,1.141,1.1225,1.0884,1.0403,0.9859,0.9312,0.8799,0.8632,0.8611,0.8521,0.8375,0.8452,0.8447,0.8314,0.8023,0.7483,0.7208,0.6993,0.7127,0.7229,0.6799,0.6388,0.6134,0.5887,0.5693,0.5564,0.5688,0.4928,0.3756,0.3794,2.3739,2.3551,2.3201,2.2785,2.2314,2.2314,2.2221,2.2028,2.1697,2.167,2.1643,2.1244,2.0809,2.0365,2.0061,1.9862,1.9856,1.985,1.9798,1.9798,1.9798,1.9798,1.9798,1.9689,1.9643,1.9604,1.946,1.921,1.9046,1.8993,1.8993,1.8993,1.8993,1.8849,1.8716,1.8482,1.8151,1.7959,1.7435,1.7009,1.7057,1.7057,1.7051,1.6973,1.7254,1.7199,1.6913,1.6857,1.6985,1.6752,1.6642,1.639,1.602,1.4976,1.4276,1.3805,1.342,1.3042,1.2811,1.2771,1.2702,1.2656,1.2534,1.2578,1.2529,1.2283,1.218,1.2126,1.2076,1.2076,1.2076,1.2076,1.2085,1.2063,1.2122,1.2328,1.2493,1.2577,1.2586,1.2374,1.2173,1.2095,1.2058,1.2004,1.1873,1.1855,1.1913,1.1688,1.1304,1.0768,1.0184,0.9699,0.935,0.9262,0.9205,0.921,0.919,0.9124,0.8988,0.8674,0.8325,0.8482,0.8569,0.8179,0.7979,0.7627,0.7234,0.6748,0.6539,0.6486,0.6455,0.655,0.6348,0.5401,0.5658,2.3194,2.2905,2.2634,2.2228,2.182,2.1711,2.1568,2.1334,2.095,2.0815,2.0822,2.0666,2.0365,2.0022,1.9856,1.9798,1.9798,1.9798,1.9798,1.9798,1.9798,1.9798,1.9798,1.9753,1.9604,1.9558,1.9356,1.9099,1.9046,1.8993,1.8993,1.8993,1.8993,1.8981,1.8951,1.8686,1.8536,1.853,1.8187,1.8091,1.8013,1.7911,1.761,1.7556,1.7717,1.7747,1.7589,1.7532,1.7695,1.7556,1.7411,1.6558,1.6067,1.5252,1.4697,1.4202,1.372,1.321,1.2972,1.2884,1.2974,1.2888,1.2717,1.2701,1.2391,1.2184,1.2234,1.218,1.213,1.2081,1.2076,1.2076,1.2076,1.2072,1.2277,1.243,1.2871,1.3224,1.2995,1.2553,1.236,1.2246,1.2173,1.1972,1.185,1.1805,1.1959,1.1972,1.1696,1.1486,1.0927,1.0517,1.013,0.9826,0.9676,0.9759,0.9896,0.9784,0.9614,0.9579,0.9519,0.9968,1.0183,0.949,0.8958,0.8651,0.8234,0.7773,0.7657,0.7709,0.7585,0.7458,0.7182,0.6985,0.7215,2.2512,2.2042,2.2002,2.1718,2.1313,2.1153,2.0921,2.0549,2.0283,2.0188,2.0233,2.0086,1.992,1.9862,1.9798,1.9798,1.9798,1.9798,1.9798,1.9798,1.9798,1.9798,1.9753,1.9708,1.9558,1.9408,1.9251,1.9152,1.9052,1.9046,1.8993,1.8993,1.8993,1.8993,1.8993,1.8981,1.8915,1.8885,1.8782,1.8885,1.8764,1.8566,1.8145,1.8145,1.8338,1.8428,1.8166,1.8196,1.8614,1.8285,1.7812,1.6888,1.6151,1.548,1.5058,1.4557,1.4136,1.3599,1.3192,1.3343,1.3274,1.3109,1.2934,1.2744,1.2452,1.2386,1.244,1.2297,1.2198,1.2135,1.2135,1.2076,1.2076,1.2204,1.2404,1.2783,1.3363,1.375,1.3334,1.2851,1.2713,1.2533,1.2254,1.2045,1.1927,1.1822,1.1791,1.1796,1.175,1.16,1.126,1.1021,1.0784,1.0495,1.0274,1.0331,1.0494,1.041,1.0276,1.0448,1.0547,1.0684,1.0718,1.0517,1.0071,0.9463,0.9329,0.9013,0.8978,0.8801,0.8586,0.835,0.8278,0.8155,0.8436,2.1962,2.1554,2.1561,2.1277,2.0842,2.0699,2.0555,2.0461,2.0144,2.0035,2.0029,1.992,1.9869,1.9933,1.9856,1.9798,1.9798,1.9798,1.9798,1.9798,1.9798,1.9798,1.9753,1.9656,1.9512,1.9414,1.9257,1.9257,1.9105,1.9046,1.8993,1.8993,1.8993,1.8987,1.8981,1.8987,1.8934,1.8881,1.8881,1.8881,1.8881,1.8808,1.8861,1.8831,1.8849,1.8808,1.8713,1.8726,1.8703,1.8331,1.7675,1.6796,1.6132,1.5558,1.5178,1.4869,1.4439,1.4066,1.3798,1.3886,1.3817,1.4043,1.3879,1.3465,1.3214,1.2987,1.2818,1.2426,1.2294,1.2217,1.2203,1.213,1.2149,1.2457,1.2661,1.3373,1.4018,1.4001,1.3732,1.3451,1.3227,1.29,1.2493,1.2283,1.2088,1.1974,1.1691,1.1691,1.1637,1.16,1.1517,1.1398,1.128,1.1267,1.1061,1.0943,1.099,1.0897,1.082,1.0761,1.0867,1.104,1.1036,1.0971,1.0561,1.0023,0.9915,1.0004,0.9694,0.9463,0.9387,0.9262,0.9183,0.9338,0.9573]}]]